<?xml version="1.0" encoding="UTF-8"?>
<gpx version="1.1" creator="2bulu-scraper" xmlns="http://www.topografix.com/GPX/1/1">
  <metadata><name>乐山峨眉山报国寺——金顶</name><desc>source: 2bulu.com trackId=85141888; exported 2026-09-01T17:23:21.148Z</desc>
    <bounds minlat="29.5227255" minlon="103.3267877" maxlat="29.5742103" maxlon="103.4414069"/>
    <link href="https://www.2bulu.com/track/t-8Y%252Bw0mrKVXfp%252FR2KBg5Tzw%253D%253D.htm"><text>2bulu 源页面</text></link>
  </metadata>
  <wpt lat="29.5705915" lon="103.4413871"><ele>497</ele><name>报国寺
        </name></wpt>
  <wpt lat="29.570319" lon="103.4413281"><ele>497</ele><name>红墙
        </name></wpt>
  <wpt lat="29.565705" lon="103.4343057"><ele>538</ele><name>起点
        </name></wpt>
  <wpt lat="29.5649343" lon="103.4268217"><ele>616</ele><name>
        </name></wpt>
  <wpt lat="29.5651772" lon="103.4257861"><ele>644</ele><name>
        </name></wpt>
  <wpt lat="29.5645116" lon="103.4230881"><ele>700</ele><name>
        </name></wpt>
  <wpt lat="29.5645116" lon="103.4230881"><ele>700</ele><name>
        </name></wpt>
  <wpt lat="29.5653255" lon="103.4212193"><ele>782</ele><name>
        </name></wpt>
  <wpt lat="29.5695709" lon="103.4195677"><ele>885</ele><name>
        </name></wpt>
  <wpt lat="29.5695709" lon="103.4195677"><ele>885</ele><name>
        </name></wpt>
  <wpt lat="29.5704457" lon="103.416982"><ele>879</ele><name>
        </name></wpt>
  <wpt lat="29.5704457" lon="103.416982"><ele>879</ele><name>
        </name></wpt>
  <wpt lat="29.5686835" lon="103.4103524"><ele>831</ele><name>
        </name></wpt>
  <wpt lat="29.5666701" lon="103.4079104"><ele>774</ele><name>
        </name></wpt>
  <wpt lat="29.5689205" lon="103.4038547"><ele>751</ele><name>
        </name></wpt>
  <wpt lat="29.5689205" lon="103.4038547"><ele>751</ele><name>
        </name></wpt>
  <wpt lat="29.5719928" lon="103.4012091"><ele>726</ele><name>收费处
        </name></wpt>
  <wpt lat="29.5719857" lon="103.4010144"><ele>729</ele><name>
        </name></wpt>
  <wpt lat="29.5741827" lon="103.3923948"><ele>655</ele><name>
        </name></wpt>
  <wpt lat="29.5741551" lon="103.392113"><ele>644</ele><name>
        </name></wpt>
  <wpt lat="29.5735364" lon="103.3918622"><ele>655</ele><name>
        </name></wpt>
  <wpt lat="29.5712998" lon="103.391683"><ele>678</ele><name>
        </name></wpt>
  <wpt lat="29.5707239" lon="103.3915303"><ele>676</ele><name>
        </name></wpt>
  <wpt lat="29.5690699" lon="103.3909239"><ele>672</ele><name>
        </name></wpt>
  <wpt lat="29.5688786" lon="103.3911009"><ele>672</ele><name>
        </name></wpt>
  <wpt lat="29.5687974" lon="103.3912334"><ele>678</ele><name>
        </name></wpt>
  <wpt lat="29.5686052" lon="103.3911638"><ele>678</ele><name>
        </name></wpt>
  <wpt lat="29.5684394" lon="103.3907079"><ele>675</ele><name>
        </name></wpt>
  <wpt lat="29.5660341" lon="103.3896975"><ele>699</ele><name>
        </name></wpt>
  <wpt lat="29.5660129" lon="103.3896257"><ele>701</ele><name>
        </name></wpt>
  <wpt lat="29.5646983" lon="103.3890123"><ele>710</ele><name>
        </name></wpt>
  <wpt lat="29.5568747" lon="103.3860491"><ele>799</ele><name>
        </name></wpt>
  <wpt lat="29.5568276" lon="103.3860006"><ele>795</ele><name>
        </name></wpt>
  <wpt lat="29.5568276" lon="103.3860006"><ele>795</ele><name>
        </name></wpt>
  <wpt lat="29.5566709" lon="103.3860824"><ele>789</ele><name>
        </name></wpt>
  <wpt lat="29.5556443" lon="103.3852113"><ele>887</ele><name>
        </name></wpt>
  <wpt lat="29.554662" lon="103.3846501"><ele>937</ele><name>
        </name></wpt>
  <wpt lat="29.5549968" lon="103.3840176"><ele>961</ele><name>
        </name></wpt>
  <wpt lat="29.5549968" lon="103.3840176"><ele>961</ele><name>
        </name></wpt>
  <wpt lat="29.5520644" lon="103.3768237"><ele>1142</ele><name>
        </name></wpt>
  <wpt lat="29.5518177" lon="103.3766593"><ele>1152</ele><name>
        </name></wpt>
  <wpt lat="29.5506546" lon="103.3719816"><ele>1212</ele><name>
        </name></wpt>
  <wpt lat="29.550463" lon="103.3703245"><ele>1196</ele><name>
        </name></wpt>
  <wpt lat="29.5495309" lon="103.3685523"><ele>1252</ele><name>
        </name></wpt>
  <wpt lat="29.5495309" lon="103.3685523"><ele>1252</ele><name>
        </name></wpt>
  <wpt lat="29.5498887" lon="103.3681778"><ele>1316</ele><name>
        </name></wpt>
  <wpt lat="29.5494116" lon="103.3664528"><ele>1446</ele><name>
        </name></wpt>
  <wpt lat="29.5493797" lon="103.3663565"><ele>1451</ele><name>
        </name></wpt>
  <wpt lat="29.5503576" lon="103.3584374"><ele>1672</ele><name>
        </name></wpt>
  <wpt lat="29.5503533" lon="103.356977"><ele>1695</ele><name>
        </name></wpt>
  <wpt lat="29.5502487" lon="103.3569114"><ele>1700</ele><name>
        </name></wpt>
  <wpt lat="29.5575657" lon="103.3515209"><ele>1541</ele><name>
        </name></wpt>
  <wpt lat="29.5606168" lon="103.3516234"><ele>1659</ele><name>
        </name></wpt>
  <wpt lat="29.5613866" lon="103.3453436"><ele>1775</ele><name>
        </name></wpt>
  <wpt lat="29.5588695" lon="103.34426"><ele>2016</ele><name>
        </name></wpt>
  <wpt lat="29.5587789" lon="103.3442709"><ele>2021</ele><name>
        </name></wpt>
  <wpt lat="29.5576095" lon="103.3439582"><ele>2037</ele><name>
        </name></wpt>
  <wpt lat="29.541756" lon="103.3316615"><ele>2386</ele><name>
        </name></wpt>
  <trk><name>乐山峨眉山报国寺——金顶</name>
      <trkseg>
        <trkpt lat="29.5712518" lon="103.4412614"><ele>496.99</ele><time>2026-05-05T01:10:41.000Z</time></trkpt>
        <trkpt lat="29.5711784" lon="103.4413197"><ele>496.99</ele><time>2026-05-05T01:10:53.000Z</time></trkpt>
        <trkpt lat="29.571084" lon="103.4413251"><ele>497.38</ele><time>2026-05-05T01:11:01.000Z</time></trkpt>
        <trkpt lat="29.5709811" lon="103.4413511"><ele>497.99</ele><time>2026-05-05T01:11:11.000Z</time></trkpt>
        <trkpt lat="29.5708871" lon="103.4413904"><ele>498.77</ele><time>2026-05-05T01:11:21.000Z</time></trkpt>
        <trkpt lat="29.5707879" lon="103.4413924"><ele>499.7</ele><time>2026-05-05T01:11:33.000Z</time></trkpt>
        <trkpt lat="29.5706847" lon="103.441363"><ele>499.74</ele><time>2026-05-05T01:11:43.000Z</time></trkpt>
        <trkpt lat="29.5705915" lon="103.4413871"><ele>499.02</ele><time>2026-05-05T01:11:55.000Z</time></trkpt>
        <trkpt lat="29.5705673" lon="103.4413668"><ele>498.33</ele><time>2026-05-05T01:12:09.000Z</time></trkpt>
        <trkpt lat="29.5705028" lon="103.4414069"><ele>498.18</ele><time>2026-05-05T01:12:19.000Z</time></trkpt>
        <trkpt lat="29.5704114" lon="103.4413758"><ele>497.66</ele><time>2026-05-05T01:12:29.000Z</time></trkpt>
        <trkpt lat="29.570319" lon="103.4413281"><ele>497.02</ele><time>2026-05-05T01:12:37.000Z</time></trkpt>
        <trkpt lat="29.5702292" lon="103.4412705"><ele>496.91</ele><time>2026-05-05T01:12:47.000Z</time></trkpt>
        <trkpt lat="29.5701264" lon="103.4412228"><ele>497.12</ele><time>2026-05-05T01:12:57.000Z</time></trkpt>
        <trkpt lat="29.5700327" lon="103.4411583"><ele>497.35</ele><time>2026-05-05T01:13:05.000Z</time></trkpt>
        <trkpt lat="29.5699417" lon="103.4410984"><ele>497.24</ele><time>2026-05-05T01:13:13.000Z</time></trkpt>
        <trkpt lat="29.5698444" lon="103.4410572"><ele>497.38</ele><time>2026-05-05T01:13:21.000Z</time></trkpt>
        <trkpt lat="29.5697358" lon="103.44103"><ele>498.71</ele><time>2026-05-05T01:13:29.000Z</time></trkpt>
        <trkpt lat="29.569631" lon="103.4409872"><ele>499.17</ele><time>2026-05-05T01:13:37.000Z</time></trkpt>
        <trkpt lat="29.5695294" lon="103.4409577"><ele>498.87</ele><time>2026-05-05T01:13:45.000Z</time></trkpt>
        <trkpt lat="29.5694273" lon="103.4409457"><ele>498.53</ele><time>2026-05-05T01:13:53.000Z</time></trkpt>
        <trkpt lat="29.5693318" lon="103.4409501"><ele>497.98</ele><time>2026-05-05T01:14:01.000Z</time></trkpt>
        <trkpt lat="29.5692362" lon="103.4409625"><ele>497.59</ele><time>2026-05-05T01:14:09.000Z</time></trkpt>
        <trkpt lat="29.5691292" lon="103.4409591"><ele>496.35</ele><time>2026-05-05T01:14:17.000Z</time></trkpt>
        <trkpt lat="29.5690561" lon="103.4408826"><ele>495.23</ele><time>2026-05-05T01:14:25.000Z</time></trkpt>
        <trkpt lat="29.5690234" lon="103.4407549"><ele>495.07</ele><time>2026-05-05T01:14:33.000Z</time></trkpt>
        <trkpt lat="29.569013" lon="103.4406178"><ele>494.79</ele><time>2026-05-05T01:14:41.000Z</time></trkpt>
        <trkpt lat="29.5690028" lon="103.4404906"><ele>494.91</ele><time>2026-05-05T01:14:49.000Z</time></trkpt>
        <trkpt lat="29.5690104" lon="103.4403663"><ele>495.38</ele><time>2026-05-05T01:14:59.000Z</time></trkpt>
        <trkpt lat="29.5689989" lon="103.440258"><ele>495.24</ele><time>2026-05-05T01:15:07.000Z</time></trkpt>
        <trkpt lat="29.5689542" lon="103.4401693"><ele>495.25</ele><time>2026-05-05T01:15:15.000Z</time></trkpt>
        <trkpt lat="29.5688735" lon="103.4400885"><ele>495.66</ele><time>2026-05-05T01:15:25.000Z</time></trkpt>
        <trkpt lat="29.5688028" lon="103.4400078"><ele>497</ele><time>2026-05-05T01:15:33.000Z</time></trkpt>
        <trkpt lat="29.5687407" lon="103.4399145"><ele>498.64</ele><time>2026-05-05T01:15:41.000Z</time></trkpt>
        <trkpt lat="29.5686811" lon="103.4398191"><ele>500.49</ele><time>2026-05-05T01:15:49.000Z</time></trkpt>
        <trkpt lat="29.568619" lon="103.439725"><ele>501.76</ele><time>2026-05-05T01:15:57.000Z</time></trkpt>
        <trkpt lat="29.5685541" lon="103.4396265"><ele>503.09</ele><time>2026-05-05T01:16:05.000Z</time></trkpt>
        <trkpt lat="29.5684819" lon="103.4395276"><ele>504.85</ele><time>2026-05-05T01:16:13.000Z</time></trkpt>
        <trkpt lat="29.5684077" lon="103.4394347"><ele>505.97</ele><time>2026-05-05T01:16:21.000Z</time></trkpt>
        <trkpt lat="29.5683215" lon="103.4393579"><ele>507.37</ele><time>2026-05-05T01:16:29.000Z</time></trkpt>
        <trkpt lat="29.5682367" lon="103.4392809"><ele>508.76</ele><time>2026-05-05T01:16:37.000Z</time></trkpt>
        <trkpt lat="29.5681479" lon="103.4392115"><ele>509.37</ele><time>2026-05-05T01:16:45.000Z</time></trkpt>
        <trkpt lat="29.5680704" lon="103.4391315"><ele>510.16</ele><time>2026-05-05T01:16:53.000Z</time></trkpt>
        <trkpt lat="29.56799" lon="103.4390458"><ele>511.76</ele><time>2026-05-05T01:17:01.000Z</time></trkpt>
        <trkpt lat="29.5679207" lon="103.4389585"><ele>512.56</ele><time>2026-05-05T01:17:09.000Z</time></trkpt>
        <trkpt lat="29.5678538" lon="103.4388762"><ele>513.34</ele><time>2026-05-05T01:17:17.000Z</time></trkpt>
        <trkpt lat="29.567793" lon="103.4387907"><ele>513.34</ele><time>2026-05-05T01:17:25.000Z</time></trkpt>
        <trkpt lat="29.5677319" lon="103.4386942"><ele>513.29</ele><time>2026-05-05T01:17:33.000Z</time></trkpt>
        <trkpt lat="29.5676674" lon="103.4385954"><ele>513.69</ele><time>2026-05-05T01:17:41.000Z</time></trkpt>
        <trkpt lat="29.5675967" lon="103.4385202"><ele>513.66</ele><time>2026-05-05T01:17:47.000Z</time></trkpt>
        <trkpt lat="29.5675188" lon="103.4384411"><ele>514.08</ele><time>2026-05-05T01:17:55.000Z</time></trkpt>
        <trkpt lat="29.5674645" lon="103.4383468"><ele>514.39</ele><time>2026-05-05T01:18:03.000Z</time></trkpt>
        <trkpt lat="29.5674262" lon="103.4382484"><ele>515.42</ele><time>2026-05-05T01:18:15.000Z</time></trkpt>
        <trkpt lat="29.5673946" lon="103.4381479"><ele>515.57</ele><time>2026-05-05T01:18:25.000Z</time></trkpt>
        <trkpt lat="29.5673301" lon="103.438048"><ele>514.9</ele><time>2026-05-05T01:18:35.000Z</time></trkpt>
        <trkpt lat="29.5672643" lon="103.437963"><ele>515.34</ele><time>2026-05-05T01:18:43.000Z</time></trkpt>
        <trkpt lat="29.5671951" lon="103.4378817"><ele>516.2</ele><time>2026-05-05T01:18:51.000Z</time></trkpt>
        <trkpt lat="29.5671336" lon="103.4377921"><ele>517.21</ele><time>2026-05-05T01:18:59.000Z</time></trkpt>
        <trkpt lat="29.5670639" lon="103.4376997"><ele>519.08</ele><time>2026-05-05T01:19:07.000Z</time></trkpt>
        <trkpt lat="29.567011" lon="103.4376003"><ele>521.35</ele><time>2026-05-05T01:19:15.000Z</time></trkpt>
        <trkpt lat="29.5669626" lon="103.4375"><ele>522.91</ele><time>2026-05-05T01:19:23.000Z</time></trkpt>
        <trkpt lat="29.566906" lon="103.4373876"><ele>525.08</ele><time>2026-05-05T01:19:33.000Z</time></trkpt>
        <trkpt lat="29.5668459" lon="103.437297"><ele>526.4</ele><time>2026-05-05T01:19:39.000Z</time></trkpt>
        <trkpt lat="29.5667917" lon="103.4372093"><ele>527.55</ele><time>2026-05-05T01:19:45.000Z</time></trkpt>
        <trkpt lat="29.5667373" lon="103.4371231"><ele>528.91</ele><time>2026-05-05T01:19:53.000Z</time></trkpt>
        <trkpt lat="29.566674" lon="103.4370275"><ele>530.2</ele><time>2026-05-05T01:20:01.000Z</time></trkpt>
        <trkpt lat="29.5666059" lon="103.4369215"><ele>531.66</ele><time>2026-05-05T01:20:09.000Z</time></trkpt>
        <trkpt lat="29.5665321" lon="103.4368161"><ele>533.01</ele><time>2026-05-05T01:20:17.000Z</time></trkpt>
        <trkpt lat="29.5664673" lon="103.4367149"><ele>534.14</ele><time>2026-05-05T01:20:25.000Z</time></trkpt>
        <trkpt lat="29.5664091" lon="103.436608"><ele>534.4</ele><time>2026-05-05T01:20:33.000Z</time></trkpt>
        <trkpt lat="29.5663514" lon="103.4364973"><ele>535.02</ele><time>2026-05-05T01:20:41.000Z</time></trkpt>
        <trkpt lat="29.5662956" lon="103.4363806"><ele>535.7</ele><time>2026-05-05T01:20:49.000Z</time></trkpt>
        <trkpt lat="29.5662525" lon="103.4362656"><ele>537.51</ele><time>2026-05-05T01:20:57.000Z</time></trkpt>
        <trkpt lat="29.5662227" lon="103.4361408"><ele>538.83</ele><time>2026-05-05T01:21:07.000Z</time></trkpt>
        <trkpt lat="29.5661781" lon="103.4360222"><ele>538.28</ele><time>2026-05-05T01:21:15.000Z</time></trkpt>
        <trkpt lat="29.56613" lon="103.435897"><ele>537.08</ele><time>2026-05-05T01:21:23.000Z</time></trkpt>
        <trkpt lat="29.5660952" lon="103.4357906"><ele>537.2</ele><time>2026-05-05T01:21:29.000Z</time></trkpt>
        <trkpt lat="29.5660511" lon="103.4356836"><ele>537.35</ele><time>2026-05-05T01:21:37.000Z</time></trkpt>
        <trkpt lat="29.5660165" lon="103.4355847"><ele>538.14</ele><time>2026-05-05T01:21:45.000Z</time></trkpt>
        <trkpt lat="29.5659867" lon="103.4354847"><ele>539.13</ele><time>2026-05-05T01:21:53.000Z</time></trkpt>
        <trkpt lat="29.5659665" lon="103.4353721"><ele>539.14</ele><time>2026-05-05T01:22:01.000Z</time></trkpt>
        <trkpt lat="29.565945" lon="103.435264"><ele>538.75</ele><time>2026-05-05T01:22:09.000Z</time></trkpt>
        <trkpt lat="29.5659118" lon="103.4351537"><ele>538.85</ele><time>2026-05-05T01:22:17.000Z</time></trkpt>
        <trkpt lat="29.5658654" lon="103.4350567"><ele>538.79</ele><time>2026-05-05T01:22:23.000Z</time></trkpt>
        <trkpt lat="29.5658075" lon="103.4349556"><ele>541.48</ele><time>2026-05-05T01:22:33.000Z</time></trkpt>
        <trkpt lat="29.5657418" lon="103.4348742"><ele>543.14</ele><time>2026-05-05T01:22:51.000Z</time></trkpt>
        <trkpt lat="29.5656566" lon="103.4348194"><ele>540.36</ele><time>2026-05-05T01:23:05.000Z</time></trkpt>
        <trkpt lat="29.565598" lon="103.4347364"><ele>540.44</ele><time>2026-05-05T01:23:15.000Z</time></trkpt>
        <trkpt lat="29.5655786" lon="103.4346294"><ele>539.6</ele><time>2026-05-05T01:23:23.000Z</time></trkpt>
        <trkpt lat="29.5655966" lon="103.43452"><ele>539.17</ele><time>2026-05-05T01:23:31.000Z</time></trkpt>
        <trkpt lat="29.5656462" lon="103.4344024"><ele>538.45</ele><time>2026-05-05T01:23:41.000Z</time></trkpt>
        <trkpt lat="29.565705" lon="103.4343057"><ele>538.21</ele><time>2026-05-05T01:23:49.000Z</time></trkpt>
        <trkpt lat="29.5657703" lon="103.434218"><ele>538.19</ele><time>2026-05-05T01:24:03.000Z</time></trkpt>
        <trkpt lat="29.5657812" lon="103.4341102"><ele>540.62</ele><time>2026-05-05T01:24:13.000Z</time></trkpt>
        <trkpt lat="29.5657587" lon="103.433992"><ele>542.67</ele><time>2026-05-05T01:24:23.000Z</time></trkpt>
        <trkpt lat="29.5657323" lon="103.4338709"><ele>545.53</ele><time>2026-05-05T01:24:33.000Z</time></trkpt>
        <trkpt lat="29.5657269" lon="103.4337513"><ele>548.05</ele><time>2026-05-05T01:24:41.000Z</time></trkpt>
        <trkpt lat="29.5657343" lon="103.433633"><ele>549.37</ele><time>2026-05-05T01:24:49.000Z</time></trkpt>
        <trkpt lat="29.5657422" lon="103.4335102"><ele>549.97</ele><time>2026-05-05T01:24:57.000Z</time></trkpt>
        <trkpt lat="29.5657502" lon="103.4333908"><ele>550.74</ele><time>2026-05-05T01:25:05.000Z</time></trkpt>
        <trkpt lat="29.5657372" lon="103.43328"><ele>551.19</ele><time>2026-05-05T01:25:13.000Z</time></trkpt>
        <trkpt lat="29.5657158" lon="103.4331671"><ele>551.65</ele><time>2026-05-05T01:25:21.000Z</time></trkpt>
        <trkpt lat="29.5657013" lon="103.4330505"><ele>553.66</ele><time>2026-05-05T01:25:29.000Z</time></trkpt>
        <trkpt lat="29.5656649" lon="103.4329337"><ele>554.75</ele><time>2026-05-05T01:25:39.000Z</time></trkpt>
        <trkpt lat="29.5656313" lon="103.4328298"><ele>554.39</ele><time>2026-05-05T01:25:47.000Z</time></trkpt>
        <trkpt lat="29.5655835" lon="103.4327295"><ele>553.3</ele><time>2026-05-05T01:25:55.000Z</time></trkpt>
        <trkpt lat="29.5655324" lon="103.4326248"><ele>552.84</ele><time>2026-05-05T01:26:03.000Z</time></trkpt>
        <trkpt lat="29.5654791" lon="103.4325298"><ele>552.85</ele><time>2026-05-05T01:26:11.000Z</time></trkpt>
        <trkpt lat="29.5654603" lon="103.4324124"><ele>551.68</ele><time>2026-05-05T01:26:19.000Z</time></trkpt>
        <trkpt lat="29.5654429" lon="103.4322866"><ele>552.34</ele><time>2026-05-05T01:26:29.000Z</time></trkpt>
        <trkpt lat="29.5654072" lon="103.4321775"><ele>553.52</ele><time>2026-05-05T01:26:37.000Z</time></trkpt>
        <trkpt lat="29.5653557" lon="103.4320795"><ele>555.33</ele><time>2026-05-05T01:26:45.000Z</time></trkpt>
        <trkpt lat="29.5653124" lon="103.4319734"><ele>557.13</ele><time>2026-05-05T01:26:57.000Z</time></trkpt>
        <trkpt lat="29.5653156" lon="103.4318689"><ele>559.26</ele><time>2026-05-05T01:27:05.000Z</time></trkpt>
        <trkpt lat="29.5653525" lon="103.4317609"><ele>560.94</ele><time>2026-05-05T01:27:13.000Z</time></trkpt>
        <trkpt lat="29.5654063" lon="103.4316431"><ele>561.82</ele><time>2026-05-05T01:27:21.000Z</time></trkpt>
        <trkpt lat="29.5654357" lon="103.4315302"><ele>561.83</ele><time>2026-05-05T01:27:29.000Z</time></trkpt>
        <trkpt lat="29.5654516" lon="103.4314219"><ele>563.17</ele><time>2026-05-05T01:27:41.000Z</time></trkpt>
        <trkpt lat="29.5654893" lon="103.4313368"><ele>565.06</ele><time>2026-05-05T01:27:53.000Z</time></trkpt>
        <trkpt lat="29.565518" lon="103.431222"><ele>566.83</ele><time>2026-05-05T01:28:13.000Z</time></trkpt>
        <trkpt lat="29.5655498" lon="103.4311037"><ele>569.99</ele><time>2026-05-05T01:28:23.000Z</time></trkpt>
        <trkpt lat="29.5655416" lon="103.4309902"><ele>572.16</ele><time>2026-05-05T01:28:33.000Z</time></trkpt>
        <trkpt lat="29.5654876" lon="103.430905"><ele>574.64</ele><time>2026-05-05T01:28:41.000Z</time></trkpt>
        <trkpt lat="29.5654088" lon="103.4308345"><ele>577.03</ele><time>2026-05-05T01:28:49.000Z</time></trkpt>
        <trkpt lat="29.565365" lon="103.4307421"><ele>578.78</ele><time>2026-05-05T01:28:57.000Z</time></trkpt>
        <trkpt lat="29.5653444" lon="103.4306265"><ele>579.99</ele><time>2026-05-05T01:29:05.000Z</time></trkpt>
        <trkpt lat="29.5653176" lon="103.4305123"><ele>580.82</ele><time>2026-05-05T01:29:13.000Z</time></trkpt>
        <trkpt lat="29.5652812" lon="103.4303924"><ele>581.86</ele><time>2026-05-05T01:29:21.000Z</time></trkpt>
        <trkpt lat="29.5652677" lon="103.4302772"><ele>583.3</ele><time>2026-05-05T01:29:31.000Z</time></trkpt>
        <trkpt lat="29.5652502" lon="103.4301586"><ele>585.43</ele><time>2026-05-05T01:29:39.000Z</time></trkpt>
        <trkpt lat="29.5652302" lon="103.430036"><ele>588.82</ele><time>2026-05-05T01:29:49.000Z</time></trkpt>
        <trkpt lat="29.5652096" lon="103.4299205"><ele>591.73</ele><time>2026-05-05T01:29:57.000Z</time></trkpt>
        <trkpt lat="29.5651771" lon="103.4298096"><ele>593.59</ele><time>2026-05-05T01:30:07.000Z</time></trkpt>
        <trkpt lat="29.5651282" lon="103.429703"><ele>593.84</ele><time>2026-05-05T01:30:15.000Z</time></trkpt>
        <trkpt lat="29.5650871" lon="103.4296015"><ele>593.99</ele><time>2026-05-05T01:30:25.000Z</time></trkpt>
        <trkpt lat="29.565047" lon="103.4294919"><ele>593.19</ele><time>2026-05-05T01:30:37.000Z</time></trkpt>
        <trkpt lat="29.5649922" lon="103.4293996"><ele>590.9</ele><time>2026-05-05T01:30:45.000Z</time></trkpt>
        <trkpt lat="29.5649383" lon="103.429289"><ele>589.24</ele><time>2026-05-05T01:30:55.000Z</time></trkpt>
        <trkpt lat="29.5649055" lon="103.4291722"><ele>587.31</ele><time>2026-05-05T01:31:03.000Z</time></trkpt>
        <trkpt lat="29.5648678" lon="103.429047"><ele>585.63</ele><time>2026-05-05T01:31:11.000Z</time></trkpt>
        <trkpt lat="29.5648377" lon="103.428926"><ele>584.9</ele><time>2026-05-05T01:31:19.000Z</time></trkpt>
        <trkpt lat="29.5648206" lon="103.4288021"><ele>584.08</ele><time>2026-05-05T01:31:27.000Z</time></trkpt>
        <trkpt lat="29.5648113" lon="103.4286914"><ele>583.74</ele><time>2026-05-05T01:31:33.000Z</time></trkpt>
        <trkpt lat="29.5648008" lon="103.4285723"><ele>584.33</ele><time>2026-05-05T01:31:41.000Z</time></trkpt>
        <trkpt lat="29.5647988" lon="103.4284531"><ele>585.59</ele><time>2026-05-05T01:31:49.000Z</time></trkpt>
        <trkpt lat="29.5648611" lon="103.4283805"><ele>585.91</ele><time>2026-05-05T01:31:55.000Z</time></trkpt>
        <trkpt lat="29.5649567" lon="103.4283286"><ele>586.79</ele><time>2026-05-05T01:32:03.000Z</time></trkpt>
        <trkpt lat="29.5650576" lon="103.4282827"><ele>587.33</ele><time>2026-05-05T01:32:11.000Z</time></trkpt>
        <trkpt lat="29.5651488" lon="103.4282207"><ele>588.14</ele><time>2026-05-05T01:32:19.000Z</time></trkpt>
        <trkpt lat="29.5652326" lon="103.4281505"><ele>588.75</ele><time>2026-05-05T01:32:27.000Z</time></trkpt>
        <trkpt lat="29.5653085" lon="103.4280761"><ele>589.63</ele><time>2026-05-05T01:32:35.000Z</time></trkpt>
        <trkpt lat="29.5653786" lon="103.4279985"><ele>589.05</ele><time>2026-05-05T01:32:43.000Z</time></trkpt>
        <trkpt lat="29.5654537" lon="103.4279168"><ele>588.12</ele><time>2026-05-05T01:32:51.000Z</time></trkpt>
        <trkpt lat="29.5654619" lon="103.427818"><ele>589.72</ele><time>2026-05-05T01:33:01.000Z</time></trkpt>
        <trkpt lat="29.565426" lon="103.4277109"><ele>590.46</ele><time>2026-05-05T01:33:09.000Z</time></trkpt>
        <trkpt lat="29.5653844" lon="103.4276044"><ele>593.06</ele><time>2026-05-05T01:33:17.000Z</time></trkpt>
        <trkpt lat="29.5653549" lon="103.4274969"><ele>595.77</ele><time>2026-05-05T01:33:25.000Z</time></trkpt>
        <trkpt lat="29.5653355" lon="103.42739"><ele>597.86</ele><time>2026-05-05T01:33:33.000Z</time></trkpt>
        <trkpt lat="29.5653171" lon="103.4272758"><ele>600.15</ele><time>2026-05-05T01:33:41.000Z</time></trkpt>
        <trkpt lat="29.5652928" lon="103.4271618"><ele>602.8</ele><time>2026-05-05T01:33:51.000Z</time></trkpt>
        <trkpt lat="29.565245" lon="103.4270545"><ele>604.28</ele><time>2026-05-05T01:34:03.000Z</time></trkpt>
        <trkpt lat="29.565158" lon="103.426996"><ele>607.66</ele><time>2026-05-05T01:34:13.000Z</time></trkpt>
        <trkpt lat="29.565084" lon="103.4269215"><ele>610.52</ele><time>2026-05-05T01:34:21.000Z</time></trkpt>
        <trkpt lat="29.5649901" lon="103.4269072"><ele>613.01</ele><time>2026-05-05T01:34:29.000Z</time></trkpt>
        <trkpt lat="29.5649343" lon="103.4268217"><ele>615.14</ele><time>2026-05-05T01:34:39.000Z</time></trkpt>
        <trkpt lat="29.564953" lon="103.4267141"><ele>615.41</ele><time>2026-05-05T01:34:47.000Z</time></trkpt>
        <trkpt lat="29.5649922" lon="103.4266091"><ele>614.89</ele><time>2026-05-05T01:35:05.000Z</time></trkpt>
        <trkpt lat="29.5650085" lon="103.4265004"><ele>614.54</ele><time>2026-05-05T01:35:27.000Z</time></trkpt>
        <trkpt lat="29.5650266" lon="103.4263952"><ele>613.43</ele><time>2026-05-05T01:35:45.000Z</time></trkpt>
        <trkpt lat="29.565049" lon="103.4262934"><ele>615.24</ele><time>2026-05-05T01:36:01.000Z</time></trkpt>
        <trkpt lat="29.5650838" lon="103.4261957"><ele>618.74</ele><time>2026-05-05T01:36:21.000Z</time></trkpt>
        <trkpt lat="29.565105" lon="103.4260915"><ele>623.57</ele><time>2026-05-05T01:36:41.000Z</time></trkpt>
        <trkpt lat="29.5651378" lon="103.4259915"><ele>627.87</ele><time>2026-05-05T01:37:13.000Z</time></trkpt>
        <trkpt lat="29.5651554" lon="103.4258896"><ele>632.16</ele><time>2026-05-05T01:37:33.000Z</time></trkpt>
        <trkpt lat="29.5651772" lon="103.4257861"><ele>636.76</ele><time>2026-05-05T01:37:59.000Z</time></trkpt>
        <trkpt lat="29.5651603" lon="103.4256833"><ele>639.85</ele><time>2026-05-05T01:38:41.000Z</time></trkpt>
        <trkpt lat="29.5650981" lon="103.4256026"><ele>641.54</ele><time>2026-05-05T01:38:51.000Z</time></trkpt>
        <trkpt lat="29.5650235" lon="103.425521"><ele>641.93</ele><time>2026-05-05T01:38:59.000Z</time></trkpt>
        <trkpt lat="29.5649613" lon="103.4254145"><ele>642.19</ele><time>2026-05-05T01:39:07.000Z</time></trkpt>
        <trkpt lat="29.5648908" lon="103.425311"><ele>642.51</ele><time>2026-05-05T01:39:15.000Z</time></trkpt>
        <trkpt lat="29.5648169" lon="103.4252183"><ele>643.09</ele><time>2026-05-05T01:39:23.000Z</time></trkpt>
        <trkpt lat="29.5647641" lon="103.4251045"><ele>642.99</ele><time>2026-05-05T01:39:31.000Z</time></trkpt>
        <trkpt lat="29.5647599" lon="103.4249902"><ele>644.49</ele><time>2026-05-05T01:39:43.000Z</time></trkpt>
        <trkpt lat="29.5647596" lon="103.424882"><ele>645.98</ele><time>2026-05-05T01:39:55.000Z</time></trkpt>
        <trkpt lat="29.5647071" lon="103.4248049"><ele>647.41</ele><time>2026-05-05T01:40:05.000Z</time></trkpt>
        <trkpt lat="29.5646719" lon="103.4247041"><ele>649.01</ele><time>2026-05-05T01:40:17.000Z</time></trkpt>
        <trkpt lat="29.5646526" lon="103.4245937"><ele>652.38</ele><time>2026-05-05T01:40:27.000Z</time></trkpt>
        <trkpt lat="29.5646364" lon="103.4244857"><ele>656.6</ele><time>2026-05-05T01:40:37.000Z</time></trkpt>
        <trkpt lat="29.5645935" lon="103.4243884"><ele>658.9</ele><time>2026-05-05T01:40:47.000Z</time></trkpt>
        <trkpt lat="29.5645702" lon="103.4242855"><ele>660.74</ele><time>2026-05-05T01:40:59.000Z</time></trkpt>
        <trkpt lat="29.5645201" lon="103.4241934"><ele>663.98</ele><time>2026-05-05T01:41:29.000Z</time></trkpt>
        <trkpt lat="29.5644607" lon="103.4241011"><ele>666.68</ele><time>2026-05-05T01:41:55.000Z</time></trkpt>
        <trkpt lat="29.5644027" lon="103.4240094"><ele>670.58</ele><time>2026-05-05T01:42:13.000Z</time></trkpt>
        <trkpt lat="29.5643461" lon="103.4239207"><ele>672.97</ele><time>2026-05-05T01:42:27.000Z</time></trkpt>
        <trkpt lat="29.5643266" lon="103.4238204"><ele>674.75</ele><time>2026-05-05T01:42:37.000Z</time></trkpt>
        <trkpt lat="29.564314" lon="103.4237138"><ele>675.84</ele><time>2026-05-05T01:42:55.000Z</time></trkpt>
        <trkpt lat="29.5643349" lon="103.4236003"><ele>677.37</ele><time>2026-05-05T01:43:09.000Z</time></trkpt>
        <trkpt lat="29.56439" lon="103.4235041"><ele>679.23</ele><time>2026-05-05T01:43:17.000Z</time></trkpt>
        <trkpt lat="29.5644425" lon="103.4234086"><ele>681.52</ele><time>2026-05-05T01:43:27.000Z</time></trkpt>
        <trkpt lat="29.5644894" lon="103.4233142"><ele>684.34</ele><time>2026-05-05T01:43:43.000Z</time></trkpt>
        <trkpt lat="29.5645071" lon="103.4232058"><ele>688.89</ele><time>2026-05-05T01:43:59.000Z</time></trkpt>
        <trkpt lat="29.5645116" lon="103.4230881"><ele>692.51</ele><time>2026-05-05T01:44:15.000Z</time></trkpt>
        <trkpt lat="29.5644955" lon="103.4229791"><ele>695.71</ele><time>2026-05-05T01:44:55.000Z</time></trkpt>
        <trkpt lat="29.5644584" lon="103.4228729"><ele>697.09</ele><time>2026-05-05T01:45:13.000Z</time></trkpt>
        <trkpt lat="29.5644684" lon="103.4227711"><ele>701.18</ele><time>2026-05-05T01:45:23.000Z</time></trkpt>
        <trkpt lat="29.5644365" lon="103.4226747"><ele>705.51</ele><time>2026-05-05T01:45:39.000Z</time></trkpt>
        <trkpt lat="29.5643889" lon="103.4225838"><ele>708.35</ele><time>2026-05-05T01:45:49.000Z</time></trkpt>
        <trkpt lat="29.5643885" lon="103.4224834"><ele>710.59</ele><time>2026-05-05T01:46:07.000Z</time></trkpt>
        <trkpt lat="29.5643963" lon="103.4223718"><ele>712.92</ele><time>2026-05-05T01:46:27.000Z</time></trkpt>
        <trkpt lat="29.5644163" lon="103.422265"><ele>715.63</ele><time>2026-05-05T01:46:47.000Z</time></trkpt>
        <trkpt lat="29.5643991" lon="103.4221578"><ele>719.3</ele><time>2026-05-05T01:47:03.000Z</time></trkpt>
        <trkpt lat="29.5643655" lon="103.4220484"><ele>721.87</ele><time>2026-05-05T01:47:25.000Z</time></trkpt>
        <trkpt lat="29.564314" lon="103.4219579"><ele>724.45</ele><time>2026-05-05T01:47:45.000Z</time></trkpt>
        <trkpt lat="29.5643295" lon="103.4218531"><ele>724.64</ele><time>2026-05-05T01:47:55.000Z</time></trkpt>
        <trkpt lat="29.5643687" lon="103.4217543"><ele>725.91</ele><time>2026-05-05T01:48:15.000Z</time></trkpt>
        <trkpt lat="29.5643616" lon="103.4216563"><ele>730.24</ele><time>2026-05-05T01:48:37.000Z</time></trkpt>
        <trkpt lat="29.5643391" lon="103.4215555"><ele>734.8</ele><time>2026-05-05T01:48:59.000Z</time></trkpt>
        <trkpt lat="29.5643102" lon="103.4214503"><ele>740.28</ele><time>2026-05-05T01:49:21.000Z</time></trkpt>
        <trkpt lat="29.5642745" lon="103.4213479"><ele>743.34</ele><time>2026-05-05T01:49:45.000Z</time></trkpt>
        <trkpt lat="29.5643313" lon="103.4212822"><ele>746.1</ele><time>2026-05-05T01:49:57.000Z</time></trkpt>
        <trkpt lat="29.5644205" lon="103.4212489"><ele>748.79</ele><time>2026-05-05T01:50:05.000Z</time></trkpt>
        <trkpt lat="29.564514" lon="103.4212064"><ele>750.9</ele><time>2026-05-05T01:50:15.000Z</time></trkpt>
        <trkpt lat="29.5646049" lon="103.4211542"><ele>751.7</ele><time>2026-05-05T01:50:25.000Z</time></trkpt>
        <trkpt lat="29.5646783" lon="103.4210844"><ele>753.46</ele><time>2026-05-05T01:50:35.000Z</time></trkpt>
        <trkpt lat="29.5647689" lon="103.4210862"><ele>756.1</ele><time>2026-05-05T01:50:55.000Z</time></trkpt>
        <trkpt lat="29.5648442" lon="103.4211549"><ele>758.11</ele><time>2026-05-05T01:51:05.000Z</time></trkpt>
        <trkpt lat="29.564915" lon="103.42124"><ele>759.73</ele><time>2026-05-05T01:51:15.000Z</time></trkpt>
        <trkpt lat="29.5649697" lon="103.4213383"><ele>760.95</ele><time>2026-05-05T01:51:31.000Z</time></trkpt>
        <trkpt lat="29.5650495" lon="103.4213576"><ele>763.98</ele><time>2026-05-05T01:51:53.000Z</time></trkpt>
        <trkpt lat="29.5651387" lon="103.4213203"><ele>767.75</ele><time>2026-05-05T01:52:19.000Z</time></trkpt>
        <trkpt lat="29.5652329" lon="103.4212719"><ele>770.71</ele><time>2026-05-05T01:52:37.000Z</time></trkpt>
        <trkpt lat="29.5653255" lon="103.4212193"><ele>774.3</ele><time>2026-05-05T01:53:01.000Z</time></trkpt>
        <trkpt lat="29.5654145" lon="103.4211726"><ele>777.72</ele><time>2026-05-05T01:53:51.000Z</time></trkpt>
        <trkpt lat="29.5654966" lon="103.4211223"><ele>784.43</ele><time>2026-05-05T01:53:59.000Z</time></trkpt>
        <trkpt lat="29.5655848" lon="103.4210808"><ele>787.47</ele><time>2026-05-05T01:54:07.000Z</time></trkpt>
        <trkpt lat="29.5656827" lon="103.421067"><ele>788.32</ele><time>2026-05-05T01:54:15.000Z</time></trkpt>
        <trkpt lat="29.5657866" lon="103.4210771"><ele>789.41</ele><time>2026-05-05T01:54:23.000Z</time></trkpt>
        <trkpt lat="29.5658936" lon="103.4210969"><ele>793.52</ele><time>2026-05-05T01:54:33.000Z</time></trkpt>
        <trkpt lat="29.5659944" lon="103.4211092"><ele>794.3</ele><time>2026-05-05T01:54:41.000Z</time></trkpt>
        <trkpt lat="29.5660557" lon="103.4211137"><ele>795.84</ele><time>2026-05-05T01:54:49.000Z</time></trkpt>
        <trkpt lat="29.5661388" lon="103.4211144"><ele>796.19</ele><time>2026-05-05T01:55:09.000Z</time></trkpt>
        <trkpt lat="29.5662281" lon="103.4211009"><ele>798.42</ele><time>2026-05-05T01:55:19.000Z</time></trkpt>
        <trkpt lat="29.5662844" lon="103.4210265"><ele>800.95</ele><time>2026-05-05T01:55:29.000Z</time></trkpt>
        <trkpt lat="29.5663058" lon="103.4209169"><ele>803.65</ele><time>2026-05-05T01:55:39.000Z</time></trkpt>
        <trkpt lat="29.5663077" lon="103.420799"><ele>804.6</ele><time>2026-05-05T01:55:49.000Z</time></trkpt>
        <trkpt lat="29.5663236" lon="103.4206892"><ele>803.92</ele><time>2026-05-05T01:55:57.000Z</time></trkpt>
        <trkpt lat="29.5663402" lon="103.4205692"><ele>802.44</ele><time>2026-05-05T01:56:07.000Z</time></trkpt>
        <trkpt lat="29.5663691" lon="103.4204517"><ele>802.79</ele><time>2026-05-05T01:56:17.000Z</time></trkpt>
        <trkpt lat="29.5664329" lon="103.4203498"><ele>802.65</ele><time>2026-05-05T01:56:25.000Z</time></trkpt>
        <trkpt lat="29.5665036" lon="103.4202558"><ele>802.59</ele><time>2026-05-05T01:56:31.000Z</time></trkpt>
        <trkpt lat="29.5665828" lon="103.4201614"><ele>802.74</ele><time>2026-05-05T01:56:39.000Z</time></trkpt>
        <trkpt lat="29.5666454" lon="103.4200617"><ele>802.96</ele><time>2026-05-05T01:56:47.000Z</time></trkpt>
        <trkpt lat="29.5666799" lon="103.4199566"><ele>802.95</ele><time>2026-05-05T01:56:55.000Z</time></trkpt>
        <trkpt lat="29.5666966" lon="103.4198418"><ele>804.76</ele><time>2026-05-05T01:57:05.000Z</time></trkpt>
        <trkpt lat="29.5667672" lon="103.419817"><ele>806.96</ele><time>2026-05-05T01:57:17.000Z</time></trkpt>
        <trkpt lat="29.5668508" lon="103.4198524"><ele>808.79</ele><time>2026-05-05T01:57:27.000Z</time></trkpt>
        <trkpt lat="29.566938" lon="103.4199321"><ele>811.35</ele><time>2026-05-05T01:57:47.000Z</time></trkpt>
        <trkpt lat="29.567017" lon="103.4200238"><ele>811.74</ele><time>2026-05-05T01:57:59.000Z</time></trkpt>
        <trkpt lat="29.5670506" lon="103.420148"><ele>813.94</ele><time>2026-05-05T01:58:15.000Z</time></trkpt>
        <trkpt lat="29.5670545" lon="103.4202704"><ele>816.47</ele><time>2026-05-05T01:58:23.000Z</time></trkpt>
        <trkpt lat="29.5670925" lon="103.4203728"><ele>818.69</ele><time>2026-05-05T01:58:39.000Z</time></trkpt>
        <trkpt lat="29.5671606" lon="103.4204491"><ele>820.41</ele><time>2026-05-05T01:58:57.000Z</time></trkpt>
        <trkpt lat="29.5672456" lon="103.42049"><ele>822.2</ele><time>2026-05-05T01:59:09.000Z</time></trkpt>
        <trkpt lat="29.5673466" lon="103.4204878"><ele>823.08</ele><time>2026-05-05T01:59:23.000Z</time></trkpt>
        <trkpt lat="29.5674457" lon="103.4204614"><ele>824.18</ele><time>2026-05-05T01:59:43.000Z</time></trkpt>
        <trkpt lat="29.567534" lon="103.4204132"><ele>826.01</ele><time>2026-05-05T02:00:05.000Z</time></trkpt>
        <trkpt lat="29.5676191" lon="103.4203557"><ele>827.88</ele><time>2026-05-05T02:00:21.000Z</time></trkpt>
        <trkpt lat="29.5676803" lon="103.4202615"><ele>833.12</ele><time>2026-05-05T02:00:41.000Z</time></trkpt>
        <trkpt lat="29.5677588" lon="103.4202068"><ele>838.12</ele><time>2026-05-05T02:01:09.000Z</time></trkpt>
        <trkpt lat="29.5678482" lon="103.4201608"><ele>842.01</ele><time>2026-05-05T02:01:27.000Z</time></trkpt>
        <trkpt lat="29.5679353" lon="103.4201175"><ele>845.99</ele><time>2026-05-05T02:01:45.000Z</time></trkpt>
        <trkpt lat="29.5680213" lon="103.420072"><ele>849.69</ele><time>2026-05-05T02:02:07.000Z</time></trkpt>
        <trkpt lat="29.5681118" lon="103.4200452"><ele>852.48</ele><time>2026-05-05T02:02:31.000Z</time></trkpt>
        <trkpt lat="29.5682045" lon="103.4200332"><ele>854.69</ele><time>2026-05-05T02:02:51.000Z</time></trkpt>
        <trkpt lat="29.5682978" lon="103.4200148"><ele>857.37</ele><time>2026-05-05T02:03:13.000Z</time></trkpt>
        <trkpt lat="29.5683967" lon="103.4200151"><ele>862.57</ele><time>2026-05-05T02:03:37.000Z</time></trkpt>
        <trkpt lat="29.5684892" lon="103.4200299"><ele>866.66</ele><time>2026-05-05T02:04:03.000Z</time></trkpt>
        <trkpt lat="29.5685802" lon="103.4200351"><ele>870.96</ele><time>2026-05-05T02:04:33.000Z</time></trkpt>
        <trkpt lat="29.5686761" lon="103.4200464"><ele>875.38</ele><time>2026-05-05T02:04:51.000Z</time></trkpt>
        <trkpt lat="29.5687658" lon="103.4200169"><ele>878.94</ele><time>2026-05-05T02:05:05.000Z</time></trkpt>
        <trkpt lat="29.5688572" lon="103.4199542"><ele>882.82</ele><time>2026-05-05T02:05:17.000Z</time></trkpt>
        <trkpt lat="29.5689391" lon="103.4198928"><ele>885.51</ele><time>2026-05-05T02:05:31.000Z</time></trkpt>
        <trkpt lat="29.5690268" lon="103.4198442"><ele>887.86</ele><time>2026-05-05T02:05:41.000Z</time></trkpt>
        <trkpt lat="29.5691144" lon="103.4198005"><ele>888.98</ele><time>2026-05-05T02:05:49.000Z</time></trkpt>
        <trkpt lat="29.5692097" lon="103.4197623"><ele>890.53</ele><time>2026-05-05T02:05:59.000Z</time></trkpt>
        <trkpt lat="29.5692967" lon="103.4197085"><ele>891.28</ele><time>2026-05-05T02:06:09.000Z</time></trkpt>
        <trkpt lat="29.5693821" lon="103.4196523"><ele>886.79</ele><time>2026-05-05T02:06:17.000Z</time></trkpt>
        <trkpt lat="29.5694756" lon="103.4195895"><ele>885.08</ele><time>2026-05-05T02:06:25.000Z</time></trkpt>
        <trkpt lat="29.5695709" lon="103.4195677"><ele>887.77</ele><time>2026-05-05T02:06:37.000Z</time></trkpt>
        <trkpt lat="29.5696344" lon="103.4194923"><ele>886.67</ele><time>2026-05-05T02:07:07.000Z</time></trkpt>
        <trkpt lat="29.5696822" lon="103.4193907"><ele>884.83</ele><time>2026-05-05T02:07:17.000Z</time></trkpt>
        <trkpt lat="29.5697362" lon="103.4192799"><ele>883.47</ele><time>2026-05-05T02:07:27.000Z</time></trkpt>
        <trkpt lat="29.5697861" lon="103.4191726"><ele>882.2</ele><time>2026-05-05T02:07:35.000Z</time></trkpt>
        <trkpt lat="29.5697797" lon="103.4190515"><ele>881.42</ele><time>2026-05-05T02:07:43.000Z</time></trkpt>
        <trkpt lat="29.5697737" lon="103.4189285"><ele>881.63</ele><time>2026-05-05T02:07:53.000Z</time></trkpt>
        <trkpt lat="29.5697676" lon="103.4188149"><ele>882.4</ele><time>2026-05-05T02:08:01.000Z</time></trkpt>
        <trkpt lat="29.5697713" lon="103.4187051"><ele>882.93</ele><time>2026-05-05T02:08:09.000Z</time></trkpt>
        <trkpt lat="29.5697965" lon="103.4185898"><ele>883.46</ele><time>2026-05-05T02:08:19.000Z</time></trkpt>
        <trkpt lat="29.5698128" lon="103.4184794"><ele>883.6</ele><time>2026-05-05T02:08:27.000Z</time></trkpt>
        <trkpt lat="29.5698139" lon="103.4183686"><ele>883.6</ele><time>2026-05-05T02:08:35.000Z</time></trkpt>
        <trkpt lat="29.569809" lon="103.4182544"><ele>882.95</ele><time>2026-05-05T02:08:43.000Z</time></trkpt>
        <trkpt lat="29.5698221" lon="103.4181453"><ele>882.34</ele><time>2026-05-05T02:08:51.000Z</time></trkpt>
        <trkpt lat="29.5698685" lon="103.4180572"><ele>880.01</ele><time>2026-05-05T02:08:57.000Z</time></trkpt>
        <trkpt lat="29.5699242" lon="103.4179587"><ele>877.04</ele><time>2026-05-05T02:09:05.000Z</time></trkpt>
        <trkpt lat="29.5699714" lon="103.4178567"><ele>875.31</ele><time>2026-05-05T02:09:13.000Z</time></trkpt>
        <trkpt lat="29.5700132" lon="103.4177499"><ele>874.53</ele><time>2026-05-05T02:09:21.000Z</time></trkpt>
        <trkpt lat="29.570035" lon="103.4176394"><ele>875.23</ele><time>2026-05-05T02:09:27.000Z</time></trkpt>
        <trkpt lat="29.5700345" lon="103.417532"><ele>876.65</ele><time>2026-05-05T02:09:33.000Z</time></trkpt>
        <trkpt lat="29.5700283" lon="103.4174094"><ele>877.91</ele><time>2026-05-05T02:09:41.000Z</time></trkpt>
        <trkpt lat="29.5700367" lon="103.4172896"><ele>877.66</ele><time>2026-05-05T02:09:49.000Z</time></trkpt>
        <trkpt lat="29.5700621" lon="103.4171835"><ele>878.47</ele><time>2026-05-05T02:09:57.000Z</time></trkpt>
        <trkpt lat="29.5700886" lon="103.4170733"><ele>879.53</ele><time>2026-05-05T02:10:05.000Z</time></trkpt>
        <trkpt lat="29.5701628" lon="103.4170033"><ele>878.07</ele><time>2026-05-05T02:10:13.000Z</time></trkpt>
        <trkpt lat="29.5702654" lon="103.4169861"><ele>877.93</ele><time>2026-05-05T02:10:21.000Z</time></trkpt>
        <trkpt lat="29.5703775" lon="103.4169832"><ele>877.03</ele><time>2026-05-05T02:10:31.000Z</time></trkpt>
        <trkpt lat="29.5704457" lon="103.416982"><ele>877.34</ele><time>2026-05-05T02:10:37.000Z</time></trkpt>
        <trkpt lat="29.5704315" lon="103.4168961"><ele>878.26</ele><time>2026-05-05T02:10:55.000Z</time></trkpt>
        <trkpt lat="29.570386" lon="103.4167947"><ele>876.54</ele><time>2026-05-05T02:11:03.000Z</time></trkpt>
        <trkpt lat="29.5703661" lon="103.4166793"><ele>874.46</ele><time>2026-05-05T02:11:09.000Z</time></trkpt>
        <trkpt lat="29.57036" lon="103.4165593"><ele>873.38</ele><time>2026-05-05T02:11:17.000Z</time></trkpt>
        <trkpt lat="29.570374" lon="103.4164276"><ele>872.06</ele><time>2026-05-05T02:11:25.000Z</time></trkpt>
        <trkpt lat="29.5703644" lon="103.4162966"><ele>872.16</ele><time>2026-05-05T02:11:33.000Z</time></trkpt>
        <trkpt lat="29.5703965" lon="103.4161718"><ele>871.4</ele><time>2026-05-05T02:11:39.000Z</time></trkpt>
        <trkpt lat="29.5704739" lon="103.416108"><ele>871.49</ele><time>2026-05-05T02:11:47.000Z</time></trkpt>
        <trkpt lat="29.5705671" lon="103.4160823"><ele>871.83</ele><time>2026-05-05T02:11:55.000Z</time></trkpt>
        <trkpt lat="29.5706644" lon="103.4160554"><ele>873.19</ele><time>2026-05-05T02:12:05.000Z</time></trkpt>
        <trkpt lat="29.5707503" lon="103.4160097"><ele>873.61</ele><time>2026-05-05T02:12:17.000Z</time></trkpt>
        <trkpt lat="29.5707735" lon="103.415915"><ele>876.84</ele><time>2026-05-05T02:12:33.000Z</time></trkpt>
        <trkpt lat="29.5707037" lon="103.4158731"><ele>879.09</ele><time>2026-05-05T02:12:39.000Z</time></trkpt>
        <trkpt lat="29.5706071" lon="103.4158159"><ele>880.35</ele><time>2026-05-05T02:12:47.000Z</time></trkpt>
        <trkpt lat="29.5704962" lon="103.4157958"><ele>881.96</ele><time>2026-05-05T02:12:57.000Z</time></trkpt>
        <trkpt lat="29.5704118" lon="103.4157299"><ele>881.08</ele><time>2026-05-05T02:13:05.000Z</time></trkpt>
        <trkpt lat="29.5703488" lon="103.4156435"><ele>879.15</ele><time>2026-05-05T02:13:13.000Z</time></trkpt>
        <trkpt lat="29.5702736" lon="103.4155758"><ele>877.92</ele><time>2026-05-05T02:13:21.000Z</time></trkpt>
        <trkpt lat="29.57018" lon="103.4155504"><ele>875.49</ele><time>2026-05-05T02:13:31.000Z</time></trkpt>
        <trkpt lat="29.5700834" lon="103.4155326"><ele>876.23</ele><time>2026-05-05T02:13:43.000Z</time></trkpt>
        <trkpt lat="29.5699928" lon="103.4154783"><ele>878.44</ele><time>2026-05-05T02:13:53.000Z</time></trkpt>
        <trkpt lat="29.5699216" lon="103.4154036"><ele>879.24</ele><time>2026-05-05T02:14:01.000Z</time></trkpt>
        <trkpt lat="29.5698721" lon="103.4152967"><ele>880.73</ele><time>2026-05-05T02:14:11.000Z</time></trkpt>
        <trkpt lat="29.5698597" lon="103.4151818"><ele>880.97</ele><time>2026-05-05T02:14:19.000Z</time></trkpt>
        <trkpt lat="29.5698572" lon="103.415066"><ele>881.24</ele><time>2026-05-05T02:14:27.000Z</time></trkpt>
        <trkpt lat="29.5698446" lon="103.4149585"><ele>882.54</ele><time>2026-05-05T02:14:35.000Z</time></trkpt>
        <trkpt lat="29.569796" lon="103.4148731"><ele>883.69</ele><time>2026-05-05T02:14:43.000Z</time></trkpt>
        <trkpt lat="29.5697341" lon="103.4147918"><ele>883.52</ele><time>2026-05-05T02:14:51.000Z</time></trkpt>
        <trkpt lat="29.5696541" lon="103.4147307"><ele>883.39</ele><time>2026-05-05T02:14:57.000Z</time></trkpt>
        <trkpt lat="29.569552" lon="103.414745"><ele>883.13</ele><time>2026-05-05T02:15:05.000Z</time></trkpt>
        <trkpt lat="29.5694535" lon="103.4147967"><ele>883.38</ele><time>2026-05-05T02:15:13.000Z</time></trkpt>
        <trkpt lat="29.569359" lon="103.4148272"><ele>883.91</ele><time>2026-05-05T02:15:21.000Z</time></trkpt>
        <trkpt lat="29.5692544" lon="103.4148506"><ele>883.49</ele><time>2026-05-05T02:15:33.000Z</time></trkpt>
        <trkpt lat="29.569184" lon="103.4147793"><ele>882.1</ele><time>2026-05-05T02:15:43.000Z</time></trkpt>
        <trkpt lat="29.5691263" lon="103.4146717"><ele>880.94</ele><time>2026-05-05T02:15:51.000Z</time></trkpt>
        <trkpt lat="29.5690887" lon="103.4145603"><ele>880.59</ele><time>2026-05-05T02:15:59.000Z</time></trkpt>
        <trkpt lat="29.5690755" lon="103.4144439"><ele>880.19</ele><time>2026-05-05T02:16:07.000Z</time></trkpt>
        <trkpt lat="29.5691107" lon="103.4143263"><ele>880.43</ele><time>2026-05-05T02:16:15.000Z</time></trkpt>
        <trkpt lat="29.5691098" lon="103.4142021"><ele>879.94</ele><time>2026-05-05T02:16:23.000Z</time></trkpt>
        <trkpt lat="29.5690857" lon="103.4140769"><ele>880.16</ele><time>2026-05-05T02:16:33.000Z</time></trkpt>
        <trkpt lat="29.5691138" lon="103.4139693"><ele>878.73</ele><time>2026-05-05T02:16:41.000Z</time></trkpt>
        <trkpt lat="29.569158" lon="103.4138709"><ele>877.96</ele><time>2026-05-05T02:16:49.000Z</time></trkpt>
        <trkpt lat="29.5691461" lon="103.4137748"><ele>878.69</ele><time>2026-05-05T02:16:57.000Z</time></trkpt>
        <trkpt lat="29.5690963" lon="103.4136832"><ele>877.93</ele><time>2026-05-05T02:17:05.000Z</time></trkpt>
        <trkpt lat="29.5690348" lon="103.4135942"><ele>877.63</ele><time>2026-05-05T02:17:13.000Z</time></trkpt>
        <trkpt lat="29.5689913" lon="103.4134919"><ele>877.81</ele><time>2026-05-05T02:17:21.000Z</time></trkpt>
        <trkpt lat="29.5689699" lon="103.4133747"><ele>877.95</ele><time>2026-05-05T02:17:29.000Z</time></trkpt>
        <trkpt lat="29.5689735" lon="103.4132507"><ele>878</ele><time>2026-05-05T02:17:37.000Z</time></trkpt>
        <trkpt lat="29.5689716" lon="103.4131394"><ele>878.49</ele><time>2026-05-05T02:17:45.000Z</time></trkpt>
        <trkpt lat="29.5690371" lon="103.413051"><ele>877.3</ele><time>2026-05-05T02:17:53.000Z</time></trkpt>
        <trkpt lat="29.5691215" lon="103.412968"><ele>875.68</ele><time>2026-05-05T02:17:59.000Z</time></trkpt>
        <trkpt lat="29.5691919" lon="103.4128674"><ele>876.29</ele><time>2026-05-05T02:18:07.000Z</time></trkpt>
        <trkpt lat="29.5692666" lon="103.4127955"><ele>874.67</ele><time>2026-05-05T02:18:15.000Z</time></trkpt>
        <trkpt lat="29.5693441" lon="103.4127371"><ele>871.18</ele><time>2026-05-05T02:18:23.000Z</time></trkpt>
        <trkpt lat="29.5694293" lon="103.4126694"><ele>868.81</ele><time>2026-05-05T02:18:33.000Z</time></trkpt>
        <trkpt lat="29.5694192" lon="103.4125795"><ele>867.4</ele><time>2026-05-05T02:18:41.000Z</time></trkpt>
        <trkpt lat="29.5694023" lon="103.4124668"><ele>866.69</ele><time>2026-05-05T02:18:53.000Z</time></trkpt>
        <trkpt lat="29.5693917" lon="103.4124322"><ele>866.46</ele><time>2026-05-05T02:18:55.000Z</time></trkpt>
        <trkpt lat="29.5693492" lon="103.4123426"><ele>866.42</ele><time>2026-05-05T02:19:13.000Z</time></trkpt>
        <trkpt lat="29.5693441" lon="103.4122375"><ele>866.43</ele><time>2026-05-05T02:19:23.000Z</time></trkpt>
        <trkpt lat="29.5692651" lon="103.4122"><ele>865.81</ele><time>2026-05-05T02:19:41.000Z</time></trkpt>
        <trkpt lat="29.569165" lon="103.4122028"><ele>864.69</ele><time>2026-05-05T02:19:53.000Z</time></trkpt>
        <trkpt lat="29.5690571" lon="103.4121919"><ele>864.82</ele><time>2026-05-05T02:20:07.000Z</time></trkpt>
        <trkpt lat="29.5689749" lon="103.412121"><ele>862.47</ele><time>2026-05-05T02:20:17.000Z</time></trkpt>
        <trkpt lat="29.568916" lon="103.4120308"><ele>859.86</ele><time>2026-05-05T02:20:29.000Z</time></trkpt>
        <trkpt lat="29.5688688" lon="103.411926"><ele>855.43</ele><time>2026-05-05T02:20:39.000Z</time></trkpt>
        <trkpt lat="29.5687963" lon="103.4118603"><ele>851.78</ele><time>2026-05-05T02:20:49.000Z</time></trkpt>
        <trkpt lat="29.5687079" lon="103.411839"><ele>848.19</ele><time>2026-05-05T02:20:55.000Z</time></trkpt>
        <trkpt lat="29.5686137" lon="103.4118463"><ele>847.61</ele><time>2026-05-05T02:21:01.000Z</time></trkpt>
        <trkpt lat="29.5685167" lon="103.4118355"><ele>848.57</ele><time>2026-05-05T02:21:13.000Z</time></trkpt>
        <trkpt lat="29.5684345" lon="103.4117703"><ele>851.24</ele><time>2026-05-05T02:21:25.000Z</time></trkpt>
        <trkpt lat="29.5683873" lon="103.4116733"><ele>852.6</ele><time>2026-05-05T02:21:33.000Z</time></trkpt>
        <trkpt lat="29.5683335" lon="103.4115704"><ele>851.13</ele><time>2026-05-05T02:21:41.000Z</time></trkpt>
        <trkpt lat="29.568334" lon="103.4114508"><ele>849.18</ele><time>2026-05-05T02:21:51.000Z</time></trkpt>
        <trkpt lat="29.5683731" lon="103.4113348"><ele>846.69</ele><time>2026-05-05T02:21:59.000Z</time></trkpt>
        <trkpt lat="29.5684278" lon="103.4112292"><ele>843.97</ele><time>2026-05-05T02:22:07.000Z</time></trkpt>
        <trkpt lat="29.5684752" lon="103.4111271"><ele>841.82</ele><time>2026-05-05T02:22:15.000Z</time></trkpt>
        <trkpt lat="29.5684952" lon="103.4110244"><ele>839.56</ele><time>2026-05-05T02:22:21.000Z</time></trkpt>
        <trkpt lat="29.5685212" lon="103.4109009"><ele>838.46</ele><time>2026-05-05T02:22:29.000Z</time></trkpt>
        <trkpt lat="29.5685549" lon="103.4107793"><ele>837.67</ele><time>2026-05-05T02:22:37.000Z</time></trkpt>
        <trkpt lat="29.5686031" lon="103.4106736"><ele>836.85</ele><time>2026-05-05T02:22:45.000Z</time></trkpt>
        <trkpt lat="29.5686493" lon="103.4105694"><ele>836.18</ele><time>2026-05-05T02:22:53.000Z</time></trkpt>
        <trkpt lat="29.5686746" lon="103.4104604"><ele>834.75</ele><time>2026-05-05T02:23:03.000Z</time></trkpt>
        <trkpt lat="29.5686835" lon="103.4103524"><ele>833.7</ele><time>2026-05-05T02:23:11.000Z</time></trkpt>
        <trkpt lat="29.568652" lon="103.410245"><ele>832.45</ele><time>2026-05-05T02:23:21.000Z</time></trkpt>
        <trkpt lat="29.5686303" lon="103.410128"><ele>831.82</ele><time>2026-05-05T02:23:29.000Z</time></trkpt>
        <trkpt lat="29.5685888" lon="103.4100175"><ele>831.58</ele><time>2026-05-05T02:23:37.000Z</time></trkpt>
        <trkpt lat="29.5685116" lon="103.4099469"><ele>831.81</ele><time>2026-05-05T02:23:45.000Z</time></trkpt>
        <trkpt lat="29.5684178" lon="103.4099262"><ele>831.62</ele><time>2026-05-05T02:23:53.000Z</time></trkpt>
        <trkpt lat="29.5683462" lon="103.409867"><ele>830.73</ele><time>2026-05-05T02:24:01.000Z</time></trkpt>
        <trkpt lat="29.568289" lon="103.4097803"><ele>830.31</ele><time>2026-05-05T02:24:07.000Z</time></trkpt>
        <trkpt lat="29.5682222" lon="103.4096868"><ele>830.28</ele><time>2026-05-05T02:24:11.000Z</time></trkpt>
        <trkpt lat="29.5681808" lon="103.4095693"><ele>832.19</ele><time>2026-05-05T02:24:27.000Z</time></trkpt>
        <trkpt lat="29.5681448" lon="103.4094633"><ele>831.64</ele><time>2026-05-05T02:24:43.000Z</time></trkpt>
        <trkpt lat="29.5681098" lon="103.409363"><ele>828.38</ele><time>2026-05-05T02:24:57.000Z</time></trkpt>
        <trkpt lat="29.5680556" lon="103.4092684"><ele>824.68</ele><time>2026-05-05T02:25:11.000Z</time></trkpt>
        <trkpt lat="29.5680049" lon="103.4091648"><ele>821.47</ele><time>2026-05-05T02:25:23.000Z</time></trkpt>
        <trkpt lat="29.5679673" lon="103.4090611"><ele>817.87</ele><time>2026-05-05T02:25:35.000Z</time></trkpt>
        <trkpt lat="29.5679072" lon="103.408966"><ele>813.13</ele><time>2026-05-05T02:25:49.000Z</time></trkpt>
        <trkpt lat="29.5678707" lon="103.4088606"><ele>809.21</ele><time>2026-05-05T02:25:59.000Z</time></trkpt>
        <trkpt lat="29.5678547" lon="103.4087386"><ele>805.23</ele><time>2026-05-05T02:26:11.000Z</time></trkpt>
        <trkpt lat="29.5678263" lon="103.4086186"><ele>801.92</ele><time>2026-05-05T02:26:23.000Z</time></trkpt>
        <trkpt lat="29.5677618" lon="103.4085362"><ele>799.21</ele><time>2026-05-05T02:26:33.000Z</time></trkpt>
        <trkpt lat="29.5676911" lon="103.4084611"><ele>798.38</ele><time>2026-05-05T02:26:43.000Z</time></trkpt>
        <trkpt lat="29.5676001" lon="103.4084085"><ele>798.14</ele><time>2026-05-05T02:26:59.000Z</time></trkpt>
        <trkpt lat="29.5675617" lon="103.4084776"><ele>794.92</ele><time>2026-05-05T02:27:13.000Z</time></trkpt>
        <trkpt lat="29.5675202" lon="103.4085805"><ele>791.81</ele><time>2026-05-05T02:27:23.000Z</time></trkpt>
        <trkpt lat="29.5674318" lon="103.4086376"><ele>788.06</ele><time>2026-05-05T02:27:31.000Z</time></trkpt>
        <trkpt lat="29.5673379" lon="103.4086125"><ele>784.79</ele><time>2026-05-05T02:27:39.000Z</time></trkpt>
        <trkpt lat="29.567238" lon="103.4085564"><ele>781.75</ele><time>2026-05-05T02:27:47.000Z</time></trkpt>
        <trkpt lat="29.5671326" lon="103.4085071"><ele>779.64</ele><time>2026-05-05T02:27:55.000Z</time></trkpt>
        <trkpt lat="29.567034" lon="103.4084836"><ele>779.19</ele><time>2026-05-05T02:28:03.000Z</time></trkpt>
        <trkpt lat="29.5669399" lon="103.4084921"><ele>778.73</ele><time>2026-05-05T02:28:11.000Z</time></trkpt>
        <trkpt lat="29.5668428" lon="103.4084998"><ele>777.53</ele><time>2026-05-05T02:28:19.000Z</time></trkpt>
        <trkpt lat="29.5667474" lon="103.4084736"><ele>776</ele><time>2026-05-05T02:28:27.000Z</time></trkpt>
        <trkpt lat="29.5666799" lon="103.4083771"><ele>775.19</ele><time>2026-05-05T02:28:35.000Z</time></trkpt>
        <trkpt lat="29.5666726" lon="103.4082456"><ele>775.11</ele><time>2026-05-05T02:28:43.000Z</time></trkpt>
        <trkpt lat="29.5666984" lon="103.4081121"><ele>774.9</ele><time>2026-05-05T02:28:51.000Z</time></trkpt>
        <trkpt lat="29.5666997" lon="103.4079806"><ele>774.19</ele><time>2026-05-05T02:28:59.000Z</time></trkpt>
        <trkpt lat="29.5666701" lon="103.4079104"><ele>773.54</ele><time>2026-05-05T02:29:07.000Z</time></trkpt>
        <trkpt lat="29.5666464" lon="103.4078082"><ele>773.62</ele><time>2026-05-05T02:29:29.000Z</time></trkpt>
        <trkpt lat="29.5666733" lon="103.4077088"><ele>772.36</ele><time>2026-05-05T02:29:35.000Z</time></trkpt>
        <trkpt lat="29.5666703" lon="103.407712"><ele>771.97</ele><time>2026-05-05T02:29:37.000Z</time></trkpt>
        <trkpt lat="29.5666203" lon="103.4076523"><ele>771.84</ele><time>2026-05-05T02:31:45.000Z</time></trkpt>
        <trkpt lat="29.5665527" lon="103.4075606"><ele>772.55</ele><time>2026-05-05T02:31:55.000Z</time></trkpt>
        <trkpt lat="29.566492" lon="103.4074709"><ele>773.86</ele><time>2026-05-05T02:32:03.000Z</time></trkpt>
        <trkpt lat="29.566461" lon="103.4073591"><ele>774.25</ele><time>2026-05-05T02:32:11.000Z</time></trkpt>
        <trkpt lat="29.5664506" lon="103.4072377"><ele>775.05</ele><time>2026-05-05T02:32:19.000Z</time></trkpt>
        <trkpt lat="29.5664276" lon="103.4071265"><ele>775.13</ele><time>2026-05-05T02:32:27.000Z</time></trkpt>
        <trkpt lat="29.5664092" lon="103.4070065"><ele>774.82</ele><time>2026-05-05T02:32:35.000Z</time></trkpt>
        <trkpt lat="29.5664244" lon="103.4068815"><ele>774.18</ele><time>2026-05-05T02:32:43.000Z</time></trkpt>
        <trkpt lat="29.5664633" lon="103.4067757"><ele>773.34</ele><time>2026-05-05T02:32:49.000Z</time></trkpt>
        <trkpt lat="29.5665387" lon="103.4066899"><ele>772.94</ele><time>2026-05-05T02:32:57.000Z</time></trkpt>
        <trkpt lat="29.5666162" lon="103.4066001"><ele>772.93</ele><time>2026-05-05T02:33:05.000Z</time></trkpt>
        <trkpt lat="29.5666934" lon="103.4065128"><ele>772.81</ele><time>2026-05-05T02:33:13.000Z</time></trkpt>
        <trkpt lat="29.5667743" lon="103.4064342"><ele>772.59</ele><time>2026-05-05T02:33:21.000Z</time></trkpt>
        <trkpt lat="29.566849" lon="103.4063505"><ele>772.14</ele><time>2026-05-05T02:33:29.000Z</time></trkpt>
        <trkpt lat="29.5669132" lon="103.4062554"><ele>771.39</ele><time>2026-05-05T02:33:37.000Z</time></trkpt>
        <trkpt lat="29.566968" lon="103.40616"><ele>770.64</ele><time>2026-05-05T02:33:45.000Z</time></trkpt>
        <trkpt lat="29.5670223" lon="103.4060587"><ele>769.66</ele><time>2026-05-05T02:33:53.000Z</time></trkpt>
        <trkpt lat="29.5670759" lon="103.4059565"><ele>768.64</ele><time>2026-05-05T02:34:01.000Z</time></trkpt>
        <trkpt lat="29.5671282" lon="103.4058515"><ele>767.97</ele><time>2026-05-05T02:34:09.000Z</time></trkpt>
        <trkpt lat="29.5671091" lon="103.4057372"><ele>767.41</ele><time>2026-05-05T02:34:21.000Z</time></trkpt>
        <trkpt lat="29.5670283" lon="103.4056659"><ele>766.48</ele><time>2026-05-05T02:34:29.000Z</time></trkpt>
        <trkpt lat="29.5669393" lon="103.4056003"><ele>766.76</ele><time>2026-05-05T02:34:37.000Z</time></trkpt>
        <trkpt lat="29.5668631" lon="103.4055261"><ele>766.7</ele><time>2026-05-05T02:34:45.000Z</time></trkpt>
        <trkpt lat="29.5667868" lon="103.4054524"><ele>766.94</ele><time>2026-05-05T02:34:53.000Z</time></trkpt>
        <trkpt lat="29.5667173" lon="103.4053761"><ele>767.08</ele><time>2026-05-05T02:35:01.000Z</time></trkpt>
        <trkpt lat="29.5666838" lon="103.4052726"><ele>766.17</ele><time>2026-05-05T02:35:09.000Z</time></trkpt>
        <trkpt lat="29.566697" lon="103.4051552"><ele>764.71</ele><time>2026-05-05T02:35:17.000Z</time></trkpt>
        <trkpt lat="29.5667861" lon="103.4050875"><ele>763.24</ele><time>2026-05-05T02:35:25.000Z</time></trkpt>
        <trkpt lat="29.5669065" lon="103.4050822"><ele>762.71</ele><time>2026-05-05T02:35:33.000Z</time></trkpt>
        <trkpt lat="29.5670322" lon="103.4050778"><ele>762.56</ele><time>2026-05-05T02:35:41.000Z</time></trkpt>
        <trkpt lat="29.5671575" lon="103.4050643"><ele>762.16</ele><time>2026-05-05T02:35:49.000Z</time></trkpt>
        <trkpt lat="29.5672718" lon="103.4050336"><ele>761.42</ele><time>2026-05-05T02:35:57.000Z</time></trkpt>
        <trkpt lat="29.5673825" lon="103.4050127"><ele>760.25</ele><time>2026-05-05T02:36:05.000Z</time></trkpt>
        <trkpt lat="29.5674832" lon="103.4050078"><ele>759.67</ele><time>2026-05-05T02:36:13.000Z</time></trkpt>
        <trkpt lat="29.5675798" lon="103.4050203"><ele>759.3</ele><time>2026-05-05T02:36:21.000Z</time></trkpt>
        <trkpt lat="29.5676768" lon="103.4050405"><ele>758.63</ele><time>2026-05-05T02:36:29.000Z</time></trkpt>
        <trkpt lat="29.5677788" lon="103.4050475"><ele>758.28</ele><time>2026-05-05T02:36:37.000Z</time></trkpt>
        <trkpt lat="29.5678781" lon="103.4050187"><ele>758.14</ele><time>2026-05-05T02:36:45.000Z</time></trkpt>
        <trkpt lat="29.5679699" lon="103.4049696"><ele>758.11</ele><time>2026-05-05T02:36:53.000Z</time></trkpt>
        <trkpt lat="29.5680562" lon="103.4048915"><ele>758.33</ele><time>2026-05-05T02:37:01.000Z</time></trkpt>
        <trkpt lat="29.5681445" lon="103.4048255"><ele>758.22</ele><time>2026-05-05T02:37:09.000Z</time></trkpt>
        <trkpt lat="29.5682436" lon="103.4047714"><ele>758.15</ele><time>2026-05-05T02:37:17.000Z</time></trkpt>
        <trkpt lat="29.5683244" lon="103.4046938"><ele>757.75</ele><time>2026-05-05T02:37:25.000Z</time></trkpt>
        <trkpt lat="29.568382" lon="103.4045981"><ele>757.23</ele><time>2026-05-05T02:37:33.000Z</time></trkpt>
        <trkpt lat="29.5684322" lon="103.4044941"><ele>756.73</ele><time>2026-05-05T02:37:41.000Z</time></trkpt>
        <trkpt lat="29.5684865" lon="103.4043926"><ele>755.88</ele><time>2026-05-05T02:37:49.000Z</time></trkpt>
        <trkpt lat="29.5685319" lon="103.4042813"><ele>755.22</ele><time>2026-05-05T02:37:57.000Z</time></trkpt>
        <trkpt lat="29.5685753" lon="103.4041699"><ele>755.19</ele><time>2026-05-05T02:38:05.000Z</time></trkpt>
        <trkpt lat="29.5686309" lon="103.4040695"><ele>754.81</ele><time>2026-05-05T02:38:13.000Z</time></trkpt>
        <trkpt lat="29.5687017" lon="103.4039729"><ele>753.8</ele><time>2026-05-05T02:38:21.000Z</time></trkpt>
        <trkpt lat="29.5687715" lon="103.4038868"><ele>753.13</ele><time>2026-05-05T02:38:29.000Z</time></trkpt>
        <trkpt lat="29.5688661" lon="103.4038348"><ele>752.33</ele><time>2026-05-05T02:38:37.000Z</time></trkpt>
        <trkpt lat="29.5689205" lon="103.4038547"><ele>751.23</ele><time>2026-05-05T02:38:41.000Z</time></trkpt>
        <trkpt lat="29.5689936" lon="103.4039059"><ele>751.13</ele><time>2026-05-05T02:38:59.000Z</time></trkpt>
        <trkpt lat="29.5690827" lon="103.4039344"><ele>749.69</ele><time>2026-05-05T02:39:05.000Z</time></trkpt>
        <trkpt lat="29.5691887" lon="103.4039097"><ele>748.88</ele><time>2026-05-05T02:39:13.000Z</time></trkpt>
        <trkpt lat="29.5692893" lon="103.4038441"><ele>748.02</ele><time>2026-05-05T02:39:21.000Z</time></trkpt>
        <trkpt lat="29.5693896" lon="103.4037763"><ele>746.93</ele><time>2026-05-05T02:39:29.000Z</time></trkpt>
        <trkpt lat="29.569482" lon="103.4037058"><ele>745.89</ele><time>2026-05-05T02:39:37.000Z</time></trkpt>
        <trkpt lat="29.5695621" lon="103.4036345"><ele>745.35</ele><time>2026-05-05T02:39:45.000Z</time></trkpt>
        <trkpt lat="29.5696435" lon="103.4035669"><ele>744.83</ele><time>2026-05-05T02:39:53.000Z</time></trkpt>
        <trkpt lat="29.5697116" lon="103.4034925"><ele>743.94</ele><time>2026-05-05T02:40:01.000Z</time></trkpt>
        <trkpt lat="29.5697882" lon="103.4034099"><ele>742.77</ele><time>2026-05-05T02:40:11.000Z</time></trkpt>
        <trkpt lat="29.5698626" lon="103.4033298"><ele>742.6</ele><time>2026-05-05T02:40:19.000Z</time></trkpt>
        <trkpt lat="29.569926" lon="103.4032389"><ele>742.48</ele><time>2026-05-05T02:40:27.000Z</time></trkpt>
        <trkpt lat="29.5699792" lon="103.4031414"><ele>742.12</ele><time>2026-05-05T02:40:35.000Z</time></trkpt>
        <trkpt lat="29.5700062" lon="103.4030257"><ele>741.12</ele><time>2026-05-05T02:40:43.000Z</time></trkpt>
        <trkpt lat="29.5700358" lon="103.402908"><ele>740.24</ele><time>2026-05-05T02:40:51.000Z</time></trkpt>
        <trkpt lat="29.5700969" lon="103.4028121"><ele>741.06</ele><time>2026-05-05T02:40:59.000Z</time></trkpt>
        <trkpt lat="29.5701894" lon="103.4027553"><ele>741.93</ele><time>2026-05-05T02:41:07.000Z</time></trkpt>
        <trkpt lat="29.5703039" lon="103.4027401"><ele>742.43</ele><time>2026-05-05T02:41:15.000Z</time></trkpt>
        <trkpt lat="29.5704052" lon="103.4027308"><ele>741.55</ele><time>2026-05-05T02:41:21.000Z</time></trkpt>
        <trkpt lat="29.5705162" lon="103.4027272"><ele>740.15</ele><time>2026-05-05T02:41:29.000Z</time></trkpt>
        <trkpt lat="29.5706296" lon="103.4027162"><ele>738.36</ele><time>2026-05-05T02:41:37.000Z</time></trkpt>
        <trkpt lat="29.5707333" lon="103.4026933"><ele>736.94</ele><time>2026-05-05T02:41:45.000Z</time></trkpt>
        <trkpt lat="29.5708317" lon="103.4026523"><ele>735.43</ele><time>2026-05-05T02:41:53.000Z</time></trkpt>
        <trkpt lat="29.5709279" lon="103.4026002"><ele>734.16</ele><time>2026-05-05T02:42:01.000Z</time></trkpt>
        <trkpt lat="29.571023" lon="103.4025442"><ele>733.58</ele><time>2026-05-05T02:42:09.000Z</time></trkpt>
        <trkpt lat="29.5711067" lon="103.402469"><ele>732.53</ele><time>2026-05-05T02:42:17.000Z</time></trkpt>
        <trkpt lat="29.5711788" lon="103.4023943"><ele>731.66</ele><time>2026-05-05T02:42:25.000Z</time></trkpt>
        <trkpt lat="29.5712401" lon="103.402313"><ele>730.72</ele><time>2026-05-05T02:42:33.000Z</time></trkpt>
        <trkpt lat="29.5712991" lon="103.4022269"><ele>729.74</ele><time>2026-05-05T02:42:41.000Z</time></trkpt>
        <trkpt lat="29.5713792" lon="103.4021418"><ele>729.48</ele><time>2026-05-05T02:42:51.000Z</time></trkpt>
        <trkpt lat="29.5714666" lon="103.402065"><ele>728.87</ele><time>2026-05-05T02:43:01.000Z</time></trkpt>
        <trkpt lat="29.5715304" lon="103.4019788"><ele>727.3</ele><time>2026-05-05T02:43:09.000Z</time></trkpt>
        <trkpt lat="29.5715936" lon="103.4018914"><ele>725.98</ele><time>2026-05-05T02:43:17.000Z</time></trkpt>
        <trkpt lat="29.5716807" lon="103.4018503"><ele>724.8</ele><time>2026-05-05T02:43:25.000Z</time></trkpt>
        <trkpt lat="29.5717591" lon="103.40179"><ele>724.27</ele><time>2026-05-05T02:43:33.000Z</time></trkpt>
        <trkpt lat="29.5718314" lon="103.4017084"><ele>724.04</ele><time>2026-05-05T02:43:43.000Z</time></trkpt>
        <trkpt lat="29.5718871" lon="103.4016074"><ele>723.82</ele><time>2026-05-05T02:43:53.000Z</time></trkpt>
        <trkpt lat="29.5719531" lon="103.401531"><ele>724.15</ele><time>2026-05-05T02:44:01.000Z</time></trkpt>
        <trkpt lat="29.5720213" lon="103.4014581"><ele>724.15</ele><time>2026-05-05T02:44:09.000Z</time></trkpt>
        <trkpt lat="29.5720306" lon="103.401356"><ele>724.9</ele><time>2026-05-05T02:44:19.000Z</time></trkpt>
        <trkpt lat="29.5720047" lon="103.4012458"><ele>725</ele><time>2026-05-05T02:44:29.000Z</time></trkpt>
        <trkpt lat="29.5719928" lon="103.4012091"><ele>725.11</ele><time>2026-05-05T02:44:33.000Z</time></trkpt>
        <trkpt lat="29.5719931" lon="103.4011257"><ele>725.49</ele><time>2026-05-05T02:45:27.000Z</time></trkpt>
        <trkpt lat="29.5719857" lon="103.4010144"><ele>727.52</ele><time>2026-05-05T02:45:41.000Z</time></trkpt>
        <trkpt lat="29.5719645" lon="103.4009079"><ele>728.36</ele><time>2026-05-05T02:46:01.000Z</time></trkpt>
        <trkpt lat="29.5719325" lon="103.4008059"><ele>731.68</ele><time>2026-05-05T02:46:15.000Z</time></trkpt>
        <trkpt lat="29.571907" lon="103.4006952"><ele>733.73</ele><time>2026-05-05T02:46:31.000Z</time></trkpt>
        <trkpt lat="29.5718805" lon="103.4005914"><ele>737.51</ele><time>2026-05-05T02:46:57.000Z</time></trkpt>
        <trkpt lat="29.5718621" lon="103.4004853"><ele>740.3</ele><time>2026-05-05T02:47:19.000Z</time></trkpt>
        <trkpt lat="29.5718657" lon="103.4003793"><ele>744.38</ele><time>2026-05-05T02:48:11.000Z</time></trkpt>
        <trkpt lat="29.5718461" lon="103.400272"><ele>748.51</ele><time>2026-05-05T02:48:35.000Z</time></trkpt>
        <trkpt lat="29.5718332" lon="103.4001674"><ele>751.12</ele><time>2026-05-05T02:48:57.000Z</time></trkpt>
        <trkpt lat="29.571816" lon="103.4000638"><ele>755.11</ele><time>2026-05-05T02:49:19.000Z</time></trkpt>
        <trkpt lat="29.5717989" lon="103.3999524"><ele>758.92</ele><time>2026-05-05T02:49:45.000Z</time></trkpt>
        <trkpt lat="29.5717899" lon="103.3998455"><ele>762.93</ele><time>2026-05-05T02:50:09.000Z</time></trkpt>
        <trkpt lat="29.571818" lon="103.3997458"><ele>767.62</ele><time>2026-05-05T02:50:31.000Z</time></trkpt>
        <trkpt lat="29.5718254" lon="103.3996441"><ele>773.6</ele><time>2026-05-05T02:50:51.000Z</time></trkpt>
        <trkpt lat="29.5718187" lon="103.3995365"><ele>776.97</ele><time>2026-05-05T02:51:11.000Z</time></trkpt>
        <trkpt lat="29.5718034" lon="103.3994234"><ele>780.91</ele><time>2026-05-05T02:51:23.000Z</time></trkpt>
        <trkpt lat="29.5717955" lon="103.3993127"><ele>784.71</ele><time>2026-05-05T02:51:33.000Z</time></trkpt>
        <trkpt lat="29.5717502" lon="103.3992163"><ele>788.05</ele><time>2026-05-05T02:51:51.000Z</time></trkpt>
        <trkpt lat="29.5716818" lon="103.3991304"><ele>790.65</ele><time>2026-05-05T02:52:07.000Z</time></trkpt>
        <trkpt lat="29.5716481" lon="103.3990326"><ele>792.57</ele><time>2026-05-05T02:52:17.000Z</time></trkpt>
        <trkpt lat="29.5716239" lon="103.3989214"><ele>794.08</ele><time>2026-05-05T02:52:33.000Z</time></trkpt>
        <trkpt lat="29.5716046" lon="103.3988098"><ele>797.95</ele><time>2026-05-05T02:52:41.000Z</time></trkpt>
        <trkpt lat="29.5715786" lon="103.3987022"><ele>799.79</ele><time>2026-05-05T02:52:49.000Z</time></trkpt>
        <trkpt lat="29.5715652" lon="103.3985933"><ele>800.05</ele><time>2026-05-05T02:52:57.000Z</time></trkpt>
        <trkpt lat="29.5715322" lon="103.3984751"><ele>799.84</ele><time>2026-05-05T02:53:05.000Z</time></trkpt>
        <trkpt lat="29.5715054" lon="103.3983605"><ele>799.68</ele><time>2026-05-05T02:53:15.000Z</time></trkpt>
        <trkpt lat="29.5715095" lon="103.3982549"><ele>799.64</ele><time>2026-05-05T02:53:23.000Z</time></trkpt>
        <trkpt lat="29.5715296" lon="103.3981431"><ele>799.93</ele><time>2026-05-05T02:53:33.000Z</time></trkpt>
        <trkpt lat="29.5715352" lon="103.3980254"><ele>801.99</ele><time>2026-05-05T02:53:49.000Z</time></trkpt>
        <trkpt lat="29.5715382" lon="103.397909"><ele>800.25</ele><time>2026-05-05T02:53:59.000Z</time></trkpt>
        <trkpt lat="29.571506" lon="103.3978117"><ele>798.56</ele><time>2026-05-05T02:54:13.000Z</time></trkpt>
        <trkpt lat="29.5714431" lon="103.3977268"><ele>796.42</ele><time>2026-05-05T02:54:31.000Z</time></trkpt>
        <trkpt lat="29.5714021" lon="103.3976271"><ele>788.59</ele><time>2026-05-05T02:54:47.000Z</time></trkpt>
        <trkpt lat="29.5713715" lon="103.397516"><ele>782.56</ele><time>2026-05-05T02:55:05.000Z</time></trkpt>
        <trkpt lat="29.5713889" lon="103.3974123"><ele>777.68</ele><time>2026-05-05T02:55:15.000Z</time></trkpt>
        <trkpt lat="29.5714323" lon="103.3973109"><ele>774.47</ele><time>2026-05-05T02:55:25.000Z</time></trkpt>
        <trkpt lat="29.5714819" lon="103.3972052"><ele>771.14</ele><time>2026-05-05T02:55:35.000Z</time></trkpt>
        <trkpt lat="29.571541" lon="103.3971041"><ele>768.87</ele><time>2026-05-05T02:55:45.000Z</time></trkpt>
        <trkpt lat="29.5715867" lon="103.3970028"><ele>767.37</ele><time>2026-05-05T02:55:51.000Z</time></trkpt>
        <trkpt lat="29.5716457" lon="103.3969116"><ele>768.16</ele><time>2026-05-05T02:56:01.000Z</time></trkpt>
        <trkpt lat="29.5717212" lon="103.3968445"><ele>771.11</ele><time>2026-05-05T02:56:09.000Z</time></trkpt>
        <trkpt lat="29.5717875" lon="103.3967708"><ele>772.59</ele><time>2026-05-05T02:56:21.000Z</time></trkpt>
        <trkpt lat="29.571808" lon="103.3967672"><ele>771.27</ele><time>2026-05-05T02:56:23.000Z</time></trkpt>
        <trkpt lat="29.5718707" lon="103.3967461"><ele>769.14</ele><time>2026-05-05T02:56:47.000Z</time></trkpt>
        <trkpt lat="29.5719642" lon="103.3967158"><ele>764.58</ele><time>2026-05-05T02:56:59.000Z</time></trkpt>
        <trkpt lat="29.5720721" lon="103.3966885"><ele>761.78</ele><time>2026-05-05T02:57:07.000Z</time></trkpt>
        <trkpt lat="29.5721721" lon="103.3966566"><ele>761.41</ele><time>2026-05-05T02:57:19.000Z</time></trkpt>
        <trkpt lat="29.5722672" lon="103.3966305"><ele>760.34</ele><time>2026-05-05T02:57:35.000Z</time></trkpt>
        <trkpt lat="29.5723594" lon="103.3966071"><ele>757.12</ele><time>2026-05-05T02:57:53.000Z</time></trkpt>
        <trkpt lat="29.5723881" lon="103.3965153"><ele>752.36</ele><time>2026-05-05T02:58:07.000Z</time></trkpt>
        <trkpt lat="29.5723588" lon="103.3964007"><ele>746.86</ele><time>2026-05-05T02:58:17.000Z</time></trkpt>
        <trkpt lat="29.57236" lon="103.3962713"><ele>743.49</ele><time>2026-05-05T02:58:29.000Z</time></trkpt>
        <trkpt lat="29.5723616" lon="103.396149"><ele>740.4</ele><time>2026-05-05T02:58:41.000Z</time></trkpt>
        <trkpt lat="29.5723808" lon="103.3960311"><ele>736.53</ele><time>2026-05-05T02:58:51.000Z</time></trkpt>
        <trkpt lat="29.5724469" lon="103.3959366"><ele>733.12</ele><time>2026-05-05T02:59:03.000Z</time></trkpt>
        <trkpt lat="29.5725399" lon="103.3958781"><ele>730.35</ele><time>2026-05-05T02:59:13.000Z</time></trkpt>
        <trkpt lat="29.5726364" lon="103.3958242"><ele>728.02</ele><time>2026-05-05T02:59:25.000Z</time></trkpt>
        <trkpt lat="29.5727298" lon="103.3957664"><ele>725.21</ele><time>2026-05-05T02:59:37.000Z</time></trkpt>
        <trkpt lat="29.5727942" lon="103.3956864"><ele>722.39</ele><time>2026-05-05T02:59:47.000Z</time></trkpt>
        <trkpt lat="29.5728488" lon="103.3956024"><ele>719.4</ele><time>2026-05-05T02:59:57.000Z</time></trkpt>
        <trkpt lat="29.5728877" lon="103.395504"><ele>715.93</ele><time>2026-05-05T03:00:05.000Z</time></trkpt>
        <trkpt lat="29.5729274" lon="103.395408"><ele>713.84</ele><time>2026-05-05T03:00:13.000Z</time></trkpt>
        <trkpt lat="29.5729755" lon="103.3953094"><ele>711.76</ele><time>2026-05-05T03:00:21.000Z</time></trkpt>
        <trkpt lat="29.5729613" lon="103.3952069"><ele>710.35</ele><time>2026-05-05T03:00:31.000Z</time></trkpt>
        <trkpt lat="29.5729088" lon="103.3951178"><ele>708.87</ele><time>2026-05-05T03:00:39.000Z</time></trkpt>
        <trkpt lat="29.5728734" lon="103.3950153"><ele>707.76</ele><time>2026-05-05T03:00:47.000Z</time></trkpt>
        <trkpt lat="29.5728701" lon="103.3949109"><ele>706.03</ele><time>2026-05-05T03:00:55.000Z</time></trkpt>
        <trkpt lat="29.5728744" lon="103.3947917"><ele>705.38</ele><time>2026-05-05T03:01:05.000Z</time></trkpt>
        <trkpt lat="29.5728325" lon="103.3946863"><ele>705.22</ele><time>2026-05-05T03:01:15.000Z</time></trkpt>
        <trkpt lat="29.5727609" lon="103.3946098"><ele>704.83</ele><time>2026-05-05T03:01:33.000Z</time></trkpt>
        <trkpt lat="29.5727386" lon="103.3945134"><ele>702.13</ele><time>2026-05-05T03:01:47.000Z</time></trkpt>
        <trkpt lat="29.572762" lon="103.3943973"><ele>699.15</ele><time>2026-05-05T03:01:59.000Z</time></trkpt>
        <trkpt lat="29.5727963" lon="103.3942893"><ele>696.6</ele><time>2026-05-05T03:02:09.000Z</time></trkpt>
        <trkpt lat="29.5728474" lon="103.3941931"><ele>694.93</ele><time>2026-05-05T03:02:19.000Z</time></trkpt>
        <trkpt lat="29.572888" lon="103.3940963"><ele>692.79</ele><time>2026-05-05T03:02:29.000Z</time></trkpt>
        <trkpt lat="29.5729353" lon="103.393993"><ele>690.79</ele><time>2026-05-05T03:02:39.000Z</time></trkpt>
        <trkpt lat="29.5729824" lon="103.3938866"><ele>688.67</ele><time>2026-05-05T03:02:47.000Z</time></trkpt>
        <trkpt lat="29.5730285" lon="103.3937727"><ele>687.47</ele><time>2026-05-05T03:02:55.000Z</time></trkpt>
        <trkpt lat="29.5730925" lon="103.3936933"><ele>687.2</ele><time>2026-05-05T03:03:03.000Z</time></trkpt>
        <trkpt lat="29.5731829" lon="103.3936835"><ele>686.35</ele><time>2026-05-05T03:03:11.000Z</time></trkpt>
        <trkpt lat="29.5732784" lon="103.3936939"><ele>685.21</ele><time>2026-05-05T03:03:17.000Z</time></trkpt>
        <trkpt lat="29.5733828" lon="103.3936836"><ele>684.67</ele><time>2026-05-05T03:03:27.000Z</time></trkpt>
        <trkpt lat="29.573465" lon="103.3936117"><ele>684.05</ele><time>2026-05-05T03:03:39.000Z</time></trkpt>
        <trkpt lat="29.5735583" lon="103.393552"><ele>682.62</ele><time>2026-05-05T03:03:49.000Z</time></trkpt>
        <trkpt lat="29.5736413" lon="103.3934851"><ele>680.76</ele><time>2026-05-05T03:03:57.000Z</time></trkpt>
        <trkpt lat="29.5737282" lon="103.3934239"><ele>679.62</ele><time>2026-05-05T03:04:05.000Z</time></trkpt>
        <trkpt lat="29.5738211" lon="103.3933764"><ele>678.96</ele><time>2026-05-05T03:04:13.000Z</time></trkpt>
        <trkpt lat="29.5739063" lon="103.3933226"><ele>678.72</ele><time>2026-05-05T03:04:21.000Z</time></trkpt>
        <trkpt lat="29.5739653" lon="103.393236"><ele>677.6</ele><time>2026-05-05T03:04:29.000Z</time></trkpt>
        <trkpt lat="29.5739994" lon="103.3931267"><ele>676.88</ele><time>2026-05-05T03:04:37.000Z</time></trkpt>
        <trkpt lat="29.5740196" lon="103.3930139"><ele>676.37</ele><time>2026-05-05T03:04:43.000Z</time></trkpt>
        <trkpt lat="29.5740359" lon="103.3928968"><ele>676.16</ele><time>2026-05-05T03:04:55.000Z</time></trkpt>
        <trkpt lat="29.5740497" lon="103.3927882"><ele>675.08</ele><time>2026-05-05T03:05:05.000Z</time></trkpt>
        <trkpt lat="29.5740781" lon="103.3926891"><ele>672.94</ele><time>2026-05-05T03:05:13.000Z</time></trkpt>
        <trkpt lat="29.5740966" lon="103.3925722"><ele>671.16</ele><time>2026-05-05T03:05:25.000Z</time></trkpt>
        <trkpt lat="29.5740748" lon="103.3924586"><ele>670.76</ele><time>2026-05-05T03:05:41.000Z</time></trkpt>
        <trkpt lat="29.5741457" lon="103.3924105"><ele>667.83</ele><time>2026-05-05T03:06:05.000Z</time></trkpt>
        <trkpt lat="29.5741827" lon="103.3923948"><ele>662.96</ele><time>2026-05-05T03:06:09.000Z</time></trkpt>
        <trkpt lat="29.5742103" lon="103.3923147"><ele>659.38</ele><time>2026-05-05T03:06:41.000Z</time></trkpt>
        <trkpt lat="29.5742082" lon="103.3922096"><ele>656.27</ele><time>2026-05-05T03:06:57.000Z</time></trkpt>
        <trkpt lat="29.5741551" lon="103.392113"><ele>650.15</ele><time>2026-05-05T03:07:09.000Z</time></trkpt>
        <trkpt lat="29.5740659" lon="103.3920362"><ele>647.44</ele><time>2026-05-05T03:07:35.000Z</time></trkpt>
        <trkpt lat="29.5739558" lon="103.3920347"><ele>648.35</ele><time>2026-05-05T03:07:45.000Z</time></trkpt>
        <trkpt lat="29.5738518" lon="103.392049"><ele>648.48</ele><time>2026-05-05T03:07:53.000Z</time></trkpt>
        <trkpt lat="29.573747" lon="103.3920611"><ele>648.19</ele><time>2026-05-05T03:08:01.000Z</time></trkpt>
        <trkpt lat="29.5736572" lon="103.3920122"><ele>647.52</ele><time>2026-05-05T03:08:09.000Z</time></trkpt>
        <trkpt lat="29.5735752" lon="103.3919432"><ele>648.36</ele><time>2026-05-05T03:08:17.000Z</time></trkpt>
        <trkpt lat="29.5735364" lon="103.3918622"><ele>650.07</ele><time>2026-05-05T03:08:25.000Z</time></trkpt>
        <trkpt lat="29.5734758" lon="103.3917873"><ele>651.98</ele><time>2026-05-05T03:08:35.000Z</time></trkpt>
        <trkpt lat="29.5733913" lon="103.3917633"><ele>655.72</ele><time>2026-05-05T03:08:47.000Z</time></trkpt>
        <trkpt lat="29.573292" lon="103.3917522"><ele>655.02</ele><time>2026-05-05T03:08:59.000Z</time></trkpt>
        <trkpt lat="29.5731955" lon="103.3917429"><ele>656</ele><time>2026-05-05T03:09:11.000Z</time></trkpt>
        <trkpt lat="29.573093" lon="103.3917438"><ele>657.12</ele><time>2026-05-05T03:09:25.000Z</time></trkpt>
        <trkpt lat="29.5729906" lon="103.3917694"><ele>661.87</ele><time>2026-05-05T03:09:37.000Z</time></trkpt>
        <trkpt lat="29.5728936" lon="103.3918304"><ele>663.58</ele><time>2026-05-05T03:09:47.000Z</time></trkpt>
        <trkpt lat="29.5728014" lon="103.3918764"><ele>663.94</ele><time>2026-05-05T03:09:55.000Z</time></trkpt>
        <trkpt lat="29.5727034" lon="103.39189"><ele>665.96</ele><time>2026-05-05T03:10:03.000Z</time></trkpt>
        <trkpt lat="29.5726204" lon="103.3918494"><ele>667.84</ele><time>2026-05-05T03:10:11.000Z</time></trkpt>
        <trkpt lat="29.5725324" lon="103.3918663"><ele>669.91</ele><time>2026-05-05T03:10:21.000Z</time></trkpt>
        <trkpt lat="29.5724359" lon="103.3918638"><ele>673.46</ele><time>2026-05-05T03:10:31.000Z</time></trkpt>
        <trkpt lat="29.5723582" lon="103.3917978"><ele>676.29</ele><time>2026-05-05T03:10:39.000Z</time></trkpt>
        <trkpt lat="29.5722668" lon="103.3917589"><ele>678.15</ele><time>2026-05-05T03:10:49.000Z</time></trkpt>
        <trkpt lat="29.5721703" lon="103.391719"><ele>680.14</ele><time>2026-05-05T03:10:59.000Z</time></trkpt>
        <trkpt lat="29.5720725" lon="103.3916863"><ele>680.49</ele><time>2026-05-05T03:11:07.000Z</time></trkpt>
        <trkpt lat="29.5719723" lon="103.3916854"><ele>681.13</ele><time>2026-05-05T03:11:15.000Z</time></trkpt>
        <trkpt lat="29.5718756" lon="103.3916725"><ele>681.22</ele><time>2026-05-05T03:11:23.000Z</time></trkpt>
        <trkpt lat="29.5717733" lon="103.3916822"><ele>680.88</ele><time>2026-05-05T03:11:33.000Z</time></trkpt>
        <trkpt lat="29.5716623" lon="103.3916833"><ele>679.67</ele><time>2026-05-05T03:11:43.000Z</time></trkpt>
        <trkpt lat="29.571564" lon="103.391688"><ele>678.31</ele><time>2026-05-05T03:11:53.000Z</time></trkpt>
        <trkpt lat="29.5714622" lon="103.3916906"><ele>675.8</ele><time>2026-05-05T03:12:01.000Z</time></trkpt>
        <trkpt lat="29.5713575" lon="103.3916976"><ele>673.99</ele><time>2026-05-05T03:12:09.000Z</time></trkpt>
        <trkpt lat="29.5712998" lon="103.391683"><ele>673.44</ele><time>2026-05-05T03:12:17.000Z</time></trkpt>
        <trkpt lat="29.5712157" lon="103.3916962"><ele>675.32</ele><time>2026-05-05T03:12:29.000Z</time></trkpt>
        <trkpt lat="29.571124" lon="103.3917208"><ele>675.87</ele><time>2026-05-05T03:12:37.000Z</time></trkpt>
        <trkpt lat="29.5710312" lon="103.3917179"><ele>675.35</ele><time>2026-05-05T03:12:45.000Z</time></trkpt>
        <trkpt lat="29.5709402" lon="103.3917067"><ele>674.92</ele><time>2026-05-05T03:12:53.000Z</time></trkpt>
        <trkpt lat="29.5708514" lon="103.391656"><ele>674.56</ele><time>2026-05-05T03:13:01.000Z</time></trkpt>
        <trkpt lat="29.5707789" lon="103.3915756"><ele>674.75</ele><time>2026-05-05T03:13:09.000Z</time></trkpt>
        <trkpt lat="29.5707239" lon="103.3915303"><ele>675.93</ele><time>2026-05-05T03:13:19.000Z</time></trkpt>
        <trkpt lat="29.5706501" lon="103.3914764"><ele>676.09</ele><time>2026-05-05T03:13:35.000Z</time></trkpt>
        <trkpt lat="29.57057" lon="103.3914135"><ele>675.01</ele><time>2026-05-05T03:13:47.000Z</time></trkpt>
        <trkpt lat="29.5705055" lon="103.3913271"><ele>676.69</ele><time>2026-05-05T03:13:57.000Z</time></trkpt>
        <trkpt lat="29.5704268" lon="103.3912742"><ele>678.75</ele><time>2026-05-05T03:14:05.000Z</time></trkpt>
        <trkpt lat="29.5703705" lon="103.3911919"><ele>678.83</ele><time>2026-05-05T03:14:19.000Z</time></trkpt>
        <trkpt lat="29.5703102" lon="103.3911106"><ele>677.04</ele><time>2026-05-05T03:14:35.000Z</time></trkpt>
        <trkpt lat="29.5702284" lon="103.391092"><ele>675.28</ele><time>2026-05-05T03:14:57.000Z</time></trkpt>
        <trkpt lat="29.5701395" lon="103.3910537"><ele>678.62</ele><time>2026-05-05T03:15:09.000Z</time></trkpt>
        <trkpt lat="29.5701043" lon="103.3909686"><ele>682.13</ele><time>2026-05-05T03:15:19.000Z</time></trkpt>
        <trkpt lat="29.5700202" lon="103.3909203"><ele>684.37</ele><time>2026-05-05T03:15:29.000Z</time></trkpt>
        <trkpt lat="29.5699242" lon="103.3909268"><ele>688.49</ele><time>2026-05-05T03:15:39.000Z</time></trkpt>
        <trkpt lat="29.5698183" lon="103.3909463"><ele>689.26</ele><time>2026-05-05T03:15:51.000Z</time></trkpt>
        <trkpt lat="29.5697147" lon="103.3909595"><ele>689.17</ele><time>2026-05-05T03:16:01.000Z</time></trkpt>
        <trkpt lat="29.5696123" lon="103.3909702"><ele>688.75</ele><time>2026-05-05T03:16:15.000Z</time></trkpt>
        <trkpt lat="29.5695059" lon="103.3909859"><ele>687.35</ele><time>2026-05-05T03:16:37.000Z</time></trkpt>
        <trkpt lat="29.5694153" lon="103.3909624"><ele>685.12</ele><time>2026-05-05T03:16:47.000Z</time></trkpt>
        <trkpt lat="29.5693154" lon="103.3909264"><ele>681.1</ele><time>2026-05-05T03:16:55.000Z</time></trkpt>
        <trkpt lat="29.5692631" lon="103.3908321"><ele>678.52</ele><time>2026-05-05T03:17:03.000Z</time></trkpt>
        <trkpt lat="29.5691816" lon="103.3908352"><ele>675.64</ele><time>2026-05-05T03:17:11.000Z</time></trkpt>
        <trkpt lat="29.5690997" lon="103.3908909"><ele>674.4</ele><time>2026-05-05T03:17:21.000Z</time></trkpt>
        <trkpt lat="29.5690699" lon="103.3909239"><ele>673.49</ele><time>2026-05-05T03:17:25.000Z</time></trkpt>
        <trkpt lat="29.568999" lon="103.3909755"><ele>672.82</ele><time>2026-05-05T03:17:39.000Z</time></trkpt>
        <trkpt lat="29.5689353" lon="103.3910528"><ele>672.2</ele><time>2026-05-05T03:17:47.000Z</time></trkpt>
        <trkpt lat="29.5688786" lon="103.3911009"><ele>671.69</ele><time>2026-05-05T03:17:55.000Z</time></trkpt>
        <trkpt lat="29.5689035" lon="103.3911811"><ele>671.94</ele><time>2026-05-05T03:18:29.000Z</time></trkpt>
        <trkpt lat="29.5688461" lon="103.3912499"><ele>674.26</ele><time>2026-05-05T03:18:45.000Z</time></trkpt>
        <trkpt lat="29.5687974" lon="103.3912334"><ele>674.68</ele><time>2026-05-05T03:18:53.000Z</time></trkpt>
        <trkpt lat="29.5687062" lon="103.3911752"><ele>676.07</ele><time>2026-05-05T03:19:09.000Z</time></trkpt>
        <trkpt lat="29.5686052" lon="103.3911638"><ele>676.15</ele><time>2026-05-05T03:19:17.000Z</time></trkpt>
        <trkpt lat="29.5685813" lon="103.3911177"><ele>677.04</ele><time>2026-05-05T03:19:23.000Z</time></trkpt>
        <trkpt lat="29.5685975" lon="103.3910083"><ele>676.8</ele><time>2026-05-05T03:19:33.000Z</time></trkpt>
        <trkpt lat="29.5685602" lon="103.3908754"><ele>675.14</ele><time>2026-05-05T03:19:39.000Z</time></trkpt>
        <trkpt lat="29.5684862" lon="103.3907767"><ele>673.86</ele><time>2026-05-05T03:19:47.000Z</time></trkpt>
        <trkpt lat="29.5684394" lon="103.3907079"><ele>673.51</ele><time>2026-05-05T03:19:55.000Z</time></trkpt>
        <trkpt lat="29.5683835" lon="103.3907657"><ele>674.35</ele><time>2026-05-05T03:20:13.000Z</time></trkpt>
        <trkpt lat="29.5684053" lon="103.3908835"><ele>672.2</ele><time>2026-05-05T03:20:23.000Z</time></trkpt>
        <trkpt lat="29.5683562" lon="103.3909883"><ele>673.29</ele><time>2026-05-05T03:20:33.000Z</time></trkpt>
        <trkpt lat="29.5682641" lon="103.3910294"><ele>676.05</ele><time>2026-05-05T03:20:43.000Z</time></trkpt>
        <trkpt lat="29.5681627" lon="103.3910575"><ele>679.98</ele><time>2026-05-05T03:20:55.000Z</time></trkpt>
        <trkpt lat="29.5680819" lon="103.3910085"><ele>684.83</ele><time>2026-05-05T03:21:07.000Z</time></trkpt>
        <trkpt lat="29.5680007" lon="103.3909289"><ele>687.7</ele><time>2026-05-05T03:21:17.000Z</time></trkpt>
        <trkpt lat="29.5679193" lon="103.3908347"><ele>691.59</ele><time>2026-05-05T03:21:27.000Z</time></trkpt>
        <trkpt lat="29.5678295" lon="103.3908027"><ele>693.92</ele><time>2026-05-05T03:21:39.000Z</time></trkpt>
        <trkpt lat="29.5677316" lon="103.3908115"><ele>694.76</ele><time>2026-05-05T03:21:49.000Z</time></trkpt>
        <trkpt lat="29.5676455" lon="103.3907693"><ele>695.34</ele><time>2026-05-05T03:21:59.000Z</time></trkpt>
        <trkpt lat="29.5675781" lon="103.3906978"><ele>694.62</ele><time>2026-05-05T03:22:07.000Z</time></trkpt>
        <trkpt lat="29.5675235" lon="103.3906039"><ele>694.84</ele><time>2026-05-05T03:22:15.000Z</time></trkpt>
        <trkpt lat="29.5674736" lon="103.3904986"><ele>697.08</ele><time>2026-05-05T03:22:23.000Z</time></trkpt>
        <trkpt lat="29.5673918" lon="103.3904403"><ele>697.4</ele><time>2026-05-05T03:22:33.000Z</time></trkpt>
        <trkpt lat="29.5672915" lon="103.3904083"><ele>697</ele><time>2026-05-05T03:22:41.000Z</time></trkpt>
        <trkpt lat="29.5672211" lon="103.3903265"><ele>697.46</ele><time>2026-05-05T03:22:47.000Z</time></trkpt>
        <trkpt lat="29.5671392" lon="103.3902799"><ele>699.21</ele><time>2026-05-05T03:22:57.000Z</time></trkpt>
        <trkpt lat="29.5670412" lon="103.3902484"><ele>701.66</ele><time>2026-05-05T03:23:05.000Z</time></trkpt>
        <trkpt lat="29.5669409" lon="103.3902244"><ele>702</ele><time>2026-05-05T03:23:13.000Z</time></trkpt>
        <trkpt lat="29.5668524" lon="103.3901437"><ele>702.28</ele><time>2026-05-05T03:23:23.000Z</time></trkpt>
        <trkpt lat="29.5667776" lon="103.3900467"><ele>701.97</ele><time>2026-05-05T03:23:33.000Z</time></trkpt>
        <trkpt lat="29.5667116" lon="103.3899474"><ele>701.42</ele><time>2026-05-05T03:23:43.000Z</time></trkpt>
        <trkpt lat="29.5666292" lon="103.3898722"><ele>700.89</ele><time>2026-05-05T03:23:53.000Z</time></trkpt>
        <trkpt lat="29.566531" lon="103.3898176"><ele>700.5</ele><time>2026-05-05T03:24:03.000Z</time></trkpt>
        <trkpt lat="29.5664242" lon="103.3898134"><ele>699.88</ele><time>2026-05-05T03:24:11.000Z</time></trkpt>
        <trkpt lat="29.5663206" lon="103.3898156"><ele>700.66</ele><time>2026-05-05T03:24:21.000Z</time></trkpt>
        <trkpt lat="29.5662228" lon="103.3897789"><ele>700.59</ele><time>2026-05-05T03:24:31.000Z</time></trkpt>
        <trkpt lat="29.5661357" lon="103.3897232"><ele>701.22</ele><time>2026-05-05T03:24:41.000Z</time></trkpt>
        <trkpt lat="29.5660341" lon="103.3896975"><ele>700.52</ele><time>2026-05-05T03:24:51.000Z</time></trkpt>
        <trkpt lat="29.5660129" lon="103.3896257"><ele>699.99</ele><time>2026-05-05T03:25:05.000Z</time></trkpt>
        <trkpt lat="29.565971" lon="103.3896671"><ele>700.35</ele><time>2026-05-05T03:25:29.000Z</time></trkpt>
        <trkpt lat="29.5658956" lon="103.3897233"><ele>699.34</ele><time>2026-05-05T03:25:37.000Z</time></trkpt>
        <trkpt lat="29.5658048" lon="103.3897657"><ele>699.04</ele><time>2026-05-05T03:25:45.000Z</time></trkpt>
        <trkpt lat="29.5657036" lon="103.3897882"><ele>699.63</ele><time>2026-05-05T03:25:55.000Z</time></trkpt>
        <trkpt lat="29.5656466" lon="103.3897184"><ele>701.66</ele><time>2026-05-05T03:26:09.000Z</time></trkpt>
        <trkpt lat="29.5655676" lon="103.3896436"><ele>704.11</ele><time>2026-05-05T03:26:23.000Z</time></trkpt>
        <trkpt lat="29.5654761" lon="103.3895888"><ele>707.89</ele><time>2026-05-05T03:26:35.000Z</time></trkpt>
        <trkpt lat="29.5653885" lon="103.3895441"><ele>709.02</ele><time>2026-05-05T03:26:43.000Z</time></trkpt>
        <trkpt lat="29.5652898" lon="103.3894961"><ele>709.38</ele><time>2026-05-05T03:26:53.000Z</time></trkpt>
        <trkpt lat="29.5651946" lon="103.389435"><ele>709.71</ele><time>2026-05-05T03:27:03.000Z</time></trkpt>
        <trkpt lat="29.5651319" lon="103.3893375"><ele>709.31</ele><time>2026-05-05T03:27:11.000Z</time></trkpt>
        <trkpt lat="29.5650563" lon="103.3892546"><ele>709.55</ele><time>2026-05-05T03:27:19.000Z</time></trkpt>
        <trkpt lat="29.5649859" lon="103.3891735"><ele>711.21</ele><time>2026-05-05T03:27:27.000Z</time></trkpt>
        <trkpt lat="29.5649161" lon="103.3890869"><ele>712.54</ele><time>2026-05-05T03:27:37.000Z</time></trkpt>
        <trkpt lat="29.5648671" lon="103.3889838"><ele>712.14</ele><time>2026-05-05T03:27:49.000Z</time></trkpt>
        <trkpt lat="29.5647862" lon="103.3889676"><ele>708.05</ele><time>2026-05-05T03:27:59.000Z</time></trkpt>
        <trkpt lat="29.5646983" lon="103.3890123"><ele>709.73</ele><time>2026-05-05T03:28:21.000Z</time></trkpt>
        <trkpt lat="29.5646458" lon="103.3890449"><ele>709.64</ele><time>2026-05-05T03:28:29.000Z</time></trkpt>
        <trkpt lat="29.5645653" lon="103.3890867"><ele>709.1</ele><time>2026-05-05T03:28:41.000Z</time></trkpt>
        <trkpt lat="29.5644727" lon="103.3891224"><ele>709.12</ele><time>2026-05-05T03:28:51.000Z</time></trkpt>
        <trkpt lat="29.5643739" lon="103.3891443"><ele>708.63</ele><time>2026-05-05T03:29:01.000Z</time></trkpt>
        <trkpt lat="29.5642709" lon="103.3891514"><ele>707.87</ele><time>2026-05-05T03:29:11.000Z</time></trkpt>
        <trkpt lat="29.5641694" lon="103.3891605"><ele>707.62</ele><time>2026-05-05T03:29:21.000Z</time></trkpt>
        <trkpt lat="29.5640871" lon="103.3892191"><ele>706.98</ele><time>2026-05-05T03:29:33.000Z</time></trkpt>
        <trkpt lat="29.5640071" lon="103.3891999"><ele>708.88</ele><time>2026-05-05T03:30:03.000Z</time></trkpt>
        <trkpt lat="29.5639665" lon="103.3891114"><ele>709.99</ele><time>2026-05-05T03:30:11.000Z</time></trkpt>
        <trkpt lat="29.5638907" lon="103.389075"><ele>711.03</ele><time>2026-05-05T03:30:25.000Z</time></trkpt>
        <trkpt lat="29.5638018" lon="103.3890801"><ele>711.34</ele><time>2026-05-05T03:30:35.000Z</time></trkpt>
        <trkpt lat="29.563702" lon="103.3890809"><ele>712.12</ele><time>2026-05-05T03:30:47.000Z</time></trkpt>
        <trkpt lat="29.5636038" lon="103.3890711"><ele>714.99</ele><time>2026-05-05T03:30:57.000Z</time></trkpt>
        <trkpt lat="29.5635135" lon="103.3890405"><ele>717.2</ele><time>2026-05-05T03:31:07.000Z</time></trkpt>
        <trkpt lat="29.5634158" lon="103.3890424"><ele>718.44</ele><time>2026-05-05T03:31:19.000Z</time></trkpt>
        <trkpt lat="29.5633243" lon="103.389077"><ele>718.36</ele><time>2026-05-05T03:31:29.000Z</time></trkpt>
        <trkpt lat="29.5632231" lon="103.389111"><ele>717.89</ele><time>2026-05-05T03:31:39.000Z</time></trkpt>
        <trkpt lat="29.5631261" lon="103.3891135"><ele>719.67</ele><time>2026-05-05T03:31:53.000Z</time></trkpt>
        <trkpt lat="29.5630303" lon="103.3891205"><ele>721.39</ele><time>2026-05-05T03:32:11.000Z</time></trkpt>
        <trkpt lat="29.5629352" lon="103.3891419"><ele>723.55</ele><time>2026-05-05T03:32:27.000Z</time></trkpt>
        <trkpt lat="29.5628425" lon="103.389169"><ele>725.61</ele><time>2026-05-05T03:32:43.000Z</time></trkpt>
        <trkpt lat="29.5627488" lon="103.389197"><ele>728.85</ele><time>2026-05-05T03:33:09.000Z</time></trkpt>
        <trkpt lat="29.5626853" lon="103.3892714"><ele>731.6</ele><time>2026-05-05T03:33:19.000Z</time></trkpt>
        <trkpt lat="29.5626244" lon="103.3893533"><ele>732.72</ele><time>2026-05-05T03:33:31.000Z</time></trkpt>
        <trkpt lat="29.562545" lon="103.3893948"><ele>731.33</ele><time>2026-05-05T03:33:43.000Z</time></trkpt>
        <trkpt lat="29.5624767" lon="103.3893469"><ele>731.38</ele><time>2026-05-05T03:33:53.000Z</time></trkpt>
        <trkpt lat="29.5624112" lon="103.3892626"><ele>731.53</ele><time>2026-05-05T03:34:05.000Z</time></trkpt>
        <trkpt lat="29.5623442" lon="103.3892814"><ele>731.64</ele><time>2026-05-05T03:34:19.000Z</time></trkpt>
        <trkpt lat="29.5623125" lon="103.3893721"><ele>731.3</ele><time>2026-05-05T03:34:29.000Z</time></trkpt>
        <trkpt lat="29.5622609" lon="103.3894688"><ele>730.72</ele><time>2026-05-05T03:34:37.000Z</time></trkpt>
        <trkpt lat="29.5621786" lon="103.3894924"><ele>730.2</ele><time>2026-05-05T03:34:57.000Z</time></trkpt>
        <trkpt lat="29.5620772" lon="103.3894868"><ele>730.93</ele><time>2026-05-05T03:35:09.000Z</time></trkpt>
        <trkpt lat="29.5619791" lon="103.3894723"><ele>732.89</ele><time>2026-05-05T03:35:19.000Z</time></trkpt>
        <trkpt lat="29.5618822" lon="103.3894598"><ele>735.93</ele><time>2026-05-05T03:35:29.000Z</time></trkpt>
        <trkpt lat="29.5617848" lon="103.3894418"><ele>738.14</ele><time>2026-05-05T03:35:39.000Z</time></trkpt>
        <trkpt lat="29.5617114" lon="103.3893693"><ele>741.17</ele><time>2026-05-05T03:35:49.000Z</time></trkpt>
        <trkpt lat="29.5616231" lon="103.3893448"><ele>742.79</ele><time>2026-05-05T03:35:59.000Z</time></trkpt>
        <trkpt lat="29.5615229" lon="103.3893299"><ele>743.31</ele><time>2026-05-05T03:36:09.000Z</time></trkpt>
        <trkpt lat="29.5614087" lon="103.3893248"><ele>743.84</ele><time>2026-05-05T03:36:19.000Z</time></trkpt>
        <trkpt lat="29.5613066" lon="103.3893088"><ele>744.35</ele><time>2026-05-05T03:36:27.000Z</time></trkpt>
        <trkpt lat="29.5612144" lon="103.3893199"><ele>744.92</ele><time>2026-05-05T03:36:37.000Z</time></trkpt>
        <trkpt lat="29.5611188" lon="103.3893479"><ele>745.01</ele><time>2026-05-05T03:36:49.000Z</time></trkpt>
        <trkpt lat="29.5610171" lon="103.3893777"><ele>745.91</ele><time>2026-05-05T03:36:59.000Z</time></trkpt>
        <trkpt lat="29.5609223" lon="103.3894036"><ele>747.04</ele><time>2026-05-05T03:37:07.000Z</time></trkpt>
        <trkpt lat="29.5608273" lon="103.3894351"><ele>747.73</ele><time>2026-05-05T03:37:15.000Z</time></trkpt>
        <trkpt lat="29.5607294" lon="103.389457"><ele>748.24</ele><time>2026-05-05T03:37:23.000Z</time></trkpt>
        <trkpt lat="29.5606369" lon="103.3894743"><ele>748.52</ele><time>2026-05-05T03:37:31.000Z</time></trkpt>
        <trkpt lat="29.5605484" lon="103.3895077"><ele>748.33</ele><time>2026-05-05T03:37:39.000Z</time></trkpt>
        <trkpt lat="29.5604697" lon="103.3894736"><ele>747.83</ele><time>2026-05-05T03:37:47.000Z</time></trkpt>
        <trkpt lat="29.5603825" lon="103.3894502"><ele>748.15</ele><time>2026-05-05T03:37:55.000Z</time></trkpt>
        <trkpt lat="29.5602814" lon="103.3894352"><ele>749.71</ele><time>2026-05-05T03:38:07.000Z</time></trkpt>
        <trkpt lat="29.5602625" lon="103.3893498"><ele>748.91</ele><time>2026-05-05T03:38:15.000Z</time></trkpt>
        <trkpt lat="29.5602907" lon="103.3892412"><ele>750.27</ele><time>2026-05-05T03:38:27.000Z</time></trkpt>
        <trkpt lat="29.5602389" lon="103.38923"><ele>753.64</ele><time>2026-05-05T03:38:43.000Z</time></trkpt>
        <trkpt lat="29.5601878" lon="103.3891532"><ele>754.88</ele><time>2026-05-05T03:38:57.000Z</time></trkpt>
        <trkpt lat="29.5601572" lon="103.3890372"><ele>758.78</ele><time>2026-05-05T03:39:07.000Z</time></trkpt>
        <trkpt lat="29.5601324" lon="103.3889216"><ele>761.12</ele><time>2026-05-05T03:39:17.000Z</time></trkpt>
        <trkpt lat="29.5601305" lon="103.3888055"><ele>763.16</ele><time>2026-05-05T03:39:33.000Z</time></trkpt>
        <trkpt lat="29.5601881" lon="103.3887257"><ele>764.07</ele><time>2026-05-05T03:39:43.000Z</time></trkpt>
        <trkpt lat="29.5601464" lon="103.3886801"><ele>764.38</ele><time>2026-05-05T03:39:51.000Z</time></trkpt>
        <trkpt lat="29.5600632" lon="103.388655"><ele>764.89</ele><time>2026-05-05T03:39:59.000Z</time></trkpt>
        <trkpt lat="29.5599678" lon="103.3886221"><ele>764.66</ele><time>2026-05-05T03:40:07.000Z</time></trkpt>
        <trkpt lat="29.5598777" lon="103.388567"><ele>764.73</ele><time>2026-05-05T03:40:15.000Z</time></trkpt>
        <trkpt lat="29.5597856" lon="103.3884953"><ele>764.89</ele><time>2026-05-05T03:40:25.000Z</time></trkpt>
        <trkpt lat="29.5597001" lon="103.3884229"><ele>766.36</ele><time>2026-05-05T03:40:37.000Z</time></trkpt>
        <trkpt lat="29.5596542" lon="103.3883228"><ele>767.33</ele><time>2026-05-05T03:40:45.000Z</time></trkpt>
        <trkpt lat="29.5596378" lon="103.3882123"><ele>769.11</ele><time>2026-05-05T03:40:53.000Z</time></trkpt>
        <trkpt lat="29.5596059" lon="103.3881082"><ele>770.11</ele><time>2026-05-05T03:41:01.000Z</time></trkpt>
        <trkpt lat="29.5595433" lon="103.3880321"><ele>770.25</ele><time>2026-05-05T03:41:09.000Z</time></trkpt>
        <trkpt lat="29.5594662" lon="103.3879705"><ele>769.66</ele><time>2026-05-05T03:41:17.000Z</time></trkpt>
        <trkpt lat="29.5593801" lon="103.3879214"><ele>768.64</ele><time>2026-05-05T03:41:25.000Z</time></trkpt>
        <trkpt lat="29.5592823" lon="103.3878608"><ele>767.46</ele><time>2026-05-05T03:41:35.000Z</time></trkpt>
        <trkpt lat="29.5591939" lon="103.3878118"><ele>765.31</ele><time>2026-05-05T03:41:43.000Z</time></trkpt>
        <trkpt lat="29.5591039" lon="103.3878131"><ele>764.32</ele><time>2026-05-05T03:41:51.000Z</time></trkpt>
        <trkpt lat="29.5590124" lon="103.3878235"><ele>763.31</ele><time>2026-05-05T03:41:59.000Z</time></trkpt>
        <trkpt lat="29.5589114" lon="103.3878378"><ele>763.16</ele><time>2026-05-05T03:42:09.000Z</time></trkpt>
        <trkpt lat="29.5588068" lon="103.3878358"><ele>763.12</ele><time>2026-05-05T03:42:19.000Z</time></trkpt>
        <trkpt lat="29.5587117" lon="103.3877814"><ele>763.09</ele><time>2026-05-05T03:42:29.000Z</time></trkpt>
        <trkpt lat="29.5586262" lon="103.3877161"><ele>763.25</ele><time>2026-05-05T03:42:37.000Z</time></trkpt>
        <trkpt lat="29.5585365" lon="103.3877021"><ele>763.34</ele><time>2026-05-05T03:42:45.000Z</time></trkpt>
        <trkpt lat="29.5584531" lon="103.3876408"><ele>764.46</ele><time>2026-05-05T03:42:55.000Z</time></trkpt>
        <trkpt lat="29.5583783" lon="103.3875469"><ele>766.22</ele><time>2026-05-05T03:43:05.000Z</time></trkpt>
        <trkpt lat="29.5583142" lon="103.3874601"><ele>767.82</ele><time>2026-05-05T03:43:13.000Z</time></trkpt>
        <trkpt lat="29.5582612" lon="103.387359"><ele>768.98</ele><time>2026-05-05T03:43:23.000Z</time></trkpt>
        <trkpt lat="29.5582049" lon="103.3872681"><ele>771.38</ele><time>2026-05-05T03:43:35.000Z</time></trkpt>
        <trkpt lat="29.5581228" lon="103.3872014"><ele>772.91</ele><time>2026-05-05T03:43:51.000Z</time></trkpt>
        <trkpt lat="29.558035" lon="103.3871513"><ele>774.89</ele><time>2026-05-05T03:44:01.000Z</time></trkpt>
        <trkpt lat="29.5579408" lon="103.3871124"><ele>776.37</ele><time>2026-05-05T03:44:11.000Z</time></trkpt>
        <trkpt lat="29.5578427" lon="103.3870754"><ele>777.22</ele><time>2026-05-05T03:44:21.000Z</time></trkpt>
        <trkpt lat="29.5577496" lon="103.38706"><ele>778.56</ele><time>2026-05-05T03:44:29.000Z</time></trkpt>
        <trkpt lat="29.5577008" lon="103.3869869"><ele>780.64</ele><time>2026-05-05T03:44:43.000Z</time></trkpt>
        <trkpt lat="29.5577122" lon="103.3868827"><ele>783.55</ele><time>2026-05-05T03:44:53.000Z</time></trkpt>
        <trkpt lat="29.5576757" lon="103.3867792"><ele>785.75</ele><time>2026-05-05T03:45:09.000Z</time></trkpt>
        <trkpt lat="29.5576026" lon="103.3867226"><ele>788.47</ele><time>2026-05-05T03:45:17.000Z</time></trkpt>
        <trkpt lat="29.5575419" lon="103.3866429"><ele>790.39</ele><time>2026-05-05T03:45:25.000Z</time></trkpt>
        <trkpt lat="29.5575015" lon="103.3865252"><ele>791.48</ele><time>2026-05-05T03:45:33.000Z</time></trkpt>
        <trkpt lat="29.5574144" lon="103.3864772"><ele>796.23</ele><time>2026-05-05T03:45:43.000Z</time></trkpt>
        <trkpt lat="29.5573191" lon="103.386444"><ele>795.45</ele><time>2026-05-05T03:45:53.000Z</time></trkpt>
        <trkpt lat="29.5572279" lon="103.3864029"><ele>793.02</ele><time>2026-05-05T03:46:05.000Z</time></trkpt>
        <trkpt lat="29.5571366" lon="103.3864175"><ele>791.26</ele><time>2026-05-05T03:46:17.000Z</time></trkpt>
        <trkpt lat="29.5570452" lon="103.3864221"><ele>789.75</ele><time>2026-05-05T03:46:27.000Z</time></trkpt>
        <trkpt lat="29.5570045" lon="103.3863348"><ele>791.95</ele><time>2026-05-05T03:46:37.000Z</time></trkpt>
        <trkpt lat="29.5569992" lon="103.3862135"><ele>793.76</ele><time>2026-05-05T03:46:47.000Z</time></trkpt>
        <trkpt lat="29.5569408" lon="103.3861272"><ele>794.59</ele><time>2026-05-05T03:46:57.000Z</time></trkpt>
        <trkpt lat="29.5568747" lon="103.3860491"><ele>796.13</ele><time>2026-05-05T03:47:05.000Z</time></trkpt>
        <trkpt lat="29.5568276" lon="103.3860006"><ele>797.18</ele><time>2026-05-05T03:47:13.000Z</time></trkpt>
        <trkpt lat="29.5567599" lon="103.3860422"><ele>796.28</ele><time>2026-05-05T03:47:31.000Z</time></trkpt>
        <trkpt lat="29.5566709" lon="103.3860824"><ele>795.04</ele><time>2026-05-05T03:47:41.000Z</time></trkpt>
        <trkpt lat="29.5565841" lon="103.386146"><ele>792.25</ele><time>2026-05-05T03:48:01.000Z</time></trkpt>
        <trkpt lat="29.5564975" lon="103.3861398"><ele>793.26</ele><time>2026-05-05T03:48:19.000Z</time></trkpt>
        <trkpt lat="29.5564392" lon="103.386062"><ele>793.5</ele><time>2026-05-05T03:48:35.000Z</time></trkpt>
        <trkpt lat="29.556415" lon="103.3859546"><ele>794.53</ele><time>2026-05-05T03:48:53.000Z</time></trkpt>
        <trkpt lat="29.5563703" lon="103.3859874"><ele>796.59</ele><time>2026-05-05T03:49:25.000Z</time></trkpt>
        <trkpt lat="29.5563182" lon="103.3860706"><ele>801.9</ele><time>2026-05-05T03:49:47.000Z</time></trkpt>
        <trkpt lat="29.556237" lon="103.3861324"><ele>808.48</ele><time>2026-05-05T03:50:09.000Z</time></trkpt>
        <trkpt lat="29.5561498" lon="103.3861234"><ele>815.59</ele><time>2026-05-05T03:50:25.000Z</time></trkpt>
        <trkpt lat="29.5560581" lon="103.3861066"><ele>821.4</ele><time>2026-05-05T03:50:45.000Z</time></trkpt>
        <trkpt lat="29.5559791" lon="103.3860444"><ele>827.15</ele><time>2026-05-05T03:51:07.000Z</time></trkpt>
        <trkpt lat="29.5559213" lon="103.385955"><ele>830.97</ele><time>2026-05-05T03:51:27.000Z</time></trkpt>
        <trkpt lat="29.5559901" lon="103.3859179"><ele>833.38</ele><time>2026-05-05T03:51:41.000Z</time></trkpt>
        <trkpt lat="29.5560872" lon="103.3858707"><ele>833.46</ele><time>2026-05-05T03:52:07.000Z</time></trkpt>
        <trkpt lat="29.5560527" lon="103.3858498"><ele>834.49</ele><time>2026-05-05T03:52:23.000Z</time></trkpt>
        <trkpt lat="29.556082" lon="103.3857769"><ele>836.76</ele><time>2026-05-05T03:52:45.000Z</time></trkpt>
        <trkpt lat="29.5560789" lon="103.3856649"><ele>839.37</ele><time>2026-05-05T03:52:59.000Z</time></trkpt>
        <trkpt lat="29.5560818" lon="103.3855465"><ele>841.23</ele><time>2026-05-05T03:53:13.000Z</time></trkpt>
        <trkpt lat="29.5560999" lon="103.3854363"><ele>844.43</ele><time>2026-05-05T03:53:27.000Z</time></trkpt>
        <trkpt lat="29.5560528" lon="103.3854725"><ele>849.75</ele><time>2026-05-05T03:53:53.000Z</time></trkpt>
        <trkpt lat="29.5559959" lon="103.3855669"><ele>853.04</ele><time>2026-05-05T03:54:09.000Z</time></trkpt>
        <trkpt lat="29.555938" lon="103.3855338"><ele>855.43</ele><time>2026-05-05T03:54:33.000Z</time></trkpt>
        <trkpt lat="29.5558582" lon="103.3855643"><ele>856.54</ele><time>2026-05-05T03:54:59.000Z</time></trkpt>
        <trkpt lat="29.5557673" lon="103.3855576"><ele>862.84</ele><time>2026-05-05T03:55:21.000Z</time></trkpt>
        <trkpt lat="29.5557485" lon="103.3854744"><ele>869.32</ele><time>2026-05-05T03:55:45.000Z</time></trkpt>
        <trkpt lat="29.5556896" lon="103.3854024"><ele>874.07</ele><time>2026-05-05T03:56:15.000Z</time></trkpt>
        <trkpt lat="29.5556373" lon="103.3853135"><ele>877.75</ele><time>2026-05-05T03:56:39.000Z</time></trkpt>
        <trkpt lat="29.5556443" lon="103.3852113"><ele>880.53</ele><time>2026-05-05T03:56:57.000Z</time></trkpt>
        <trkpt lat="29.5556718" lon="103.3851026"><ele>883.37</ele><time>2026-05-05T03:57:51.000Z</time></trkpt>
        <trkpt lat="29.5555978" lon="103.3850986"><ele>886.88</ele><time>2026-05-05T04:02:37.000Z</time></trkpt>
        <trkpt lat="29.555513" lon="103.3850547"><ele>892.99</ele><time>2026-05-05T04:02:55.000Z</time></trkpt>
        <trkpt lat="29.5554239" lon="103.3850002"><ele>897.01</ele><time>2026-05-05T04:03:09.000Z</time></trkpt>
        <trkpt lat="29.5553327" lon="103.3849854"><ele>900.8</ele><time>2026-05-05T04:03:27.000Z</time></trkpt>
        <trkpt lat="29.5552434" lon="103.3849689"><ele>905.64</ele><time>2026-05-05T04:03:45.000Z</time></trkpt>
        <trkpt lat="29.5551511" lon="103.3849723"><ele>908.43</ele><time>2026-05-05T04:04:01.000Z</time></trkpt>
        <trkpt lat="29.5550597" lon="103.3849631"><ele>912.73</ele><time>2026-05-05T04:04:17.000Z</time></trkpt>
        <trkpt lat="29.5549748" lon="103.3849261"><ele>917.64</ele><time>2026-05-05T04:04:31.000Z</time></trkpt>
        <trkpt lat="29.5548903" lon="103.3848653"><ele>921.56</ele><time>2026-05-05T04:04:45.000Z</time></trkpt>
        <trkpt lat="29.5548103" lon="103.3847918"><ele>924.01</ele><time>2026-05-05T04:05:03.000Z</time></trkpt>
        <trkpt lat="29.5547327" lon="103.3847264"><ele>927.01</ele><time>2026-05-05T04:05:17.000Z</time></trkpt>
        <trkpt lat="29.554662" lon="103.3846501"><ele>930.67</ele><time>2026-05-05T04:05:35.000Z</time></trkpt>
        <trkpt lat="29.5546053" lon="103.3845516"><ele>933.6</ele><time>2026-05-05T04:06:13.000Z</time></trkpt>
        <trkpt lat="29.5546567" lon="103.3844821"><ele>934.87</ele><time>2026-05-05T04:06:23.000Z</time></trkpt>
        <trkpt lat="29.5547563" lon="103.3844607"><ele>937.47</ele><time>2026-05-05T04:06:39.000Z</time></trkpt>
        <trkpt lat="29.5548329" lon="103.3843888"><ele>941.38</ele><time>2026-05-05T04:07:05.000Z</time></trkpt>
        <trkpt lat="29.5549185" lon="103.3843211"><ele>944.11</ele><time>2026-05-05T04:07:25.000Z</time></trkpt>
        <trkpt lat="29.555006" lon="103.384264"><ele>946.81</ele><time>2026-05-05T04:07:47.000Z</time></trkpt>
        <trkpt lat="29.5550888" lon="103.3842022"><ele>949.9</ele><time>2026-05-05T04:08:11.000Z</time></trkpt>
        <trkpt lat="29.555068" lon="103.3841086"><ele>953.62</ele><time>2026-05-05T04:08:27.000Z</time></trkpt>
        <trkpt lat="29.5549968" lon="103.3840176"><ele>957.3</ele><time>2026-05-05T04:08:39.000Z</time></trkpt>
        <trkpt lat="29.5549739" lon="103.3838982"><ele>959.02</ele><time>2026-05-05T04:09:29.000Z</time></trkpt>
        <trkpt lat="29.5549668" lon="103.383781"><ele>961.07</ele><time>2026-05-05T04:09:39.000Z</time></trkpt>
        <trkpt lat="29.5550066" lon="103.383683"><ele>960.98</ele><time>2026-05-05T04:09:49.000Z</time></trkpt>
        <trkpt lat="29.5550354" lon="103.3835801"><ele>959.93</ele><time>2026-05-05T04:09:59.000Z</time></trkpt>
        <trkpt lat="29.555015" lon="103.383482"><ele>958.34</ele><time>2026-05-05T04:10:09.000Z</time></trkpt>
        <trkpt lat="29.5549452" lon="103.3834054"><ele>957.46</ele><time>2026-05-05T04:10:19.000Z</time></trkpt>
        <trkpt lat="29.5548447" lon="103.3833479"><ele>958.04</ele><time>2026-05-05T04:10:29.000Z</time></trkpt>
        <trkpt lat="29.5547488" lon="103.3832971"><ele>957.84</ele><time>2026-05-05T04:10:39.000Z</time></trkpt>
        <trkpt lat="29.554654" lon="103.383233"><ele>956.6</ele><time>2026-05-05T04:10:49.000Z</time></trkpt>
        <trkpt lat="29.5545605" lon="103.3831736"><ele>956.93</ele><time>2026-05-05T04:10:59.000Z</time></trkpt>
        <trkpt lat="29.5544791" lon="103.3830958"><ele>957.92</ele><time>2026-05-05T04:11:07.000Z</time></trkpt>
        <trkpt lat="29.5544487" lon="103.382994"><ele>962.58</ele><time>2026-05-05T04:11:19.000Z</time></trkpt>
        <trkpt lat="29.5543833" lon="103.3829265"><ele>965.22</ele><time>2026-05-05T04:11:41.000Z</time></trkpt>
        <trkpt lat="29.5543842" lon="103.3828362"><ele>964.86</ele><time>2026-05-05T04:12:01.000Z</time></trkpt>
        <trkpt lat="29.5544073" lon="103.3827253"><ele>968.86</ele><time>2026-05-05T04:12:21.000Z</time></trkpt>
        <trkpt lat="29.5544253" lon="103.3826134"><ele>972.86</ele><time>2026-05-05T04:12:37.000Z</time></trkpt>
        <trkpt lat="29.554374" lon="103.382528"><ele>976.26</ele><time>2026-05-05T04:12:53.000Z</time></trkpt>
        <trkpt lat="29.5542985" lon="103.3824533"><ele>978.45</ele><time>2026-05-05T04:13:13.000Z</time></trkpt>
        <trkpt lat="29.5542324" lon="103.3823686"><ele>981.06</ele><time>2026-05-05T04:13:25.000Z</time></trkpt>
        <trkpt lat="29.5542182" lon="103.3822534"><ele>982.43</ele><time>2026-05-05T04:13:35.000Z</time></trkpt>
        <trkpt lat="29.5542247" lon="103.3821381"><ele>984.43</ele><time>2026-05-05T04:13:47.000Z</time></trkpt>
        <trkpt lat="29.5542344" lon="103.3820194"><ele>987.35</ele><time>2026-05-05T04:13:59.000Z</time></trkpt>
        <trkpt lat="29.5542121" lon="103.3819058"><ele>988.75</ele><time>2026-05-05T04:14:09.000Z</time></trkpt>
        <trkpt lat="29.5541703" lon="103.3818019"><ele>988.89</ele><time>2026-05-05T04:14:17.000Z</time></trkpt>
        <trkpt lat="29.5541506" lon="103.3816968"><ele>990.01</ele><time>2026-05-05T04:14:31.000Z</time></trkpt>
        <trkpt lat="29.554115" lon="103.3815821"><ele>992.76</ele><time>2026-05-05T04:14:45.000Z</time></trkpt>
        <trkpt lat="29.5540731" lon="103.3814705"><ele>993.93</ele><time>2026-05-05T04:14:55.000Z</time></trkpt>
        <trkpt lat="29.5540587" lon="103.3813481"><ele>995.66</ele><time>2026-05-05T04:15:05.000Z</time></trkpt>
        <trkpt lat="29.5540517" lon="103.3812334"><ele>997.29</ele><time>2026-05-05T04:15:15.000Z</time></trkpt>
        <trkpt lat="29.5540285" lon="103.3811234"><ele>998.19</ele><time>2026-05-05T04:15:25.000Z</time></trkpt>
        <trkpt lat="29.5539879" lon="103.3810239"><ele>998</ele><time>2026-05-05T04:15:33.000Z</time></trkpt>
        <trkpt lat="29.5539465" lon="103.3809208"><ele>998.97</ele><time>2026-05-05T04:15:43.000Z</time></trkpt>
        <trkpt lat="29.5539634" lon="103.3808173"><ele>999.98</ele><time>2026-05-05T04:15:53.000Z</time></trkpt>
        <trkpt lat="29.5540012" lon="103.3807125"><ele>1002.27</ele><time>2026-05-05T04:16:03.000Z</time></trkpt>
        <trkpt lat="29.5540498" lon="103.3806134"><ele>1005.07</ele><time>2026-05-05T04:16:13.000Z</time></trkpt>
        <trkpt lat="29.554073" lon="103.3805014"><ele>1006.62</ele><time>2026-05-05T04:16:27.000Z</time></trkpt>
        <trkpt lat="29.5540491" lon="103.380395"><ele>1007.86</ele><time>2026-05-05T04:16:37.000Z</time></trkpt>
        <trkpt lat="29.5540361" lon="103.38029"><ele>1007.92</ele><time>2026-05-05T04:16:47.000Z</time></trkpt>
        <trkpt lat="29.5540329" lon="103.3801659"><ele>1007.86</ele><time>2026-05-05T04:16:57.000Z</time></trkpt>
        <trkpt lat="29.5540241" lon="103.3800529"><ele>1009.57</ele><time>2026-05-05T04:17:07.000Z</time></trkpt>
        <trkpt lat="29.5539923" lon="103.3799522"><ele>1010.82</ele><time>2026-05-05T04:17:19.000Z</time></trkpt>
        <trkpt lat="29.5539593" lon="103.3798519"><ele>1011.07</ele><time>2026-05-05T04:17:35.000Z</time></trkpt>
        <trkpt lat="29.5539351" lon="103.3797466"><ele>1012.63</ele><time>2026-05-05T04:17:59.000Z</time></trkpt>
        <trkpt lat="29.5539251" lon="103.3796399"><ele>1016.26</ele><time>2026-05-05T04:18:19.000Z</time></trkpt>
        <trkpt lat="29.5538997" lon="103.3795335"><ele>1019.64</ele><time>2026-05-05T04:18:35.000Z</time></trkpt>
        <trkpt lat="29.5538807" lon="103.3794232"><ele>1021.53</ele><time>2026-05-05T04:18:49.000Z</time></trkpt>
        <trkpt lat="29.5538567" lon="103.3793158"><ele>1025.8</ele><time>2026-05-05T04:19:05.000Z</time></trkpt>
        <trkpt lat="29.5538273" lon="103.3792127"><ele>1028.77</ele><time>2026-05-05T04:19:21.000Z</time></trkpt>
        <trkpt lat="29.5538004" lon="103.3791089"><ele>1030.67</ele><time>2026-05-05T04:19:33.000Z</time></trkpt>
        <trkpt lat="29.5537778" lon="103.3789969"><ele>1033.1</ele><time>2026-05-05T04:19:45.000Z</time></trkpt>
        <trkpt lat="29.553789" lon="103.3788733"><ele>1034.99</ele><time>2026-05-05T04:19:55.000Z</time></trkpt>
        <trkpt lat="29.5538269" lon="103.3787653"><ele>1036.97</ele><time>2026-05-05T04:20:03.000Z</time></trkpt>
        <trkpt lat="29.5538624" lon="103.3786632"><ele>1039.43</ele><time>2026-05-05T04:20:15.000Z</time></trkpt>
        <trkpt lat="29.5538603" lon="103.3785584"><ele>1038.32</ele><time>2026-05-05T04:20:25.000Z</time></trkpt>
        <trkpt lat="29.5538181" lon="103.378457"><ele>1039.32</ele><time>2026-05-05T04:20:43.000Z</time></trkpt>
        <trkpt lat="29.5537783" lon="103.3783549"><ele>1039.47</ele><time>2026-05-05T04:21:05.000Z</time></trkpt>
        <trkpt lat="29.5537174" lon="103.3782626"><ele>1044.48</ele><time>2026-05-05T04:21:25.000Z</time></trkpt>
        <trkpt lat="29.5536556" lon="103.3781688"><ele>1047.85</ele><time>2026-05-05T04:21:39.000Z</time></trkpt>
        <trkpt lat="29.5536122" lon="103.3780664"><ele>1050.11</ele><time>2026-05-05T04:21:49.000Z</time></trkpt>
        <trkpt lat="29.5535572" lon="103.3779791"><ele>1052.31</ele><time>2026-05-05T04:22:09.000Z</time></trkpt>
        <trkpt lat="29.5534975" lon="103.3778974"><ele>1054.64</ele><time>2026-05-05T04:22:43.000Z</time></trkpt>
        <trkpt lat="29.5534539" lon="103.3778051"><ele>1058.26</ele><time>2026-05-05T04:23:05.000Z</time></trkpt>
        <trkpt lat="29.5533843" lon="103.3777454"><ele>1063.43</ele><time>2026-05-05T04:23:29.000Z</time></trkpt>
        <trkpt lat="29.5533081" lon="103.3776914"><ele>1067.43</ele><time>2026-05-05T04:23:55.000Z</time></trkpt>
        <trkpt lat="29.5532277" lon="103.3776301"><ele>1072.2</ele><time>2026-05-05T04:24:29.000Z</time></trkpt>
        <trkpt lat="29.5531653" lon="103.3775444"><ele>1077.76</ele><time>2026-05-05T04:24:49.000Z</time></trkpt>
        <trkpt lat="29.5531044" lon="103.3774643"><ele>1081.78</ele><time>2026-05-05T04:25:13.000Z</time></trkpt>
        <trkpt lat="29.5530255" lon="103.3774005"><ele>1084.73</ele><time>2026-05-05T04:25:35.000Z</time></trkpt>
        <trkpt lat="29.552961" lon="103.3773151"><ele>1087.91</ele><time>2026-05-05T04:25:59.000Z</time></trkpt>
        <trkpt lat="29.5528941" lon="103.3772335"><ele>1093.22</ele><time>2026-05-05T04:26:21.000Z</time></trkpt>
        <trkpt lat="29.5528072" lon="103.3771942"><ele>1099.29</ele><time>2026-05-05T04:26:43.000Z</time></trkpt>
        <trkpt lat="29.5527164" lon="103.3771548"><ele>1102.05</ele><time>2026-05-05T04:27:13.000Z</time></trkpt>
        <trkpt lat="29.5526428" lon="103.3770925"><ele>1106.41</ele><time>2026-05-05T04:27:27.000Z</time></trkpt>
        <trkpt lat="29.5525541" lon="103.3770831"><ele>1110.39</ele><time>2026-05-05T04:28:03.000Z</time></trkpt>
        <trkpt lat="29.5524737" lon="103.3770394"><ele>1113.8</ele><time>2026-05-05T04:28:29.000Z</time></trkpt>
        <trkpt lat="29.5523911" lon="103.3769943"><ele>1117.27</ele><time>2026-05-05T04:28:51.000Z</time></trkpt>
        <trkpt lat="29.5523023" lon="103.3769724"><ele>1123.64</ele><time>2026-05-05T04:29:17.000Z</time></trkpt>
        <trkpt lat="29.5522147" lon="103.3769417"><ele>1126.56</ele><time>2026-05-05T04:29:43.000Z</time></trkpt>
        <trkpt lat="29.5521422" lon="103.3768821"><ele>1130.75</ele><time>2026-05-05T04:29:59.000Z</time></trkpt>
        <trkpt lat="29.5520644" lon="103.3768237"><ele>1133.6</ele><time>2026-05-05T04:30:21.000Z</time></trkpt>
        <trkpt lat="29.5519688" lon="103.3767804"><ele>1137.31</ele><time>2026-05-05T04:31:21.000Z</time></trkpt>
        <trkpt lat="29.5518716" lon="103.376783"><ele>1141.7</ele><time>2026-05-05T04:31:39.000Z</time></trkpt>
        <trkpt lat="29.5518092" lon="103.376692"><ele>1145.09</ele><time>2026-05-05T04:31:47.000Z</time></trkpt>
        <trkpt lat="29.5518177" lon="103.3766593"><ele>1147.36</ele><time>2026-05-05T04:31:53.000Z</time></trkpt>
        <trkpt lat="29.5517927" lon="103.3765834"><ele>1149.42</ele><time>2026-05-05T04:32:11.000Z</time></trkpt>
        <trkpt lat="29.5517683" lon="103.3764806"><ele>1150.54</ele><time>2026-05-05T04:32:35.000Z</time></trkpt>
        <trkpt lat="29.5517432" lon="103.3763675"><ele>1153.84</ele><time>2026-05-05T04:33:01.000Z</time></trkpt>
        <trkpt lat="29.5517067" lon="103.3762654"><ele>1157.65</ele><time>2026-05-05T04:33:51.000Z</time></trkpt>
        <trkpt lat="29.5517302" lon="103.3761636"><ele>1164.57</ele><time>2026-05-05T04:34:11.000Z</time></trkpt>
        <trkpt lat="29.5517388" lon="103.3760543"><ele>1169.01</ele><time>2026-05-05T04:35:01.000Z</time></trkpt>
        <trkpt lat="29.5517073" lon="103.3759564"><ele>1173.41</ele><time>2026-05-05T04:35:27.000Z</time></trkpt>
        <trkpt lat="29.5517146" lon="103.3758571"><ele>1178.57</ele><time>2026-05-05T04:35:43.000Z</time></trkpt>
        <trkpt lat="29.5516923" lon="103.3757581"><ele>1184.03</ele><time>2026-05-05T04:35:55.000Z</time></trkpt>
        <trkpt lat="29.5516575" lon="103.3756512"><ele>1187.86</ele><time>2026-05-05T04:36:05.000Z</time></trkpt>
        <trkpt lat="29.5516019" lon="103.3755533"><ele>1190.18</ele><time>2026-05-05T04:36:15.000Z</time></trkpt>
        <trkpt lat="29.5515287" lon="103.3754741"><ele>1190.23</ele><time>2026-05-05T04:36:25.000Z</time></trkpt>
        <trkpt lat="29.5514443" lon="103.3754093"><ele>1191.48</ele><time>2026-05-05T04:36:37.000Z</time></trkpt>
        <trkpt lat="29.551366" lon="103.3753463"><ele>1190.78</ele><time>2026-05-05T04:36:47.000Z</time></trkpt>
        <trkpt lat="29.5512847" lon="103.3752959"><ele>1190.45</ele><time>2026-05-05T04:36:59.000Z</time></trkpt>
        <trkpt lat="29.5511933" lon="103.3752846"><ele>1193.28</ele><time>2026-05-05T04:37:21.000Z</time></trkpt>
        <trkpt lat="29.5511084" lon="103.3752487"><ele>1192.95</ele><time>2026-05-05T04:37:39.000Z</time></trkpt>
        <trkpt lat="29.5510159" lon="103.3752472"><ele>1192.44</ele><time>2026-05-05T04:37:55.000Z</time></trkpt>
        <trkpt lat="29.550921" lon="103.375247"><ele>1194.61</ele><time>2026-05-05T04:38:13.000Z</time></trkpt>
        <trkpt lat="29.5508268" lon="103.3752216"><ele>1197.86</ele><time>2026-05-05T04:38:25.000Z</time></trkpt>
        <trkpt lat="29.5507387" lon="103.3751581"><ele>1200.85</ele><time>2026-05-05T04:38:37.000Z</time></trkpt>
        <trkpt lat="29.5506438" lon="103.3751119"><ele>1203.46</ele><time>2026-05-05T04:38:49.000Z</time></trkpt>
        <trkpt lat="29.5505499" lon="103.3750518"><ele>1206.29</ele><time>2026-05-05T04:39:01.000Z</time></trkpt>
        <trkpt lat="29.5504548" lon="103.3750242"><ele>1207.06</ele><time>2026-05-05T04:39:11.000Z</time></trkpt>
        <trkpt lat="29.5503665" lon="103.3749803"><ele>1207.67</ele><time>2026-05-05T04:39:21.000Z</time></trkpt>
        <trkpt lat="29.5502925" lon="103.3749181"><ele>1208.8</ele><time>2026-05-05T04:39:29.000Z</time></trkpt>
        <trkpt lat="29.5502065" lon="103.3748808"><ele>1208.97</ele><time>2026-05-05T04:39:39.000Z</time></trkpt>
        <trkpt lat="29.5501226" lon="103.3748406"><ele>1210.83</ele><time>2026-05-05T04:39:51.000Z</time></trkpt>
        <trkpt lat="29.550036" lon="103.3747812"><ele>1212.89</ele><time>2026-05-05T04:40:05.000Z</time></trkpt>
        <trkpt lat="29.5499554" lon="103.3747175"><ele>1213.47</ele><time>2026-05-05T04:40:17.000Z</time></trkpt>
        <trkpt lat="29.5499359" lon="103.374616"><ele>1213.75</ele><time>2026-05-05T04:40:37.000Z</time></trkpt>
        <trkpt lat="29.5499921" lon="103.3745344"><ele>1213.37</ele><time>2026-05-05T04:40:49.000Z</time></trkpt>
        <trkpt lat="29.5500681" lon="103.3744528"><ele>1215</ele><time>2026-05-05T04:41:11.000Z</time></trkpt>
        <trkpt lat="29.5501572" lon="103.3743821"><ele>1219.08</ele><time>2026-05-05T04:41:53.000Z</time></trkpt>
        <trkpt lat="29.5502356" lon="103.3743088"><ele>1223.58</ele><time>2026-05-05T04:42:05.000Z</time></trkpt>
        <trkpt lat="29.5503199" lon="103.37426"><ele>1226.87</ele><time>2026-05-05T04:42:19.000Z</time></trkpt>
        <trkpt lat="29.5504047" lon="103.374204"><ele>1228.54</ele><time>2026-05-05T04:42:33.000Z</time></trkpt>
        <trkpt lat="29.550472" lon="103.3741164"><ele>1231.54</ele><time>2026-05-05T04:42:43.000Z</time></trkpt>
        <trkpt lat="29.5505566" lon="103.3740502"><ele>1232.94</ele><time>2026-05-05T04:42:53.000Z</time></trkpt>
        <trkpt lat="29.5506483" lon="103.374056"><ele>1232.77</ele><time>2026-05-05T04:43:03.000Z</time></trkpt>
        <trkpt lat="29.5507285" lon="103.3740202"><ele>1232.35</ele><time>2026-05-05T04:43:13.000Z</time></trkpt>
        <trkpt lat="29.5507937" lon="103.3739494"><ele>1231.97</ele><time>2026-05-05T04:43:23.000Z</time></trkpt>
        <trkpt lat="29.5508741" lon="103.3738835"><ele>1231.06</ele><time>2026-05-05T04:43:33.000Z</time></trkpt>
        <trkpt lat="29.5509436" lon="103.3737984"><ele>1230.69</ele><time>2026-05-05T04:43:45.000Z</time></trkpt>
        <trkpt lat="29.5510308" lon="103.3737522"><ele>1230.29</ele><time>2026-05-05T04:43:55.000Z</time></trkpt>
        <trkpt lat="29.5511343" lon="103.3737518"><ele>1229.97</ele><time>2026-05-05T04:44:07.000Z</time></trkpt>
        <trkpt lat="29.5512268" lon="103.3737302"><ele>1229.6</ele><time>2026-05-05T04:44:17.000Z</time></trkpt>
        <trkpt lat="29.5513009" lon="103.3736604"><ele>1229.61</ele><time>2026-05-05T04:44:25.000Z</time></trkpt>
        <trkpt lat="29.5512906" lon="103.3735569"><ele>1227.75</ele><time>2026-05-05T04:44:35.000Z</time></trkpt>
        <trkpt lat="29.551308" lon="103.3734384"><ele>1224.95</ele><time>2026-05-05T04:44:51.000Z</time></trkpt>
        <trkpt lat="29.5513329" lon="103.3733301"><ele>1222.02</ele><time>2026-05-05T04:44:59.000Z</time></trkpt>
        <trkpt lat="29.5513224" lon="103.3732222"><ele>1219.87</ele><time>2026-05-05T04:45:09.000Z</time></trkpt>
        <trkpt lat="29.5512681" lon="103.3731361"><ele>1216.92</ele><time>2026-05-05T04:45:17.000Z</time></trkpt>
        <trkpt lat="29.5511885" lon="103.3730729"><ele>1215.23</ele><time>2026-05-05T04:45:25.000Z</time></trkpt>
        <trkpt lat="29.5511382" lon="103.3729839"><ele>1214.08</ele><time>2026-05-05T04:45:33.000Z</time></trkpt>
        <trkpt lat="29.5511148" lon="103.372879"><ele>1215.58</ele><time>2026-05-05T04:45:41.000Z</time></trkpt>
        <trkpt lat="29.5510488" lon="103.3729094"><ele>1218.53</ele><time>2026-05-05T04:45:51.000Z</time></trkpt>
        <trkpt lat="29.5509602" lon="103.372926"><ele>1218.8</ele><time>2026-05-05T04:45:59.000Z</time></trkpt>
        <trkpt lat="29.5508516" lon="103.3729263"><ele>1218.49</ele><time>2026-05-05T04:46:09.000Z</time></trkpt>
        <trkpt lat="29.5507367" lon="103.372929"><ele>1217.78</ele><time>2026-05-05T04:46:19.000Z</time></trkpt>
        <trkpt lat="29.550617" lon="103.3729351"><ele>1216.91</ele><time>2026-05-05T04:46:29.000Z</time></trkpt>
        <trkpt lat="29.550507" lon="103.3729347"><ele>1217.91</ele><time>2026-05-05T04:46:39.000Z</time></trkpt>
        <trkpt lat="29.5504127" lon="103.3729775"><ele>1220.05</ele><time>2026-05-05T04:46:51.000Z</time></trkpt>
        <trkpt lat="29.5503087" lon="103.3729724"><ele>1222.07</ele><time>2026-05-05T04:47:03.000Z</time></trkpt>
        <trkpt lat="29.550223" lon="103.3729041"><ele>1222.07</ele><time>2026-05-05T04:47:11.000Z</time></trkpt>
        <trkpt lat="29.5501455" lon="103.3728121"><ele>1224.8</ele><time>2026-05-05T04:47:19.000Z</time></trkpt>
        <trkpt lat="29.5501667" lon="103.3727114"><ele>1228.11</ele><time>2026-05-05T04:47:37.000Z</time></trkpt>
        <trkpt lat="29.5502571" lon="103.3726709"><ele>1229.02</ele><time>2026-05-05T04:47:47.000Z</time></trkpt>
        <trkpt lat="29.5503571" lon="103.3726178"><ele>1230.01</ele><time>2026-05-05T04:47:57.000Z</time></trkpt>
        <trkpt lat="29.5504449" lon="103.3725507"><ele>1230.02</ele><time>2026-05-05T04:48:09.000Z</time></trkpt>
        <trkpt lat="29.550516" lon="103.3724902"><ele>1226.57</ele><time>2026-05-05T04:48:21.000Z</time></trkpt>
        <trkpt lat="29.5505884" lon="103.3724026"><ele>1223.77</ele><time>2026-05-05T04:48:33.000Z</time></trkpt>
        <trkpt lat="29.5506248" lon="103.3723021"><ele>1220.69</ele><time>2026-05-05T04:48:41.000Z</time></trkpt>
        <trkpt lat="29.5506712" lon="103.3721901"><ele>1219.13</ele><time>2026-05-05T04:48:51.000Z</time></trkpt>
        <trkpt lat="29.5506923" lon="103.3720808"><ele>1219.2</ele><time>2026-05-05T04:48:59.000Z</time></trkpt>
        <trkpt lat="29.5506546" lon="103.3719816"><ele>1218.2</ele><time>2026-05-05T04:49:11.000Z</time></trkpt>
        <trkpt lat="29.5505557" lon="103.3718965"><ele>1215.33</ele><time>2026-05-05T04:50:35.000Z</time></trkpt>
        <trkpt lat="29.5504973" lon="103.3717917"><ele>1213.63</ele><time>2026-05-05T04:50:45.000Z</time></trkpt>
        <trkpt lat="29.5504734" lon="103.3716768"><ele>1213.2</ele><time>2026-05-05T04:50:55.000Z</time></trkpt>
        <trkpt lat="29.5504074" lon="103.371593"><ele>1212.98</ele><time>2026-05-05T04:51:05.000Z</time></trkpt>
        <trkpt lat="29.5503398" lon="103.3715143"><ele>1213.28</ele><time>2026-05-05T04:51:13.000Z</time></trkpt>
        <trkpt lat="29.550249" lon="103.3714923"><ele>1214.35</ele><time>2026-05-05T04:51:23.000Z</time></trkpt>
        <trkpt lat="29.5501632" lon="103.3714478"><ele>1215.32</ele><time>2026-05-05T04:51:33.000Z</time></trkpt>
        <trkpt lat="29.550194" lon="103.3713649"><ele>1215.38</ele><time>2026-05-05T04:51:43.000Z</time></trkpt>
        <trkpt lat="29.5502579" lon="103.3712757"><ele>1212.57</ele><time>2026-05-05T04:51:51.000Z</time></trkpt>
        <trkpt lat="29.5503227" lon="103.3711826"><ele>1209.01</ele><time>2026-05-05T04:51:59.000Z</time></trkpt>
        <trkpt lat="29.5503904" lon="103.3710905"><ele>1206.31</ele><time>2026-05-05T04:52:07.000Z</time></trkpt>
        <trkpt lat="29.5504466" lon="103.3709902"><ele>1205.86</ele><time>2026-05-05T04:52:15.000Z</time></trkpt>
        <trkpt lat="29.5504549" lon="103.3708778"><ele>1204.87</ele><time>2026-05-05T04:52:25.000Z</time></trkpt>
        <trkpt lat="29.5503992" lon="103.3707789"><ele>1204.8</ele><time>2026-05-05T04:52:37.000Z</time></trkpt>
        <trkpt lat="29.5503507" lon="103.3706779"><ele>1204.79</ele><time>2026-05-05T04:52:47.000Z</time></trkpt>
        <trkpt lat="29.5503421" lon="103.3705685"><ele>1204</ele><time>2026-05-05T04:52:55.000Z</time></trkpt>
        <trkpt lat="29.5503731" lon="103.3704638"><ele>1204.97</ele><time>2026-05-05T04:53:07.000Z</time></trkpt>
        <trkpt lat="29.5504401" lon="103.3703894"><ele>1207.24</ele><time>2026-05-05T04:53:17.000Z</time></trkpt>
        <trkpt lat="29.550463" lon="103.3703245"><ele>1207.07</ele><time>2026-05-05T04:53:31.000Z</time></trkpt>
        <trkpt lat="29.5504353" lon="103.3702297"><ele>1202.12</ele><time>2026-05-05T04:54:39.000Z</time></trkpt>
        <trkpt lat="29.5503731" lon="103.3701342"><ele>1198.6</ele><time>2026-05-05T04:57:07.000Z</time></trkpt>
        <trkpt lat="29.5503483" lon="103.370014"><ele>1197.33</ele><time>2026-05-05T04:57:17.000Z</time></trkpt>
        <trkpt lat="29.5503092" lon="103.3699103"><ele>1197.06</ele><time>2026-05-05T04:57:27.000Z</time></trkpt>
        <trkpt lat="29.550243" lon="103.3698202"><ele>1197.04</ele><time>2026-05-05T04:57:39.000Z</time></trkpt>
        <trkpt lat="29.5502088" lon="103.3697152"><ele>1198.32</ele><time>2026-05-05T04:57:53.000Z</time></trkpt>
        <trkpt lat="29.5501889" lon="103.3696125"><ele>1199.77</ele><time>2026-05-05T04:58:19.000Z</time></trkpt>
        <trkpt lat="29.5501198" lon="103.3695566"><ele>1204.61</ele><time>2026-05-05T04:58:55.000Z</time></trkpt>
        <trkpt lat="29.5500422" lon="103.3694985"><ele>1211.43</ele><time>2026-05-05T04:59:43.000Z</time></trkpt>
        <trkpt lat="29.5499893" lon="103.3694165"><ele>1218.14</ele><time>2026-05-05T04:59:59.000Z</time></trkpt>
        <trkpt lat="29.5499571" lon="103.3693157"><ele>1222</ele><time>2026-05-05T05:00:07.000Z</time></trkpt>
        <trkpt lat="29.5499038" lon="103.3692322"><ele>1224.39</ele><time>2026-05-05T05:00:17.000Z</time></trkpt>
        <trkpt lat="29.5498816" lon="103.3691245"><ele>1225.74</ele><time>2026-05-05T05:00:31.000Z</time></trkpt>
        <trkpt lat="29.5498777" lon="103.3690045"><ele>1228.19</ele><time>2026-05-05T05:00:43.000Z</time></trkpt>
        <trkpt lat="29.5499409" lon="103.3689251"><ele>1229.81</ele><time>2026-05-05T05:01:11.000Z</time></trkpt>
        <trkpt lat="29.549898" lon="103.368923"><ele>1235.31</ele><time>2026-05-05T05:01:29.000Z</time></trkpt>
        <trkpt lat="29.5499037" lon="103.3688571"><ele>1238.58</ele><time>2026-05-05T05:01:53.000Z</time></trkpt>
        <trkpt lat="29.5499482" lon="103.3687694"><ele>1241.45</ele><time>2026-05-05T05:02:17.000Z</time></trkpt>
        <trkpt lat="29.5499295" lon="103.3687544"><ele>1244.36</ele><time>2026-05-05T05:02:21.000Z</time></trkpt>
        <trkpt lat="29.5498792" lon="103.3688218"><ele>1246.07</ele><time>2026-05-05T05:02:37.000Z</time></trkpt>
        <trkpt lat="29.5498065" lon="103.3689021"><ele>1247.53</ele><time>2026-05-05T05:02:55.000Z</time></trkpt>
        <trkpt lat="29.5497641" lon="103.3688414"><ele>1250.26</ele><time>2026-05-05T05:03:15.000Z</time></trkpt>
        <trkpt lat="29.549683" lon="103.3687743"><ele>1251.09</ele><time>2026-05-05T05:03:29.000Z</time></trkpt>
        <trkpt lat="29.5496165" lon="103.368687"><ele>1251.57</ele><time>2026-05-05T05:03:39.000Z</time></trkpt>
        <trkpt lat="29.5495618" lon="103.3685861"><ele>1252.09</ele><time>2026-05-05T05:03:53.000Z</time></trkpt>
        <trkpt lat="29.5495309" lon="103.3685523"><ele>1252.25</ele><time>2026-05-05T05:03:57.000Z</time></trkpt>
        <trkpt lat="29.5495946" lon="103.3686001"><ele>1252.3</ele><time>2026-05-05T05:04:41.000Z</time></trkpt>
        <trkpt lat="29.5496171" lon="103.3685434"><ele>1251.8</ele><time>2026-05-05T05:04:57.000Z</time></trkpt>
        <trkpt lat="29.5496922" lon="103.3685118"><ele>1254.05</ele><time>2026-05-05T05:05:19.000Z</time></trkpt>
        <trkpt lat="29.5498094" lon="103.3685112"><ele>1257.49</ele><time>2026-05-05T05:06:29.000Z</time></trkpt>
        <trkpt lat="29.5498072" lon="103.3684056"><ele>1265.25</ele><time>2026-05-05T05:06:49.000Z</time></trkpt>
        <trkpt lat="29.549766" lon="103.3683099"><ele>1269.47</ele><time>2026-05-05T05:08:15.000Z</time></trkpt>
        <trkpt lat="29.5498565" lon="103.3683017"><ele>1279.56</ele><time>2026-05-05T05:08:39.000Z</time></trkpt>
        <trkpt lat="29.5499211" lon="103.3682329"><ele>1288.8</ele><time>2026-05-05T05:09:11.000Z</time></trkpt>
        <trkpt lat="29.5499123" lon="103.368104"><ele>1294.16</ele><time>2026-05-05T05:12:29.000Z</time></trkpt>
        <trkpt lat="29.5499283" lon="103.3680077"><ele>1303.62</ele><time>2026-05-05T05:12:41.000Z</time></trkpt>
        <trkpt lat="29.5498696" lon="103.3680491"><ele>1309.96</ele><time>2026-05-05T05:13:03.000Z</time></trkpt>
        <trkpt lat="29.5498668" lon="103.3679838"><ele>1316.12</ele><time>2026-05-05T05:13:17.000Z</time></trkpt>
        <trkpt lat="29.5499002" lon="103.3678909"><ele>1319.21</ele><time>2026-05-05T05:13:55.000Z</time></trkpt>
        <trkpt lat="29.5498373" lon="103.3678771"><ele>1324.88</ele><time>2026-05-05T05:14:09.000Z</time></trkpt>
        <trkpt lat="29.5498787" lon="103.3678446"><ele>1329.69</ele><time>2026-05-05T05:14:27.000Z</time></trkpt>
        <trkpt lat="29.5499691" lon="103.367845"><ele>1333.84</ele><time>2026-05-05T05:15:13.000Z</time></trkpt>
        <trkpt lat="29.5500222" lon="103.3678483"><ele>1336.84</ele><time>2026-05-05T05:15:23.000Z</time></trkpt>
        <trkpt lat="29.5499781" lon="103.3677984"><ele>1339.37</ele><time>2026-05-05T05:15:43.000Z</time></trkpt>
        <trkpt lat="29.5500181" lon="103.3677359"><ele>1341.91</ele><time>2026-05-05T05:16:17.000Z</time></trkpt>
        <trkpt lat="29.5500674" lon="103.3676455"><ele>1345.4</ele><time>2026-05-05T05:16:43.000Z</time></trkpt>
        <trkpt lat="29.5501287" lon="103.3675591"><ele>1346.24</ele><time>2026-05-05T05:17:35.000Z</time></trkpt>
        <trkpt lat="29.550178" lon="103.3674752"><ele>1349.67</ele><time>2026-05-05T05:17:51.000Z</time></trkpt>
        <trkpt lat="29.5502108" lon="103.3673752"><ele>1353.23</ele><time>2026-05-05T05:18:19.000Z</time></trkpt>
        <trkpt lat="29.550149" lon="103.3673646"><ele>1356.32</ele><time>2026-05-05T05:19:15.000Z</time></trkpt>
        <trkpt lat="29.5500872" lon="103.3672895"><ele>1364.28</ele><time>2026-05-05T05:20:23.000Z</time></trkpt>
        <trkpt lat="29.550133" lon="103.3671873"><ele>1369.03</ele><time>2026-05-05T05:20:43.000Z</time></trkpt>
        <trkpt lat="29.5501773" lon="103.3670915"><ele>1372.57</ele><time>2026-05-05T05:21:03.000Z</time></trkpt>
        <trkpt lat="29.5502202" lon="103.3669899"><ele>1377.08</ele><time>2026-05-05T05:21:17.000Z</time></trkpt>
        <trkpt lat="29.5502883" lon="103.3669127"><ele>1381.88</ele><time>2026-05-05T05:21:33.000Z</time></trkpt>
        <trkpt lat="29.5502648" lon="103.3668201"><ele>1385.63</ele><time>2026-05-05T05:22:01.000Z</time></trkpt>
        <trkpt lat="29.5501727" lon="103.3667875"><ele>1391.61</ele><time>2026-05-05T05:22:47.000Z</time></trkpt>
        <trkpt lat="29.5501223" lon="103.3667625"><ele>1396.78</ele><time>2026-05-05T05:23:03.000Z</time></trkpt>
        <trkpt lat="29.5500573" lon="103.366708"><ele>1401.14</ele><time>2026-05-05T05:23:31.000Z</time></trkpt>
        <trkpt lat="29.5500415" lon="103.3666961"><ele>1405.07</ele><time>2026-05-05T05:23:33.000Z</time></trkpt>
        <trkpt lat="29.549988" lon="103.3666487"><ele>1407.36</ele><time>2026-05-05T05:24:13.000Z</time></trkpt>
        <trkpt lat="29.5499094" lon="103.3666027"><ele>1408.55</ele><time>2026-05-05T05:24:53.000Z</time></trkpt>
        <trkpt lat="29.5498225" lon="103.366621"><ele>1413.54</ele><time>2026-05-05T05:25:19.000Z</time></trkpt>
        <trkpt lat="29.5497248" lon="103.3666477"><ele>1418.02</ele><time>2026-05-05T05:25:43.000Z</time></trkpt>
        <trkpt lat="29.5496514" lon="103.3665953"><ele>1421.57</ele><time>2026-05-05T05:26:27.000Z</time></trkpt>
        <trkpt lat="29.5495665" lon="103.3665569"><ele>1424.16</ele><time>2026-05-05T05:26:51.000Z</time></trkpt>
        <trkpt lat="29.5494765" lon="103.3665083"><ele>1426.92</ele><time>2026-05-05T05:27:41.000Z</time></trkpt>
        <trkpt lat="29.5494116" lon="103.3664528"><ele>1433.07</ele><time>2026-05-05T05:28:01.000Z</time></trkpt>
        <trkpt lat="29.5493797" lon="103.3663565"><ele>1438.75</ele><time>2026-05-05T05:28:53.000Z</time></trkpt>
        <trkpt lat="29.5494736" lon="103.3662603"><ele>1444.09</ele><time>2026-05-05T05:29:55.000Z</time></trkpt>
        <trkpt lat="29.5495421" lon="103.3661868"><ele>1448.71</ele><time>2026-05-05T05:30:05.000Z</time></trkpt>
        <trkpt lat="29.54961" lon="103.3660997"><ele>1452.93</ele><time>2026-05-05T05:30:21.000Z</time></trkpt>
        <trkpt lat="29.5496958" lon="103.366046"><ele>1455.46</ele><time>2026-05-05T05:30:31.000Z</time></trkpt>
        <trkpt lat="29.5496921" lon="103.3659544"><ele>1456.38</ele><time>2026-05-05T05:30:47.000Z</time></trkpt>
        <trkpt lat="29.5496685" lon="103.3658518"><ele>1458.76</ele><time>2026-05-05T05:31:05.000Z</time></trkpt>
        <trkpt lat="29.5496117" lon="103.3657602"><ele>1459.82</ele><time>2026-05-05T05:31:27.000Z</time></trkpt>
        <trkpt lat="29.5495872" lon="103.3656593"><ele>1461.61</ele><time>2026-05-05T05:31:41.000Z</time></trkpt>
        <trkpt lat="29.5495175" lon="103.3655924"><ele>1464.04</ele><time>2026-05-05T05:31:55.000Z</time></trkpt>
        <trkpt lat="29.5494922" lon="103.3655"><ele>1465.8</ele><time>2026-05-05T05:32:05.000Z</time></trkpt>
        <trkpt lat="29.549548" lon="103.3654222"><ele>1466.22</ele><time>2026-05-05T05:32:13.000Z</time></trkpt>
        <trkpt lat="29.5496389" lon="103.3653412"><ele>1465.63</ele><time>2026-05-05T05:32:23.000Z</time></trkpt>
        <trkpt lat="29.5497162" lon="103.3652496"><ele>1465.13</ele><time>2026-05-05T05:32:33.000Z</time></trkpt>
        <trkpt lat="29.5497759" lon="103.3651606"><ele>1465.35</ele><time>2026-05-05T05:32:41.000Z</time></trkpt>
        <trkpt lat="29.5498367" lon="103.3650809"><ele>1465.27</ele><time>2026-05-05T05:32:49.000Z</time></trkpt>
        <trkpt lat="29.5498944" lon="103.3649832"><ele>1465.2</ele><time>2026-05-05T05:32:59.000Z</time></trkpt>
        <trkpt lat="29.5499276" lon="103.3648822"><ele>1466.22</ele><time>2026-05-05T05:33:07.000Z</time></trkpt>
        <trkpt lat="29.5499971" lon="103.3648206"><ele>1467.41</ele><time>2026-05-05T05:33:17.000Z</time></trkpt>
        <trkpt lat="29.5500485" lon="103.3647379"><ele>1468.13</ele><time>2026-05-05T05:33:27.000Z</time></trkpt>
        <trkpt lat="29.5500654" lon="103.3646306"><ele>1469.1</ele><time>2026-05-05T05:33:37.000Z</time></trkpt>
        <trkpt lat="29.5500716" lon="103.3645187"><ele>1469.78</ele><time>2026-05-05T05:33:47.000Z</time></trkpt>
        <trkpt lat="29.5501275" lon="103.3644379"><ele>1470.09</ele><time>2026-05-05T05:33:57.000Z</time></trkpt>
        <trkpt lat="29.5502045" lon="103.3643596"><ele>1469</ele><time>2026-05-05T05:34:07.000Z</time></trkpt>
        <trkpt lat="29.5502786" lon="103.3642847"><ele>1468.04</ele><time>2026-05-05T05:34:17.000Z</time></trkpt>
        <trkpt lat="29.5503224" lon="103.3641942"><ele>1467.98</ele><time>2026-05-05T05:34:27.000Z</time></trkpt>
        <trkpt lat="29.5503519" lon="103.3640934"><ele>1468.5</ele><time>2026-05-05T05:34:41.000Z</time></trkpt>
        <trkpt lat="29.5503776" lon="103.363992"><ele>1469.22</ele><time>2026-05-05T05:35:07.000Z</time></trkpt>
        <trkpt lat="29.5504534" lon="103.3639897"><ele>1470.16</ele><time>2026-05-05T05:35:49.000Z</time></trkpt>
        <trkpt lat="29.5504751" lon="103.3639204"><ele>1471.94</ele><time>2026-05-05T05:36:11.000Z</time></trkpt>
        <trkpt lat="29.5504774" lon="103.3638216"><ele>1474.15</ele><time>2026-05-05T05:36:25.000Z</time></trkpt>
        <trkpt lat="29.5505517" lon="103.363785"><ele>1477</ele><time>2026-05-05T05:36:39.000Z</time></trkpt>
        <trkpt lat="29.5506369" lon="103.3637432"><ele>1480.13</ele><time>2026-05-05T05:36:49.000Z</time></trkpt>
        <trkpt lat="29.5507216" lon="103.3636919"><ele>1482.92</ele><time>2026-05-05T05:36:59.000Z</time></trkpt>
        <trkpt lat="29.5508001" lon="103.3636209"><ele>1484.75</ele><time>2026-05-05T05:37:09.000Z</time></trkpt>
        <trkpt lat="29.5507955" lon="103.3635264"><ele>1485.57</ele><time>2026-05-05T05:37:17.000Z</time></trkpt>
        <trkpt lat="29.5507398" lon="103.36342"><ele>1486.2</ele><time>2026-05-05T05:37:27.000Z</time></trkpt>
        <trkpt lat="29.5506891" lon="103.363317"><ele>1486.7</ele><time>2026-05-05T05:37:51.000Z</time></trkpt>
        <trkpt lat="29.5507466" lon="103.3633004"><ele>1490.57</ele><time>2026-05-05T05:38:15.000Z</time></trkpt>
        <trkpt lat="29.5507541" lon="103.3632279"><ele>1494.87</ele><time>2026-05-05T05:39:03.000Z</time></trkpt>
        <trkpt lat="29.5507133" lon="103.3631452"><ele>1499.35</ele><time>2026-05-05T05:39:25.000Z</time></trkpt>
        <trkpt lat="29.5507073" lon="103.3630377"><ele>1504.41</ele><time>2026-05-05T05:40:05.000Z</time></trkpt>
        <trkpt lat="29.550776" lon="103.3630401"><ele>1507.52</ele><time>2026-05-05T05:40:49.000Z</time></trkpt>
        <trkpt lat="29.5507741" lon="103.3629783"><ele>1511.41</ele><time>2026-05-05T05:41:27.000Z</time></trkpt>
        <trkpt lat="29.5507002" lon="103.3629534"><ele>1517.34</ele><time>2026-05-05T05:41:59.000Z</time></trkpt>
        <trkpt lat="29.5506018" lon="103.3629584"><ele>1523.37</ele><time>2026-05-05T05:42:27.000Z</time></trkpt>
        <trkpt lat="29.5505516" lon="103.3628822"><ele>1528.11</ele><time>2026-05-05T05:42:49.000Z</time></trkpt>
        <trkpt lat="29.5505738" lon="103.3627836"><ele>1531.89</ele><time>2026-05-05T05:43:17.000Z</time></trkpt>
        <trkpt lat="29.5506176" lon="103.3626819"><ele>1534.6</ele><time>2026-05-05T05:43:43.000Z</time></trkpt>
        <trkpt lat="29.5506487" lon="103.3625765"><ele>1538.03</ele><time>2026-05-05T05:44:29.000Z</time></trkpt>
        <trkpt lat="29.5506551" lon="103.3624695"><ele>1541.58</ele><time>2026-05-05T05:44:57.000Z</time></trkpt>
        <trkpt lat="29.5506447" lon="103.3623608"><ele>1547.17</ele><time>2026-05-05T05:46:17.000Z</time></trkpt>
        <trkpt lat="29.5506209" lon="103.3622583"><ele>1554.02</ele><time>2026-05-05T05:46:47.000Z</time></trkpt>
        <trkpt lat="29.5505688" lon="103.3621702"><ele>1558.05</ele><time>2026-05-05T05:47:31.000Z</time></trkpt>
        <trkpt lat="29.5505571" lon="103.3620702"><ele>1563.43</ele><time>2026-05-05T05:47:55.000Z</time></trkpt>
        <trkpt lat="29.5505678" lon="103.3619625"><ele>1568.06</ele><time>2026-05-05T05:48:27.000Z</time></trkpt>
        <trkpt lat="29.5505587" lon="103.3618579"><ele>1571.94</ele><time>2026-05-05T05:49:19.000Z</time></trkpt>
        <trkpt lat="29.5505135" lon="103.361771"><ele>1577.65</ele><time>2026-05-05T05:49:49.000Z</time></trkpt>
        <trkpt lat="29.5504561" lon="103.3616857"><ele>1582.82</ele><time>2026-05-05T05:50:17.000Z</time></trkpt>
        <trkpt lat="29.5503716" lon="103.3616333"><ele>1586.78</ele><time>2026-05-05T05:50:47.000Z</time></trkpt>
        <trkpt lat="29.5503758" lon="103.3615538"><ele>1590.56</ele><time>2026-05-05T05:51:05.000Z</time></trkpt>
        <trkpt lat="29.5503262" lon="103.3614931"><ele>1592.56</ele><time>2026-05-05T05:52:01.000Z</time></trkpt>
        <trkpt lat="29.5502701" lon="103.3614171"><ele>1597.63</ele><time>2026-05-05T05:52:15.000Z</time></trkpt>
        <trkpt lat="29.550204" lon="103.3613383"><ele>1601.33</ele><time>2026-05-05T05:53:23.000Z</time></trkpt>
        <trkpt lat="29.5501113" lon="103.3613106"><ele>1606.53</ele><time>2026-05-05T05:53:45.000Z</time></trkpt>
        <trkpt lat="29.5500307" lon="103.3612572"><ele>1610.02</ele><time>2026-05-05T05:53:57.000Z</time></trkpt>
        <trkpt lat="29.5499398" lon="103.3612254"><ele>1612.5</ele><time>2026-05-05T05:54:07.000Z</time></trkpt>
        <trkpt lat="29.5498877" lon="103.3611346"><ele>1614.37</ele><time>2026-05-05T05:54:17.000Z</time></trkpt>
        <trkpt lat="29.5498681" lon="103.3610188"><ele>1616.3</ele><time>2026-05-05T05:54:29.000Z</time></trkpt>
        <trkpt lat="29.5498232" lon="103.3609053"><ele>1619.19</ele><time>2026-05-05T05:54:43.000Z</time></trkpt>
        <trkpt lat="29.5498043" lon="103.3607918"><ele>1622.27</ele><time>2026-05-05T05:54:55.000Z</time></trkpt>
        <trkpt lat="29.5498474" lon="103.3607024"><ele>1621.99</ele><time>2026-05-05T05:55:05.000Z</time></trkpt>
        <trkpt lat="29.5499017" lon="103.3606118"><ele>1621.25</ele><time>2026-05-05T05:55:17.000Z</time></trkpt>
        <trkpt lat="29.5499493" lon="103.360517"><ele>1619.36</ele><time>2026-05-05T05:55:29.000Z</time></trkpt>
        <trkpt lat="29.550007" lon="103.3604294"><ele>1617.52</ele><time>2026-05-05T05:55:41.000Z</time></trkpt>
        <trkpt lat="29.5500528" lon="103.3603174"><ele>1615.37</ele><time>2026-05-05T05:55:53.000Z</time></trkpt>
        <trkpt lat="29.5501" lon="103.360217"><ele>1613.23</ele><time>2026-05-05T05:56:03.000Z</time></trkpt>
        <trkpt lat="29.5501455" lon="103.360117"><ele>1612.1</ele><time>2026-05-05T05:56:23.000Z</time></trkpt>
        <trkpt lat="29.5501372" lon="103.360017"><ele>1612.97</ele><time>2026-05-05T05:56:37.000Z</time></trkpt>
        <trkpt lat="29.5500885" lon="103.3599231"><ele>1614.47</ele><time>2026-05-05T05:57:15.000Z</time></trkpt>
        <trkpt lat="29.5500375" lon="103.3598254"><ele>1617.96</ele><time>2026-05-05T05:58:09.000Z</time></trkpt>
        <trkpt lat="29.5499828" lon="103.3597303"><ele>1623.09</ele><time>2026-05-05T06:00:09.000Z</time></trkpt>
        <trkpt lat="29.5499355" lon="103.3596371"><ele>1627.85</ele><time>2026-05-05T06:00:27.000Z</time></trkpt>
        <trkpt lat="29.549881" lon="103.3595469"><ele>1630.77</ele><time>2026-05-05T06:00:49.000Z</time></trkpt>
        <trkpt lat="29.5498583" lon="103.3594418"><ele>1633.15</ele><time>2026-05-05T06:01:11.000Z</time></trkpt>
        <trkpt lat="29.5498516" lon="103.3593284"><ele>1636.21</ele><time>2026-05-05T06:01:35.000Z</time></trkpt>
        <trkpt lat="29.5499362" lon="103.3592916"><ele>1638.63</ele><time>2026-05-05T06:01:53.000Z</time></trkpt>
        <trkpt lat="29.5500234" lon="103.3592391"><ele>1641.86</ele><time>2026-05-05T06:02:11.000Z</time></trkpt>
        <trkpt lat="29.5501027" lon="103.3591639"><ele>1644.42</ele><time>2026-05-05T06:02:31.000Z</time></trkpt>
        <trkpt lat="29.5502047" lon="103.3591358"><ele>1647.9</ele><time>2026-05-05T06:02:55.000Z</time></trkpt>
        <trkpt lat="29.5502928" lon="103.3590923"><ele>1652.53</ele><time>2026-05-05T06:03:07.000Z</time></trkpt>
        <trkpt lat="29.550299" lon="103.3590051"><ele>1653.18</ele><time>2026-05-05T06:03:15.000Z</time></trkpt>
        <trkpt lat="29.5502669" lon="103.3588932"><ele>1652.56</ele><time>2026-05-05T06:03:27.000Z</time></trkpt>
        <trkpt lat="29.5502755" lon="103.3587765"><ele>1651.8</ele><time>2026-05-05T06:04:29.000Z</time></trkpt>
        <trkpt lat="29.5502577" lon="103.3586749"><ele>1654.12</ele><time>2026-05-05T06:04:47.000Z</time></trkpt>
        <trkpt lat="29.5502781" lon="103.3585755"><ele>1656.67</ele><time>2026-05-05T06:05:03.000Z</time></trkpt>
        <trkpt lat="29.5503182" lon="103.3584717"><ele>1659.99</ele><time>2026-05-05T06:05:39.000Z</time></trkpt>
        <trkpt lat="29.5503576" lon="103.3584374"><ele>1663.52</ele><time>2026-05-05T06:06:02.000Z</time></trkpt>
        <trkpt lat="29.5503408" lon="103.3583602"><ele>1667.04</ele><time>2026-05-05T06:06:21.000Z</time></trkpt>
        <trkpt lat="29.5503019" lon="103.3582648"><ele>1668.01</ele><time>2026-05-05T06:06:31.000Z</time></trkpt>
        <trkpt lat="29.5502749" lon="103.3581518"><ele>1668.12</ele><time>2026-05-05T06:06:43.000Z</time></trkpt>
        <trkpt lat="29.550289" lon="103.3580456"><ele>1668.02</ele><time>2026-05-05T06:06:57.000Z</time></trkpt>
        <trkpt lat="29.5503179" lon="103.3579304"><ele>1668.97</ele><time>2026-05-05T06:07:13.000Z</time></trkpt>
        <trkpt lat="29.5503663" lon="103.3578285"><ele>1670.99</ele><time>2026-05-05T06:07:29.000Z</time></trkpt>
        <trkpt lat="29.5504035" lon="103.3577269"><ele>1673.32</ele><time>2026-05-05T06:07:51.000Z</time></trkpt>
        <trkpt lat="29.5504093" lon="103.3576143"><ele>1677.24</ele><time>2026-05-05T06:08:11.000Z</time></trkpt>
        <trkpt lat="29.5503989" lon="103.357498"><ele>1681.35</ele><time>2026-05-05T06:08:25.000Z</time></trkpt>
        <trkpt lat="29.5503822" lon="103.3573839"><ele>1683.94</ele><time>2026-05-05T06:08:37.000Z</time></trkpt>
        <trkpt lat="29.5503783" lon="103.3572753"><ele>1685.49</ele><time>2026-05-05T06:09:01.000Z</time></trkpt>
        <trkpt lat="29.5503967" lon="103.3571713"><ele>1687.14</ele><time>2026-05-05T06:09:21.000Z</time></trkpt>
        <trkpt lat="29.5503873" lon="103.3570659"><ele>1690.41</ele><time>2026-05-05T06:09:43.000Z</time></trkpt>
        <trkpt lat="29.5503533" lon="103.356977"><ele>1692.67</ele><time>2026-05-05T06:09:53.000Z</time></trkpt>
        <trkpt lat="29.5502768" lon="103.3569188"><ele>1693.75</ele><time>2026-05-05T06:10:09.000Z</time></trkpt>
        <trkpt lat="29.5502487" lon="103.3569114"><ele>1695.77</ele><time>2026-05-05T06:10:15.000Z</time></trkpt>
        <trkpt lat="29.5501638" lon="103.3569239"><ele>1697.39</ele><time>2026-05-05T06:11:01.000Z</time></trkpt>
        <trkpt lat="29.5500658" lon="103.3569528"><ele>1698.97</ele><time>2026-05-05T06:11:09.000Z</time></trkpt>
        <trkpt lat="29.5499769" lon="103.3569223"><ele>1699.07</ele><time>2026-05-05T06:11:21.000Z</time></trkpt>
        <trkpt lat="29.5499534" lon="103.356881"><ele>1700.46</ele><time>2026-05-05T06:11:29.000Z</time></trkpt>
        <trkpt lat="29.5500279" lon="103.356959"><ele>1700.48</ele><time>2026-05-05T06:20:33.000Z</time></trkpt>
        <trkpt lat="29.5500779" lon="103.3570498"><ele>1700.46</ele><time>2026-05-05T06:20:45.000Z</time></trkpt>
        <trkpt lat="29.5499803" lon="103.3569879"><ele>1701.39</ele><time>2026-05-05T06:43:31.000Z</time></trkpt>
        <trkpt lat="29.5499553" lon="103.3568679"><ele>1703.73</ele><time>2026-05-05T06:43:41.000Z</time></trkpt>
        <trkpt lat="29.5499626" lon="103.356847"><ele>1703.53</ele><time>2026-05-05T06:43:45.000Z</time></trkpt>
        <trkpt lat="29.5500556" lon="103.3569076"><ele>1703.59</ele><time>2026-05-05T06:45:41.000Z</time></trkpt>
        <trkpt lat="29.5499622" lon="103.3568782"><ele>1702.1</ele><time>2026-05-05T06:45:51.000Z</time></trkpt>
        <trkpt lat="29.5499569" lon="103.3567853"><ele>1701.42</ele><time>2026-05-05T06:46:01.000Z</time></trkpt>
        <trkpt lat="29.5499489" lon="103.356674"><ele>1701.49</ele><time>2026-05-05T06:46:11.000Z</time></trkpt>
        <trkpt lat="29.5499437" lon="103.3565511"><ele>1701.66</ele><time>2026-05-05T06:47:27.000Z</time></trkpt>
        <trkpt lat="29.5499541" lon="103.3564799"><ele>1700.68</ele><time>2026-05-05T06:47:37.000Z</time></trkpt>
        <trkpt lat="29.5500049" lon="103.3564012"><ele>1699.26</ele><time>2026-05-05T06:48:37.000Z</time></trkpt>
        <trkpt lat="29.550069" lon="103.3563166"><ele>1699.59</ele><time>2026-05-05T06:48:49.000Z</time></trkpt>
        <trkpt lat="29.5501373" lon="103.3562326"><ele>1698.23</ele><time>2026-05-05T06:48:59.000Z</time></trkpt>
        <trkpt lat="29.550173" lon="103.3561185"><ele>1697.17</ele><time>2026-05-05T06:49:11.000Z</time></trkpt>
        <trkpt lat="29.5501985" lon="103.3560047"><ele>1694.47</ele><time>2026-05-05T06:49:21.000Z</time></trkpt>
        <trkpt lat="29.5502236" lon="103.3558948"><ele>1692.48</ele><time>2026-05-05T06:49:31.000Z</time></trkpt>
        <trkpt lat="29.5502709" lon="103.3557917"><ele>1691.42</ele><time>2026-05-05T06:49:43.000Z</time></trkpt>
        <trkpt lat="29.5503378" lon="103.3557093"><ele>1689.73</ele><time>2026-05-05T06:49:53.000Z</time></trkpt>
        <trkpt lat="29.5504341" lon="103.3556882"><ele>1688.69</ele><time>2026-05-05T06:50:05.000Z</time></trkpt>
        <trkpt lat="29.5505327" lon="103.3556926"><ele>1688.6</ele><time>2026-05-05T06:50:17.000Z</time></trkpt>
        <trkpt lat="29.5506274" lon="103.3557115"><ele>1687.13</ele><time>2026-05-05T06:50:29.000Z</time></trkpt>
        <trkpt lat="29.5507293" lon="103.355718"><ele>1686.19</ele><time>2026-05-05T06:50:41.000Z</time></trkpt>
        <trkpt lat="29.5508054" lon="103.3556964"><ele>1684.43</ele><time>2026-05-05T06:50:53.000Z</time></trkpt>
        <trkpt lat="29.5508853" lon="103.3556564"><ele>1682.59</ele><time>2026-05-05T06:51:11.000Z</time></trkpt>
        <trkpt lat="29.5509668" lon="103.3556055"><ele>1681.02</ele><time>2026-05-05T06:51:23.000Z</time></trkpt>
        <trkpt lat="29.5510589" lon="103.355564"><ele>1678.31</ele><time>2026-05-05T06:51:35.000Z</time></trkpt>
        <trkpt lat="29.5511457" lon="103.3555135"><ele>1675.74</ele><time>2026-05-05T06:52:09.000Z</time></trkpt>
        <trkpt lat="29.5512236" lon="103.3554495"><ele>1672.75</ele><time>2026-05-05T06:52:23.000Z</time></trkpt>
        <trkpt lat="29.5512921" lon="103.3553731"><ele>1670.36</ele><time>2026-05-05T06:52:39.000Z</time></trkpt>
        <trkpt lat="29.5513265" lon="103.3552637"><ele>1668.11</ele><time>2026-05-05T06:52:55.000Z</time></trkpt>
        <trkpt lat="29.5513612" lon="103.3551569"><ele>1665.55</ele><time>2026-05-05T06:53:09.000Z</time></trkpt>
        <trkpt lat="29.5514287" lon="103.3550836"><ele>1663.07</ele><time>2026-05-05T06:53:23.000Z</time></trkpt>
        <trkpt lat="29.5514769" lon="103.3549874"><ele>1663.98</ele><time>2026-05-05T06:53:35.000Z</time></trkpt>
        <trkpt lat="29.5515125" lon="103.3548799"><ele>1661.39</ele><time>2026-05-05T06:53:47.000Z</time></trkpt>
        <trkpt lat="29.5515397" lon="103.3547746"><ele>1657.25</ele><time>2026-05-05T06:53:59.000Z</time></trkpt>
        <trkpt lat="29.5515733" lon="103.3546745"><ele>1653.17</ele><time>2026-05-05T06:54:11.000Z</time></trkpt>
        <trkpt lat="29.5516149" lon="103.3545772"><ele>1649.71</ele><time>2026-05-05T06:54:25.000Z</time></trkpt>
        <trkpt lat="29.5516758" lon="103.3545002"><ele>1646.94</ele><time>2026-05-05T06:54:35.000Z</time></trkpt>
        <trkpt lat="29.5517523" lon="103.3544214"><ele>1646.09</ele><time>2026-05-05T06:54:47.000Z</time></trkpt>
        <trkpt lat="29.5518094" lon="103.3543248"><ele>1645.67</ele><time>2026-05-05T06:54:59.000Z</time></trkpt>
        <trkpt lat="29.5517944" lon="103.3542205"><ele>1645.93</ele><time>2026-05-05T06:55:13.000Z</time></trkpt>
        <trkpt lat="29.551829" lon="103.3541363"><ele>1642.95</ele><time>2026-05-05T06:55:23.000Z</time></trkpt>
        <trkpt lat="29.5519018" lon="103.3540875"><ele>1639.99</ele><time>2026-05-05T06:55:31.000Z</time></trkpt>
        <trkpt lat="29.5519482" lon="103.3539982"><ele>1638.14</ele><time>2026-05-05T06:55:43.000Z</time></trkpt>
        <trkpt lat="29.5519101" lon="103.3539087"><ele>1636.25</ele><time>2026-05-05T06:55:55.000Z</time></trkpt>
        <trkpt lat="29.5518416" lon="103.353825"><ele>1636.32</ele><time>2026-05-05T06:56:05.000Z</time></trkpt>
        <trkpt lat="29.5517718" lon="103.3537332"><ele>1636.16</ele><time>2026-05-05T06:56:15.000Z</time></trkpt>
        <trkpt lat="29.5516976" lon="103.3536322"><ele>1635.86</ele><time>2026-05-05T06:56:25.000Z</time></trkpt>
        <trkpt lat="29.5516618" lon="103.3535143"><ele>1636.65</ele><time>2026-05-05T06:56:35.000Z</time></trkpt>
        <trkpt lat="29.5516449" lon="103.3534031"><ele>1634.29</ele><time>2026-05-05T06:56:45.000Z</time></trkpt>
        <trkpt lat="29.5516635" lon="103.3532963"><ele>1633.28</ele><time>2026-05-05T06:56:57.000Z</time></trkpt>
        <trkpt lat="29.5517065" lon="103.3531873"><ele>1631.6</ele><time>2026-05-05T06:57:09.000Z</time></trkpt>
        <trkpt lat="29.5517426" lon="103.3530728"><ele>1629.46</ele><time>2026-05-05T06:57:23.000Z</time></trkpt>
        <trkpt lat="29.5517599" lon="103.3529537"><ele>1628.42</ele><time>2026-05-05T06:57:37.000Z</time></trkpt>
        <trkpt lat="29.5518033" lon="103.3528594"><ele>1624.66</ele><time>2026-05-05T06:57:51.000Z</time></trkpt>
        <trkpt lat="29.5518779" lon="103.3527764"><ele>1623.7</ele><time>2026-05-05T06:58:55.000Z</time></trkpt>
        <trkpt lat="29.5519378" lon="103.3526968"><ele>1621.67</ele><time>2026-05-05T06:59:09.000Z</time></trkpt>
        <trkpt lat="29.5520241" lon="103.3526675"><ele>1619.12</ele><time>2026-05-05T06:59:27.000Z</time></trkpt>
        <trkpt lat="29.5521147" lon="103.3526769"><ele>1613.88</ele><time>2026-05-05T06:59:47.000Z</time></trkpt>
        <trkpt lat="29.552211" lon="103.3526944"><ele>1609.14</ele><time>2026-05-05T07:00:03.000Z</time></trkpt>
        <trkpt lat="29.5522009" lon="103.3526175"><ele>1605.15</ele><time>2026-05-05T07:00:27.000Z</time></trkpt>
        <trkpt lat="29.5521669" lon="103.3525145"><ele>1599.68</ele><time>2026-05-05T07:00:47.000Z</time></trkpt>
        <trkpt lat="29.5521755" lon="103.3524039"><ele>1596.32</ele><time>2026-05-05T07:01:03.000Z</time></trkpt>
        <trkpt lat="29.552172" lon="103.3522889"><ele>1592.81</ele><time>2026-05-05T07:01:27.000Z</time></trkpt>
        <trkpt lat="29.5522395" lon="103.3522396"><ele>1585.35</ele><time>2026-05-05T07:01:37.000Z</time></trkpt>
        <trkpt lat="29.5523359" lon="103.3521939"><ele>1580.77</ele><time>2026-05-05T07:01:53.000Z</time></trkpt>
        <trkpt lat="29.5523906" lon="103.3521916"><ele>1578.12</ele><time>2026-05-05T07:02:05.000Z</time></trkpt>
        <trkpt lat="29.5524098" lon="103.3522908"><ele>1577.16</ele><time>2026-05-05T07:02:29.000Z</time></trkpt>
        <trkpt lat="29.552465" lon="103.3523855"><ele>1573.84</ele><time>2026-05-05T07:02:43.000Z</time></trkpt>
        <trkpt lat="29.552553" lon="103.3524396"><ele>1573.7</ele><time>2026-05-05T07:02:57.000Z</time></trkpt>
        <trkpt lat="29.552654" lon="103.3524418"><ele>1576.39</ele><time>2026-05-05T07:03:31.000Z</time></trkpt>
        <trkpt lat="29.5527017" lon="103.3523551"><ele>1580.77</ele><time>2026-05-05T07:03:43.000Z</time></trkpt>
        <trkpt lat="29.5527866" lon="103.3523311"><ele>1580.77</ele><time>2026-05-05T07:03:57.000Z</time></trkpt>
        <trkpt lat="29.5528786" lon="103.3523555"><ele>1579.91</ele><time>2026-05-05T07:04:09.000Z</time></trkpt>
        <trkpt lat="29.5529693" lon="103.3524052"><ele>1580.38</ele><time>2026-05-05T07:04:25.000Z</time></trkpt>
        <trkpt lat="29.5530077" lon="103.3525015"><ele>1580.72</ele><time>2026-05-05T07:04:33.000Z</time></trkpt>
        <trkpt lat="29.5530248" lon="103.3526159"><ele>1581.21</ele><time>2026-05-05T07:04:45.000Z</time></trkpt>
        <trkpt lat="29.5530801" lon="103.3526954"><ele>1584.15</ele><time>2026-05-05T07:04:59.000Z</time></trkpt>
        <trkpt lat="29.5531712" lon="103.3527036"><ele>1587.63</ele><time>2026-05-05T07:05:09.000Z</time></trkpt>
        <trkpt lat="29.5532347" lon="103.3526964"><ele>1589.55</ele><time>2026-05-05T07:05:19.000Z</time></trkpt>
        <trkpt lat="29.5533257" lon="103.3526967"><ele>1590.6</ele><time>2026-05-05T07:06:13.000Z</time></trkpt>
        <trkpt lat="29.5534037" lon="103.3526382"><ele>1592.95</ele><time>2026-05-05T07:06:23.000Z</time></trkpt>
        <trkpt lat="29.5534875" lon="103.3525762"><ele>1594.66</ele><time>2026-05-05T07:06:35.000Z</time></trkpt>
        <trkpt lat="29.5535778" lon="103.352551"><ele>1591.52</ele><time>2026-05-05T07:06:43.000Z</time></trkpt>
        <trkpt lat="29.5536685" lon="103.3525254"><ele>1590.11</ele><time>2026-05-05T07:06:53.000Z</time></trkpt>
        <trkpt lat="29.553756" lon="103.3524835"><ele>1588.86</ele><time>2026-05-05T07:07:01.000Z</time></trkpt>
        <trkpt lat="29.5538515" lon="103.3524864"><ele>1587.44</ele><time>2026-05-05T07:07:11.000Z</time></trkpt>
        <trkpt lat="29.5539239" lon="103.3525679"><ele>1586.56</ele><time>2026-05-05T07:07:23.000Z</time></trkpt>
        <trkpt lat="29.5540001" lon="103.3526344"><ele>1587.58</ele><time>2026-05-05T07:07:39.000Z</time></trkpt>
        <trkpt lat="29.5540842" lon="103.3526217"><ele>1588.88</ele><time>2026-05-05T07:07:53.000Z</time></trkpt>
        <trkpt lat="29.5541778" lon="103.3526305"><ele>1588.63</ele><time>2026-05-05T07:08:05.000Z</time></trkpt>
        <trkpt lat="29.5542631" lon="103.3526824"><ele>1591.12</ele><time>2026-05-05T07:08:15.000Z</time></trkpt>
        <trkpt lat="29.5543535" lon="103.352704"><ele>1593.12</ele><time>2026-05-05T07:08:25.000Z</time></trkpt>
        <trkpt lat="29.5544463" lon="103.3527178"><ele>1594.23</ele><time>2026-05-05T07:08:37.000Z</time></trkpt>
        <trkpt lat="29.5545111" lon="103.3527881"><ele>1594.12</ele><time>2026-05-05T07:08:51.000Z</time></trkpt>
        <trkpt lat="29.5545153" lon="103.352904"><ele>1592.97</ele><time>2026-05-05T07:09:03.000Z</time></trkpt>
        <trkpt lat="29.5545127" lon="103.3530197"><ele>1593.02</ele><time>2026-05-05T07:09:15.000Z</time></trkpt>
        <trkpt lat="29.5545449" lon="103.3531269"><ele>1594.25</ele><time>2026-05-05T07:10:39.000Z</time></trkpt>
        <trkpt lat="29.5546452" lon="103.353121"><ele>1595.6</ele><time>2026-05-05T07:11:01.000Z</time></trkpt>
        <trkpt lat="29.5546749" lon="103.3532221"><ele>1595.06</ele><time>2026-05-05T07:11:11.000Z</time></trkpt>
        <trkpt lat="29.554664" lon="103.3533385"><ele>1595.49</ele><time>2026-05-05T07:11:21.000Z</time></trkpt>
        <trkpt lat="29.5546472" lon="103.3534573"><ele>1601.08</ele><time>2026-05-05T07:11:39.000Z</time></trkpt>
        <trkpt lat="29.5546352" lon="103.3535693"><ele>1608.14</ele><time>2026-05-05T07:11:53.000Z</time></trkpt>
        <trkpt lat="29.5546547" lon="103.3536762"><ele>1612.96</ele><time>2026-05-05T07:12:11.000Z</time></trkpt>
        <trkpt lat="29.5547363" lon="103.3537252"><ele>1614.94</ele><time>2026-05-05T07:12:19.000Z</time></trkpt>
        <trkpt lat="29.5548395" lon="103.3537438"><ele>1616.45</ele><time>2026-05-05T07:12:29.000Z</time></trkpt>
        <trkpt lat="29.5549469" lon="103.35372"><ele>1617</ele><time>2026-05-05T07:12:41.000Z</time></trkpt>
        <trkpt lat="29.5549778" lon="103.3536816"><ele>1616.22</ele><time>2026-05-05T07:12:45.000Z</time></trkpt>
        <trkpt lat="29.5549888" lon="103.3535858"><ele>1615.27</ele><time>2026-05-05T07:12:57.000Z</time></trkpt>
        <trkpt lat="29.5550435" lon="103.3535036"><ele>1613.52</ele><time>2026-05-05T07:13:19.000Z</time></trkpt>
        <trkpt lat="29.5551118" lon="103.3534244"><ele>1610.54</ele><time>2026-05-05T07:13:35.000Z</time></trkpt>
        <trkpt lat="29.5551264" lon="103.3534059"><ele>1606.65</ele><time>2026-05-05T07:13:37.000Z</time></trkpt>
        <trkpt lat="29.5551915" lon="103.3533676"><ele>1604.37</ele><time>2026-05-05T07:13:53.000Z</time></trkpt>
        <trkpt lat="29.5552891" lon="103.3533438"><ele>1602.12</ele><time>2026-05-05T07:14:05.000Z</time></trkpt>
        <trkpt lat="29.5553904" lon="103.3533294"><ele>1599.58</ele><time>2026-05-05T07:14:13.000Z</time></trkpt>
        <trkpt lat="29.5554976" lon="103.3533215"><ele>1598.51</ele><time>2026-05-05T07:14:25.000Z</time></trkpt>
        <trkpt lat="29.5555268" lon="103.3533182"><ele>1598</ele><time>2026-05-05T07:14:27.000Z</time></trkpt>
        <trkpt lat="29.5555971" lon="103.3532783"><ele>1597.32</ele><time>2026-05-05T07:14:43.000Z</time></trkpt>
        <trkpt lat="29.5556941" lon="103.3532816"><ele>1595.32</ele><time>2026-05-05T07:14:55.000Z</time></trkpt>
        <trkpt lat="29.555786" lon="103.3533143"><ele>1594.07</ele><time>2026-05-05T07:15:05.000Z</time></trkpt>
        <trkpt lat="29.5558779" lon="103.3533718"><ele>1591.68</ele><time>2026-05-05T07:15:15.000Z</time></trkpt>
        <trkpt lat="29.5559742" lon="103.3534308"><ele>1590.3</ele><time>2026-05-05T07:15:25.000Z</time></trkpt>
        <trkpt lat="29.5560749" lon="103.3534743"><ele>1588.91</ele><time>2026-05-05T07:15:35.000Z</time></trkpt>
        <trkpt lat="29.556179" lon="103.3534977"><ele>1588.98</ele><time>2026-05-05T07:15:47.000Z</time></trkpt>
        <trkpt lat="29.5562748" lon="103.3534946"><ele>1589.52</ele><time>2026-05-05T07:16:05.000Z</time></trkpt>
        <trkpt lat="29.5563407" lon="103.3534279"><ele>1591.52</ele><time>2026-05-05T07:16:21.000Z</time></trkpt>
        <trkpt lat="29.556387" lon="103.3533324"><ele>1592.39</ele><time>2026-05-05T07:16:33.000Z</time></trkpt>
        <trkpt lat="29.5564404" lon="103.3532262"><ele>1593.34</ele><time>2026-05-05T07:16:45.000Z</time></trkpt>
        <trkpt lat="29.5565114" lon="103.3531453"><ele>1594.09</ele><time>2026-05-05T07:16:55.000Z</time></trkpt>
        <trkpt lat="29.5565795" lon="103.3530609"><ele>1593.72</ele><time>2026-05-05T07:17:07.000Z</time></trkpt>
        <trkpt lat="29.5566563" lon="103.3529877"><ele>1592.16</ele><time>2026-05-05T07:17:19.000Z</time></trkpt>
        <trkpt lat="29.5567356" lon="103.3529317"><ele>1590.62</ele><time>2026-05-05T07:17:35.000Z</time></trkpt>
        <trkpt lat="29.5567989" lon="103.3528435"><ele>1588.85</ele><time>2026-05-05T07:17:51.000Z</time></trkpt>
        <trkpt lat="29.5568513" lon="103.3527412"><ele>1586.87</ele><time>2026-05-05T07:18:33.000Z</time></trkpt>
        <trkpt lat="29.556903" lon="103.3526482"><ele>1584.82</ele><time>2026-05-05T07:18:43.000Z</time></trkpt>
        <trkpt lat="29.5569571" lon="103.352562"><ele>1582.84</ele><time>2026-05-05T07:19:01.000Z</time></trkpt>
        <trkpt lat="29.5570312" lon="103.3524993"><ele>1580.73</ele><time>2026-05-05T07:19:13.000Z</time></trkpt>
        <trkpt lat="29.5571149" lon="103.3524407"><ele>1579.09</ele><time>2026-05-05T07:20:01.000Z</time></trkpt>
        <trkpt lat="29.5571768" lon="103.3523577"><ele>1577.73</ele><time>2026-05-05T07:20:15.000Z</time></trkpt>
        <trkpt lat="29.5572426" lon="103.3522782"><ele>1576.57</ele><time>2026-05-05T07:20:31.000Z</time></trkpt>
        <trkpt lat="29.5573019" lon="103.3521865"><ele>1574.13</ele><time>2026-05-05T07:20:45.000Z</time></trkpt>
        <trkpt lat="29.5573772" lon="103.3521135"><ele>1571.03</ele><time>2026-05-05T07:20:59.000Z</time></trkpt>
        <trkpt lat="29.557444" lon="103.3520299"><ele>1567.72</ele><time>2026-05-05T07:21:15.000Z</time></trkpt>
        <trkpt lat="29.5574874" lon="103.3519361"><ele>1565.53</ele><time>2026-05-05T07:21:29.000Z</time></trkpt>
        <trkpt lat="29.5574968" lon="103.3518318"><ele>1562.07</ele><time>2026-05-05T07:21:43.000Z</time></trkpt>
        <trkpt lat="29.5575191" lon="103.3517223"><ele>1558.72</ele><time>2026-05-05T07:21:59.000Z</time></trkpt>
        <trkpt lat="29.5575575" lon="103.3516255"><ele>1555.2</ele><time>2026-05-05T07:22:19.000Z</time></trkpt>
        <trkpt lat="29.5575657" lon="103.3515209"><ele>1552.26</ele><time>2026-05-05T07:22:41.000Z</time></trkpt>
        <trkpt lat="29.5576279" lon="103.3514535"><ele>1547.37</ele><time>2026-05-05T07:23:37.000Z</time></trkpt>
        <trkpt lat="29.5577345" lon="103.3514412"><ele>1544.49</ele><time>2026-05-05T07:24:41.000Z</time></trkpt>
        <trkpt lat="29.5578079" lon="103.3515096"><ele>1540.61</ele><time>2026-05-05T07:24:59.000Z</time></trkpt>
        <trkpt lat="29.5578821" lon="103.3515695"><ele>1541.67</ele><time>2026-05-05T07:25:13.000Z</time></trkpt>
        <trkpt lat="29.5579709" lon="103.3516291"><ele>1545.16</ele><time>2026-05-05T07:25:25.000Z</time></trkpt>
        <trkpt lat="29.5580564" lon="103.3516062"><ele>1549.46</ele><time>2026-05-05T07:25:41.000Z</time></trkpt>
        <trkpt lat="29.5581539" lon="103.3515658"><ele>1549.25</ele><time>2026-05-05T07:25:59.000Z</time></trkpt>
        <trkpt lat="29.558227" lon="103.3514889"><ele>1547.99</ele><time>2026-05-05T07:26:11.000Z</time></trkpt>
        <trkpt lat="29.5583226" lon="103.3514294"><ele>1544.59</ele><time>2026-05-05T07:26:31.000Z</time></trkpt>
        <trkpt lat="29.5584129" lon="103.3513823"><ele>1541.42</ele><time>2026-05-05T07:26:43.000Z</time></trkpt>
        <trkpt lat="29.5585049" lon="103.3513422"><ele>1538.63</ele><time>2026-05-05T07:26:59.000Z</time></trkpt>
        <trkpt lat="29.558594" lon="103.3512782"><ele>1536.1</ele><time>2026-05-05T07:27:11.000Z</time></trkpt>
        <trkpt lat="29.5586714" lon="103.351212"><ele>1534.59</ele><time>2026-05-05T07:27:21.000Z</time></trkpt>
        <trkpt lat="29.5587599" lon="103.3511696"><ele>1533.82</ele><time>2026-05-05T07:27:35.000Z</time></trkpt>
        <trkpt lat="29.5588507" lon="103.3511218"><ele>1532.03</ele><time>2026-05-05T07:27:51.000Z</time></trkpt>
        <trkpt lat="29.5589325" lon="103.3510696"><ele>1529.52</ele><time>2026-05-05T07:27:59.000Z</time></trkpt>
        <trkpt lat="29.5589967" lon="103.3509897"><ele>1529.56</ele><time>2026-05-05T07:28:15.000Z</time></trkpt>
        <trkpt lat="29.5590466" lon="103.3508996"><ele>1530.67</ele><time>2026-05-05T07:28:27.000Z</time></trkpt>
        <trkpt lat="29.5591103" lon="103.3508281"><ele>1531.21</ele><time>2026-05-05T07:28:37.000Z</time></trkpt>
        <trkpt lat="29.5591885" lon="103.3507655"><ele>1532.01</ele><time>2026-05-05T07:28:47.000Z</time></trkpt>
        <trkpt lat="29.5592819" lon="103.3507537"><ele>1530.85</ele><time>2026-05-05T07:29:01.000Z</time></trkpt>
        <trkpt lat="29.5593773" lon="103.3507194"><ele>1529.12</ele><time>2026-05-05T07:29:17.000Z</time></trkpt>
        <trkpt lat="29.5594511" lon="103.3506524"><ele>1526.87</ele><time>2026-05-05T07:29:35.000Z</time></trkpt>
        <trkpt lat="29.5595375" lon="103.3505958"><ele>1522.96</ele><time>2026-05-05T07:29:49.000Z</time></trkpt>
        <trkpt lat="29.5596098" lon="103.3505246"><ele>1520.18</ele><time>2026-05-05T07:30:01.000Z</time></trkpt>
        <trkpt lat="29.5596818" lon="103.3504577"><ele>1518.24</ele><time>2026-05-05T07:30:25.000Z</time></trkpt>
        <trkpt lat="29.5597684" lon="103.3504161"><ele>1517.85</ele><time>2026-05-05T07:30:43.000Z</time></trkpt>
        <trkpt lat="29.5598345" lon="103.3503419"><ele>1518.54</ele><time>2026-05-05T07:31:57.000Z</time></trkpt>
        <trkpt lat="29.559924" lon="103.350303"><ele>1524.06</ele><time>2026-05-05T07:33:01.000Z</time></trkpt>
        <trkpt lat="29.560016" lon="103.3503434"><ele>1531.82</ele><time>2026-05-05T07:33:25.000Z</time></trkpt>
        <trkpt lat="29.5600873" lon="103.3504202"><ele>1537.26</ele><time>2026-05-05T07:33:45.000Z</time></trkpt>
        <trkpt lat="29.5601039" lon="103.3504388"><ele>1543.07</ele><time>2026-05-05T07:33:47.000Z</time></trkpt>
        <trkpt lat="29.5601489" lon="103.3505007"><ele>1546.85</ele><time>2026-05-05T07:34:37.000Z</time></trkpt>
        <trkpt lat="29.5602088" lon="103.3505754"><ele>1550.48</ele><time>2026-05-05T07:35:17.000Z</time></trkpt>
        <trkpt lat="29.5602355" lon="103.3506892"><ele>1555.72</ele><time>2026-05-05T07:36:19.000Z</time></trkpt>
        <trkpt lat="29.5602068" lon="103.3507944"><ele>1562.5</ele><time>2026-05-05T07:36:57.000Z</time></trkpt>
        <trkpt lat="29.5602401" lon="103.3508928"><ele>1572.55</ele><time>2026-05-05T07:37:35.000Z</time></trkpt>
        <trkpt lat="29.5602709" lon="103.3509982"><ele>1577.82</ele><time>2026-05-05T07:37:57.000Z</time></trkpt>
        <trkpt lat="29.5602754" lon="103.3511054"><ele>1581.19</ele><time>2026-05-05T07:38:23.000Z</time></trkpt>
        <trkpt lat="29.5603343" lon="103.3510934"><ele>1583.96</ele><time>2026-05-05T07:39:17.000Z</time></trkpt>
        <trkpt lat="29.5604296" lon="103.351001"><ele>1592.36</ele><time>2026-05-05T07:40:19.000Z</time></trkpt>
        <trkpt lat="29.5605258" lon="103.3509995"><ele>1601.56</ele><time>2026-05-05T07:40:59.000Z</time></trkpt>
        <trkpt lat="29.5605643" lon="103.3510688"><ele>1608.25</ele><time>2026-05-05T07:41:23.000Z</time></trkpt>
        <trkpt lat="29.560561" lon="103.3511741"><ele>1611.84</ele><time>2026-05-05T07:41:45.000Z</time></trkpt>
        <trkpt lat="29.5605588" lon="103.3512091"><ele>1616.2</ele><time>2026-05-05T07:41:47.000Z</time></trkpt>
        <trkpt lat="29.560601" lon="103.3511494"><ele>1618.67</ele><time>2026-05-05T07:42:11.000Z</time></trkpt>
        <trkpt lat="29.5605999" lon="103.3511976"><ele>1619.41</ele><time>2026-05-05T07:42:45.000Z</time></trkpt>
        <trkpt lat="29.560571" lon="103.3512922"><ele>1620.98</ele><time>2026-05-05T07:43:21.000Z</time></trkpt>
        <trkpt lat="29.5606485" lon="103.3513422"><ele>1624.18</ele><time>2026-05-05T07:44:33.000Z</time></trkpt>
        <trkpt lat="29.5605561" lon="103.3513698"><ele>1627.86</ele><time>2026-05-05T07:45:47.000Z</time></trkpt>
        <trkpt lat="29.5604994" lon="103.3514682"><ele>1640.52</ele><time>2026-05-05T07:46:05.000Z</time></trkpt>
        <trkpt lat="29.5604588" lon="103.3515718"><ele>1647.64</ele><time>2026-05-05T07:46:47.000Z</time></trkpt>
        <trkpt lat="29.5605181" lon="103.3516144"><ele>1649.43</ele><time>2026-05-05T07:47:09.000Z</time></trkpt>
        <trkpt lat="29.5606168" lon="103.3516234"><ele>1651.47</ele><time>2026-05-05T07:48:05.000Z</time></trkpt>
        <trkpt lat="29.5606978" lon="103.3515112"><ele>1654.82</ele><time>2026-05-05T07:49:07.000Z</time></trkpt>
        <trkpt lat="29.5607769" lon="103.3515653"><ele>1658.8</ele><time>2026-05-05T07:49:23.000Z</time></trkpt>
        <trkpt lat="29.5608577" lon="103.3515289"><ele>1660.34</ele><time>2026-05-05T07:50:03.000Z</time></trkpt>
        <trkpt lat="29.560942" lon="103.351563"><ele>1661.98</ele><time>2026-05-05T07:50:15.000Z</time></trkpt>
        <trkpt lat="29.5610322" lon="103.3515839"><ele>1663.76</ele><time>2026-05-05T07:50:33.000Z</time></trkpt>
        <trkpt lat="29.5611363" lon="103.3515947"><ele>1665.74</ele><time>2026-05-05T07:50:45.000Z</time></trkpt>
        <trkpt lat="29.5612303" lon="103.3516175"><ele>1666.89</ele><time>2026-05-05T07:50:55.000Z</time></trkpt>
        <trkpt lat="29.5613227" lon="103.3516427"><ele>1666.97</ele><time>2026-05-05T07:51:05.000Z</time></trkpt>
        <trkpt lat="29.56141" lon="103.3516796"><ele>1667.47</ele><time>2026-05-05T07:51:25.000Z</time></trkpt>
        <trkpt lat="29.5614922" lon="103.3517288"><ele>1667.29</ele><time>2026-05-05T07:52:15.000Z</time></trkpt>
        <trkpt lat="29.5614568" lon="103.3518011"><ele>1671.96</ele><time>2026-05-05T07:52:31.000Z</time></trkpt>
        <trkpt lat="29.5614199" lon="103.3518335"><ele>1677.07</ele><time>2026-05-05T07:52:37.000Z</time></trkpt>
        <trkpt lat="29.5613983" lon="103.3519384"><ele>1681.26</ele><time>2026-05-05T07:53:43.000Z</time></trkpt>
        <trkpt lat="29.5614002" lon="103.3519408"><ele>1689.83</ele><time>2026-05-05T07:53:45.000Z</time></trkpt>
        <trkpt lat="29.5614789" lon="103.3519127"><ele>1694.71</ele><time>2026-05-05T07:54:23.000Z</time></trkpt>
        <trkpt lat="29.5615622" lon="103.351944"><ele>1696.79</ele><time>2026-05-05T07:55:09.000Z</time></trkpt>
        <trkpt lat="29.5616581" lon="103.3519643"><ele>1698.57</ele><time>2026-05-05T07:55:33.000Z</time></trkpt>
        <trkpt lat="29.5617406" lon="103.3520192"><ele>1700.73</ele><time>2026-05-05T07:56:07.000Z</time></trkpt>
        <trkpt lat="29.5617448" lon="103.352114"><ele>1702.78</ele><time>2026-05-05T07:56:57.000Z</time></trkpt>
        <trkpt lat="29.561805" lon="103.3521765"><ele>1709.87</ele><time>2026-05-05T07:57:29.000Z</time></trkpt>
        <trkpt lat="29.5618912" lon="103.3522173"><ele>1713.28</ele><time>2026-05-05T07:58:07.000Z</time></trkpt>
        <trkpt lat="29.5619751" lon="103.3522773"><ele>1716.16</ele><time>2026-05-05T08:09:23.000Z</time></trkpt>
        <trkpt lat="29.5620578" lon="103.3522275"><ele>1722.57</ele><time>2026-05-05T08:09:41.000Z</time></trkpt>
        <trkpt lat="29.562145" lon="103.3521924"><ele>1725.13</ele><time>2026-05-05T08:10:07.000Z</time></trkpt>
        <trkpt lat="29.5622332" lon="103.3521562"><ele>1730.46</ele><time>2026-05-05T08:10:39.000Z</time></trkpt>
        <trkpt lat="29.5623224" lon="103.3521339"><ele>1736.7</ele><time>2026-05-05T08:11:19.000Z</time></trkpt>
        <trkpt lat="29.5624099" lon="103.3521546"><ele>1740.75</ele><time>2026-05-05T08:11:39.000Z</time></trkpt>
        <trkpt lat="29.5624937" lon="103.3521975"><ele>1743.91</ele><time>2026-05-05T08:12:15.000Z</time></trkpt>
        <trkpt lat="29.5625815" lon="103.3522228"><ele>1746.73</ele><time>2026-05-05T08:13:01.000Z</time></trkpt>
        <trkpt lat="29.5625272" lon="103.3523139"><ele>1750.67</ele><time>2026-05-05T08:14:33.000Z</time></trkpt>
        <trkpt lat="29.5625919" lon="103.3522352"><ele>1756.37</ele><time>2026-05-05T08:14:45.000Z</time></trkpt>
        <trkpt lat="29.5626749" lon="103.3521881"><ele>1760.45</ele><time>2026-05-05T08:15:03.000Z</time></trkpt>
        <trkpt lat="29.5626937" lon="103.3520906"><ele>1763.42</ele><time>2026-05-05T08:15:15.000Z</time></trkpt>
        <trkpt lat="29.5626389" lon="103.3520061"><ele>1764.87</ele><time>2026-05-05T08:15:27.000Z</time></trkpt>
        <trkpt lat="29.5625638" lon="103.3519198"><ele>1765.77</ele><time>2026-05-05T08:15:39.000Z</time></trkpt>
        <trkpt lat="29.5624833" lon="103.3518352"><ele>1767.13</ele><time>2026-05-05T08:15:53.000Z</time></trkpt>
        <trkpt lat="29.5624536" lon="103.3517289"><ele>1768.2</ele><time>2026-05-05T08:16:07.000Z</time></trkpt>
        <trkpt lat="29.5625092" lon="103.3516615"><ele>1769.02</ele><time>2026-05-05T08:16:25.000Z</time></trkpt>
        <trkpt lat="29.5625789" lon="103.3515879"><ele>1768.77</ele><time>2026-05-05T08:17:03.000Z</time></trkpt>
        <trkpt lat="29.5626238" lon="103.3514949"><ele>1768.25</ele><time>2026-05-05T08:17:29.000Z</time></trkpt>
        <trkpt lat="29.5626525" lon="103.351385"><ele>1772.23</ele><time>2026-05-05T08:17:47.000Z</time></trkpt>
        <trkpt lat="29.5626934" lon="103.3512817"><ele>1776.16</ele><time>2026-05-05T08:18:01.000Z</time></trkpt>
        <trkpt lat="29.5627333" lon="103.3511802"><ele>1778.55</ele><time>2026-05-05T08:18:17.000Z</time></trkpt>
        <trkpt lat="29.562795" lon="103.3511038"><ele>1781.07</ele><time>2026-05-05T08:18:37.000Z</time></trkpt>
        <trkpt lat="29.5628046" lon="103.3510024"><ele>1783.2</ele><time>2026-05-05T08:19:05.000Z</time></trkpt>
        <trkpt lat="29.5627884" lon="103.3508956"><ele>1786.08</ele><time>2026-05-05T08:19:29.000Z</time></trkpt>
        <trkpt lat="29.5627766" lon="103.350785"><ele>1789.76</ele><time>2026-05-05T08:19:45.000Z</time></trkpt>
        <trkpt lat="29.5627904" lon="103.3506818"><ele>1790.85</ele><time>2026-05-05T08:20:03.000Z</time></trkpt>
        <trkpt lat="29.5627828" lon="103.3505667"><ele>1792.34</ele><time>2026-05-05T08:20:17.000Z</time></trkpt>
        <trkpt lat="29.5627852" lon="103.3504489"><ele>1792.15</ele><time>2026-05-05T08:20:29.000Z</time></trkpt>
        <trkpt lat="29.5627877" lon="103.3503405"><ele>1791.44</ele><time>2026-05-05T08:20:41.000Z</time></trkpt>
        <trkpt lat="29.5628073" lon="103.3502289"><ele>1789.95</ele><time>2026-05-05T08:20:53.000Z</time></trkpt>
        <trkpt lat="29.5628307" lon="103.350123"><ele>1789.26</ele><time>2026-05-05T08:21:05.000Z</time></trkpt>
        <trkpt lat="29.5628541" lon="103.3500143"><ele>1787.85</ele><time>2026-05-05T08:21:17.000Z</time></trkpt>
        <trkpt lat="29.562862" lon="103.3499006"><ele>1785.99</ele><time>2026-05-05T08:21:29.000Z</time></trkpt>
        <trkpt lat="29.562885" lon="103.3497824"><ele>1783.57</ele><time>2026-05-05T08:21:41.000Z</time></trkpt>
        <trkpt lat="29.5629174" lon="103.3496753"><ele>1782.51</ele><time>2026-05-05T08:21:51.000Z</time></trkpt>
        <trkpt lat="29.5629658" lon="103.3495739"><ele>1782.19</ele><time>2026-05-05T08:22:01.000Z</time></trkpt>
        <trkpt lat="29.563028" lon="103.3494853"><ele>1782.77</ele><time>2026-05-05T08:22:11.000Z</time></trkpt>
        <trkpt lat="29.5630815" lon="103.3493986"><ele>1783.04</ele><time>2026-05-05T08:22:21.000Z</time></trkpt>
        <trkpt lat="29.5631168" lon="103.3492926"><ele>1782.93</ele><time>2026-05-05T08:22:33.000Z</time></trkpt>
        <trkpt lat="29.5631657" lon="103.3491917"><ele>1782.54</ele><time>2026-05-05T08:22:43.000Z</time></trkpt>
        <trkpt lat="29.5632077" lon="103.3490852"><ele>1782.5</ele><time>2026-05-05T08:22:53.000Z</time></trkpt>
        <trkpt lat="29.5631996" lon="103.3489797"><ele>1783.25</ele><time>2026-05-05T08:23:03.000Z</time></trkpt>
        <trkpt lat="29.5632114" lon="103.3488757"><ele>1784.51</ele><time>2026-05-05T08:23:17.000Z</time></trkpt>
        <trkpt lat="29.5632174" lon="103.3487607"><ele>1785.77</ele><time>2026-05-05T08:23:29.000Z</time></trkpt>
        <trkpt lat="29.563201" lon="103.3486434"><ele>1786.87</ele><time>2026-05-05T08:23:39.000Z</time></trkpt>
        <trkpt lat="29.5631921" lon="103.3485208"><ele>1788.1</ele><time>2026-05-05T08:23:51.000Z</time></trkpt>
        <trkpt lat="29.5632093" lon="103.3484086"><ele>1788.11</ele><time>2026-05-05T08:24:01.000Z</time></trkpt>
        <trkpt lat="29.5632483" lon="103.3483031"><ele>1788.65</ele><time>2026-05-05T08:24:13.000Z</time></trkpt>
        <trkpt lat="29.5633069" lon="103.3482185"><ele>1788.92</ele><time>2026-05-05T08:24:23.000Z</time></trkpt>
        <trkpt lat="29.5633688" lon="103.3481283"><ele>1789.75</ele><time>2026-05-05T08:24:37.000Z</time></trkpt>
        <trkpt lat="29.5634031" lon="103.3480132"><ele>1790.6</ele><time>2026-05-05T08:24:47.000Z</time></trkpt>
        <trkpt lat="29.5634739" lon="103.3479425"><ele>1790.94</ele><time>2026-05-05T08:24:55.000Z</time></trkpt>
        <trkpt lat="29.5635341" lon="103.3478591"><ele>1791.25</ele><time>2026-05-05T08:25:07.000Z</time></trkpt>
        <trkpt lat="29.5635484" lon="103.3478419"><ele>1791.11</ele><time>2026-05-05T08:25:09.000Z</time></trkpt>
        <trkpt lat="29.5635562" lon="103.3477553"><ele>1790.86</ele><time>2026-05-05T08:26:07.000Z</time></trkpt>
        <trkpt lat="29.5635472" lon="103.3476328"><ele>1790.55</ele><time>2026-05-05T08:26:21.000Z</time></trkpt>
        <trkpt lat="29.5635521" lon="103.3475181"><ele>1789.69</ele><time>2026-05-05T08:26:33.000Z</time></trkpt>
        <trkpt lat="29.5635208" lon="103.3474092"><ele>1788.39</ele><time>2026-05-05T08:26:45.000Z</time></trkpt>
        <trkpt lat="29.5634678" lon="103.3473062"><ele>1786.7</ele><time>2026-05-05T08:26:55.000Z</time></trkpt>
        <trkpt lat="29.563398" lon="103.3472114"><ele>1786.7</ele><time>2026-05-05T08:27:07.000Z</time></trkpt>
        <trkpt lat="29.5633077" lon="103.3471476"><ele>1786.25</ele><time>2026-05-05T08:27:17.000Z</time></trkpt>
        <trkpt lat="29.5632109" lon="103.3471057"><ele>1786.24</ele><time>2026-05-05T08:27:27.000Z</time></trkpt>
        <trkpt lat="29.5632317" lon="103.3472325"><ele>1786.65</ele><time>2026-05-05T08:30:23.000Z</time></trkpt>
        <trkpt lat="29.5632274" lon="103.3472188"><ele>1785.13</ele><time>2026-05-05T08:30:25.000Z</time></trkpt>
        <trkpt lat="29.5631844" lon="103.3470824"><ele>1784.27</ele><time>2026-05-05T08:31:49.000Z</time></trkpt>
        <trkpt lat="29.5631189" lon="103.3469893"><ele>1785.72</ele><time>2026-05-05T08:32:21.000Z</time></trkpt>
        <trkpt lat="29.5630509" lon="103.346906"><ele>1785.45</ele><time>2026-05-05T08:32:31.000Z</time></trkpt>
        <trkpt lat="29.5629928" lon="103.3468231"><ele>1784.9</ele><time>2026-05-05T08:32:45.000Z</time></trkpt>
        <trkpt lat="29.5629262" lon="103.3467535"><ele>1782.97</ele><time>2026-05-05T08:32:55.000Z</time></trkpt>
        <trkpt lat="29.5628593" lon="103.3466653"><ele>1781.4</ele><time>2026-05-05T08:33:07.000Z</time></trkpt>
        <trkpt lat="29.5628107" lon="103.3465684"><ele>1779.14</ele><time>2026-05-05T08:33:17.000Z</time></trkpt>
        <trkpt lat="29.5627298" lon="103.3465012"><ele>1778.25</ele><time>2026-05-05T08:33:27.000Z</time></trkpt>
        <trkpt lat="29.5626306" lon="103.3464638"><ele>1777.28</ele><time>2026-05-05T08:33:37.000Z</time></trkpt>
        <trkpt lat="29.5625403" lon="103.3464061"><ele>1777.24</ele><time>2026-05-05T08:33:47.000Z</time></trkpt>
        <trkpt lat="29.5624594" lon="103.3463449"><ele>1777.14</ele><time>2026-05-05T08:33:57.000Z</time></trkpt>
        <trkpt lat="29.5623875" lon="103.3462679"><ele>1777.23</ele><time>2026-05-05T08:34:07.000Z</time></trkpt>
        <trkpt lat="29.5623142" lon="103.3461806"><ele>1776.62</ele><time>2026-05-05T08:34:17.000Z</time></trkpt>
        <trkpt lat="29.5622477" lon="103.3460818"><ele>1775.81</ele><time>2026-05-05T08:34:27.000Z</time></trkpt>
        <trkpt lat="29.5622127" lon="103.345973"><ele>1775.61</ele><time>2026-05-05T08:34:37.000Z</time></trkpt>
        <trkpt lat="29.5621836" lon="103.3458584"><ele>1775.43</ele><time>2026-05-05T08:34:49.000Z</time></trkpt>
        <trkpt lat="29.5621294" lon="103.345756"><ele>1774.89</ele><time>2026-05-05T08:35:01.000Z</time></trkpt>
        <trkpt lat="29.5620587" lon="103.345674"><ele>1774.27</ele><time>2026-05-05T08:35:13.000Z</time></trkpt>
        <trkpt lat="29.5619792" lon="103.3456084"><ele>1773.88</ele><time>2026-05-05T08:35:23.000Z</time></trkpt>
        <trkpt lat="29.5618866" lon="103.3455776"><ele>1774.39</ele><time>2026-05-05T08:35:33.000Z</time></trkpt>
        <trkpt lat="29.5617908" lon="103.3455881"><ele>1776.44</ele><time>2026-05-05T08:35:45.000Z</time></trkpt>
        <trkpt lat="29.5616916" lon="103.3456074"><ele>1778.51</ele><time>2026-05-05T08:35:57.000Z</time></trkpt>
        <trkpt lat="29.5615893" lon="103.3456044"><ele>1778.99</ele><time>2026-05-05T08:36:09.000Z</time></trkpt>
        <trkpt lat="29.5614995" lon="103.3455554"><ele>1779.39</ele><time>2026-05-05T08:36:21.000Z</time></trkpt>
        <trkpt lat="29.5614349" lon="103.3454574"><ele>1778.55</ele><time>2026-05-05T08:36:31.000Z</time></trkpt>
        <trkpt lat="29.5613866" lon="103.3453436"><ele>1776.73</ele><time>2026-05-05T08:36:41.000Z</time></trkpt>
        <trkpt lat="29.5613319" lon="103.3452537"><ele>1775.9</ele><time>2026-05-05T08:38:05.000Z</time></trkpt>
        <trkpt lat="29.5612479" lon="103.3452141"><ele>1775.76</ele><time>2026-05-05T08:38:33.000Z</time></trkpt>
        <trkpt lat="29.5611838" lon="103.3451396"><ele>1777.62</ele><time>2026-05-05T08:39:01.000Z</time></trkpt>
        <trkpt lat="29.5611712" lon="103.3451183"><ele>1781.26</ele><time>2026-05-05T08:39:05.000Z</time></trkpt>
        <trkpt lat="29.5611156" lon="103.3450654"><ele>1783.04</ele><time>2026-05-05T08:40:01.000Z</time></trkpt>
        <trkpt lat="29.5610357" lon="103.3449968"><ele>1786.64</ele><time>2026-05-05T08:41:05.000Z</time></trkpt>
        <trkpt lat="29.5610347" lon="103.3449634"><ele>1792.78</ele><time>2026-05-05T08:41:19.000Z</time></trkpt>
        <trkpt lat="29.5609853" lon="103.3450319"><ele>1795.45</ele><time>2026-05-05T08:41:59.000Z</time></trkpt>
        <trkpt lat="29.560893" lon="103.3450993"><ele>1800.7</ele><time>2026-05-05T08:43:17.000Z</time></trkpt>
        <trkpt lat="29.5608434" lon="103.3450095"><ele>1806.7</ele><time>2026-05-05T08:43:45.000Z</time></trkpt>
        <trkpt lat="29.5608121" lon="103.344909"><ele>1811.52</ele><time>2026-05-05T08:44:31.000Z</time></trkpt>
        <trkpt lat="29.5607355" lon="103.3448942"><ele>1816.17</ele><time>2026-05-05T08:45:27.000Z</time></trkpt>
        <trkpt lat="29.5607186" lon="103.3448145"><ele>1822.37</ele><time>2026-05-05T08:46:49.000Z</time></trkpt>
        <trkpt lat="29.560694" lon="103.3447125"><ele>1828.34</ele><time>2026-05-05T08:47:15.000Z</time></trkpt>
        <trkpt lat="29.5606076" lon="103.3446751"><ele>1833.11</ele><time>2026-05-05T08:49:23.000Z</time></trkpt>
        <trkpt lat="29.5605188" lon="103.3446522"><ele>1837.91</ele><time>2026-05-05T08:49:55.000Z</time></trkpt>
        <trkpt lat="29.5604409" lon="103.3446012"><ele>1843.2</ele><time>2026-05-05T08:50:31.000Z</time></trkpt>
        <trkpt lat="29.5603563" lon="103.3445563"><ele>1848.17</ele><time>2026-05-05T08:51:03.000Z</time></trkpt>
        <trkpt lat="29.5602692" lon="103.3445198"><ele>1853.16</ele><time>2026-05-05T08:51:47.000Z</time></trkpt>
        <trkpt lat="29.5602036" lon="103.3444447"><ele>1859.38</ele><time>2026-05-05T08:52:17.000Z</time></trkpt>
        <trkpt lat="29.5601344" lon="103.3443636"><ele>1864.84</ele><time>2026-05-05T08:53:01.000Z</time></trkpt>
        <trkpt lat="29.5601321" lon="103.3442618"><ele>1868.71</ele><time>2026-05-05T08:53:29.000Z</time></trkpt>
        <trkpt lat="29.5600682" lon="103.3442199"><ele>1874.09</ele><time>2026-05-05T08:55:01.000Z</time></trkpt>
        <trkpt lat="29.5600245" lon="103.3441273"><ele>1879.66</ele><time>2026-05-05T08:55:35.000Z</time></trkpt>
        <trkpt lat="29.5600895" lon="103.3440727"><ele>1884.86</ele><time>2026-05-05T08:56:03.000Z</time></trkpt>
        <trkpt lat="29.5600624" lon="103.3439962"><ele>1890.71</ele><time>2026-05-05T08:56:59.000Z</time></trkpt>
        <trkpt lat="29.5601152" lon="103.3439405"><ele>1894.83</ele><time>2026-05-05T08:57:33.000Z</time></trkpt>
        <trkpt lat="29.5600666" lon="103.3438757"><ele>1900.25</ele><time>2026-05-05T08:59:17.000Z</time></trkpt>
        <trkpt lat="29.5599809" lon="103.3438279"><ele>1905.16</ele><time>2026-05-05T08:59:45.000Z</time></trkpt>
        <trkpt lat="29.5599107" lon="103.3437621"><ele>1909.54</ele><time>2026-05-05T09:00:39.000Z</time></trkpt>
        <trkpt lat="29.559826" lon="103.343721"><ele>1913.29</ele><time>2026-05-05T09:01:17.000Z</time></trkpt>
        <trkpt lat="29.5597864" lon="103.3436963"><ele>1919.51</ele><time>2026-05-05T09:01:27.000Z</time></trkpt>
        <trkpt lat="29.5597639" lon="103.3436086"><ele>1922.08</ele><time>2026-05-05T09:02:31.000Z</time></trkpt>
        <trkpt lat="29.5597028" lon="103.3435218"><ele>1925.43</ele><time>2026-05-05T09:02:59.000Z</time></trkpt>
        <trkpt lat="29.5596673" lon="103.3434888"><ele>1929.91</ele><time>2026-05-05T09:03:23.000Z</time></trkpt>
        <trkpt lat="29.5596423" lon="103.3436009"><ele>1934.36</ele><time>2026-05-05T09:06:05.000Z</time></trkpt>
        <trkpt lat="29.5595509" lon="103.3435661"><ele>1938.63</ele><time>2026-05-05T09:06:29.000Z</time></trkpt>
        <trkpt lat="29.5594749" lon="103.3435012"><ele>1941.56</ele><time>2026-05-05T09:07:09.000Z</time></trkpt>
        <trkpt lat="29.5594403" lon="103.3435632"><ele>1944.94</ele><time>2026-05-05T09:07:45.000Z</time></trkpt>
        <trkpt lat="29.5593643" lon="103.3435975"><ele>1951.29</ele><time>2026-05-05T09:08:35.000Z</time></trkpt>
        <trkpt lat="29.5592725" lon="103.3436045"><ele>1954.13</ele><time>2026-05-05T09:09:05.000Z</time></trkpt>
        <trkpt lat="29.559253" lon="103.3437072"><ele>1957.25</ele><time>2026-05-05T09:12:03.000Z</time></trkpt>
        <trkpt lat="29.5592276" lon="103.3438123"><ele>1963.89</ele><time>2026-05-05T09:12:33.000Z</time></trkpt>
        <trkpt lat="29.559145" lon="103.3438325"><ele>1969.53</ele><time>2026-05-05T09:13:03.000Z</time></trkpt>
        <trkpt lat="29.5590994" lon="103.3437584"><ele>1973.99</ele><time>2026-05-05T09:13:37.000Z</time></trkpt>
        <trkpt lat="29.5590193" lon="103.3437087"><ele>1977.07</ele><time>2026-05-05T09:14:29.000Z</time></trkpt>
        <trkpt lat="29.5589265" lon="103.343744"><ele>1982.95</ele><time>2026-05-05T09:15:57.000Z</time></trkpt>
        <trkpt lat="29.5588768" lon="103.3438322"><ele>1988.98</ele><time>2026-05-05T09:16:27.000Z</time></trkpt>
        <trkpt lat="29.5588852" lon="103.3439413"><ele>1995.78</ele><time>2026-05-05T09:16:41.000Z</time></trkpt>
        <trkpt lat="29.558914" lon="103.3440494"><ele>1999.71</ele><time>2026-05-05T09:17:17.000Z</time></trkpt>
        <trkpt lat="29.5589287" lon="103.3441596"><ele>2002.27</ele><time>2026-05-05T09:17:33.000Z</time></trkpt>
        <trkpt lat="29.5589014" lon="103.3441158"><ele>2004.01</ele><time>2026-05-05T09:17:45.000Z</time></trkpt>
        <trkpt lat="29.5588796" lon="103.3441653"><ele>2005.06</ele><time>2026-05-05T09:18:17.000Z</time></trkpt>
        <trkpt lat="29.5588695" lon="103.34426"><ele>2008.32</ele><time>2026-05-05T09:18:47.000Z</time></trkpt>
        <trkpt lat="29.5587789" lon="103.3442709"><ele>2011.61</ele><time>2026-05-05T09:20:31.000Z</time></trkpt>
        <trkpt lat="29.5587038" lon="103.3441987"><ele>2015.46</ele><time>2026-05-05T09:21:01.000Z</time></trkpt>
        <trkpt lat="29.5586356" lon="103.3442093"><ele>2018.28</ele><time>2026-05-05T09:21:23.000Z</time></trkpt>
        <trkpt lat="29.5585529" lon="103.3441797"><ele>2019.86</ele><time>2026-05-05T09:22:05.000Z</time></trkpt>
        <trkpt lat="29.5584614" lon="103.3441521"><ele>2022.14</ele><time>2026-05-05T09:22:37.000Z</time></trkpt>
        <trkpt lat="29.5583659" lon="103.3441138"><ele>2026.18</ele><time>2026-05-05T09:23:27.000Z</time></trkpt>
        <trkpt lat="29.5582634" lon="103.3440918"><ele>2031.15</ele><time>2026-05-05T09:23:43.000Z</time></trkpt>
        <trkpt lat="29.5581677" lon="103.3440943"><ele>2033.53</ele><time>2026-05-05T09:23:57.000Z</time></trkpt>
        <trkpt lat="29.5582164" lon="103.3439959"><ele>2033.51</ele><time>2026-05-05T09:28:02.000Z</time></trkpt>
        <trkpt lat="29.5582143" lon="103.3440094"><ele>2027.7</ele><time>2026-05-05T09:28:04.000Z</time></trkpt>
        <trkpt lat="29.5581339" lon="103.3440592"><ele>2024.43</ele><time>2026-05-05T09:29:17.000Z</time></trkpt>
        <trkpt lat="29.5581803" lon="103.344148"><ele>2026.34</ele><time>2026-05-05T09:29:32.000Z</time></trkpt>
        <trkpt lat="29.5582241" lon="103.3441729"><ele>2029.07</ele><time>2026-05-05T09:29:42.000Z</time></trkpt>
        <trkpt lat="29.5581242" lon="103.3441679"><ele>2030.65</ele><time>2026-05-05T09:29:54.000Z</time></trkpt>
        <trkpt lat="29.5580222" lon="103.3441218"><ele>2032.07</ele><time>2026-05-05T09:30:01.000Z</time></trkpt>
        <trkpt lat="29.5578492" lon="103.3440328"><ele>2032.15</ele><time>2026-05-05T09:30:09.000Z</time></trkpt>
        <trkpt lat="29.5577252" lon="103.3439742"><ele>2033.79</ele><time>2026-05-05T09:30:25.000Z</time></trkpt>
        <trkpt lat="29.5576095" lon="103.3439582"><ele>2034.92</ele><time>2026-05-05T09:30:47.000Z</time></trkpt>
        <trkpt lat="29.557555" lon="103.3438875"><ele>2035.88</ele><time>2026-05-05T09:32:27.000Z</time></trkpt>
        <trkpt lat="29.5574872" lon="103.3437888"><ele>2036.46</ele><time>2026-05-05T09:32:41.000Z</time></trkpt>
        <trkpt lat="29.5574196" lon="103.3436981"><ele>2036.26</ele><time>2026-05-05T09:32:53.000Z</time></trkpt>
        <trkpt lat="29.5573748" lon="103.3436668"><ele>2035.66</ele><time>2026-05-05T09:32:57.000Z</time></trkpt>
        <trkpt lat="29.5573002" lon="103.3436435"><ele>2035.88</ele><time>2026-05-05T09:33:09.000Z</time></trkpt>
        <trkpt lat="29.557212" lon="103.34363"><ele>2035.63</ele><time>2026-05-05T09:33:49.000Z</time></trkpt>
        <trkpt lat="29.5571102" lon="103.3436036"><ele>2038.9</ele><time>2026-05-05T09:35:19.000Z</time></trkpt>
        <trkpt lat="29.5570427" lon="103.343678"><ele>2043.82</ele><time>2026-05-05T09:35:45.000Z</time></trkpt>
        <trkpt lat="29.5569514" lon="103.3437215"><ele>2049.15</ele><time>2026-05-05T09:36:21.000Z</time></trkpt>
        <trkpt lat="29.556863" lon="103.3437527"><ele>2053.57</ele><time>2026-05-05T09:36:45.000Z</time></trkpt>
        <trkpt lat="29.5567716" lon="103.3437716"><ele>2056.23</ele><time>2026-05-05T09:37:15.000Z</time></trkpt>
        <trkpt lat="29.5566842" lon="103.3437443"><ele>2059.66</ele><time>2026-05-05T09:37:53.000Z</time></trkpt>
        <trkpt lat="29.5566098" lon="103.3437827"><ele>2062.87</ele><time>2026-05-05T09:38:33.000Z</time></trkpt>
        <trkpt lat="29.55654" lon="103.3438478"><ele>2065.5</ele><time>2026-05-05T09:39:33.000Z</time></trkpt>
        <trkpt lat="29.5565456" lon="103.3439446"><ele>2070.6</ele><time>2026-05-05T09:40:17.000Z</time></trkpt>
        <trkpt lat="29.5565213" lon="103.3440422"><ele>2075.18</ele><time>2026-05-05T09:40:57.000Z</time></trkpt>
        <trkpt lat="29.5564766" lon="103.3441335"><ele>2080.97</ele><time>2026-05-05T09:41:51.000Z</time></trkpt>
        <trkpt lat="29.5564129" lon="103.344216"><ele>2085.96</ele><time>2026-05-05T09:42:15.000Z</time></trkpt>
        <trkpt lat="29.5563086" lon="103.344245"><ele>2089.84</ele><time>2026-05-05T09:44:31.000Z</time></trkpt>
        <trkpt lat="29.5562408" lon="103.3443153"><ele>2093.97</ele><time>2026-05-05T09:44:55.000Z</time></trkpt>
        <trkpt lat="29.5561832" lon="103.3444116"><ele>2097.87</ele><time>2026-05-05T09:45:21.000Z</time></trkpt>
        <trkpt lat="29.5561157" lon="103.3444924"><ele>2102.38</ele><time>2026-05-05T09:45:49.000Z</time></trkpt>
        <trkpt lat="29.5560467" lon="103.3445666"><ele>2106.2</ele><time>2026-05-05T09:50:51.000Z</time></trkpt>
        <trkpt lat="29.5559895" lon="103.344656"><ele>2108.35</ele><time>2026-05-05T09:51:13.000Z</time></trkpt>
        <trkpt lat="29.5559464" lon="103.3447486"><ele>2110.91</ele><time>2026-05-05T09:51:39.000Z</time></trkpt>
        <trkpt lat="29.5558927" lon="103.3448313"><ele>2114.48</ele><time>2026-05-05T09:52:21.000Z</time></trkpt>
        <trkpt lat="29.5558532" lon="103.3449332"><ele>2118.58</ele><time>2026-05-05T09:52:49.000Z</time></trkpt>
        <trkpt lat="29.5557908" lon="103.3450075"><ele>2122.4</ele><time>2026-05-05T09:53:29.000Z</time></trkpt>
        <trkpt lat="29.5556957" lon="103.34502"><ele>2125.84</ele><time>2026-05-05T09:53:55.000Z</time></trkpt>
        <trkpt lat="29.5556089" lon="103.344973"><ele>2127.75</ele><time>2026-05-05T09:54:31.000Z</time></trkpt>
        <trkpt lat="29.5555396" lon="103.3450151"><ele>2131.61</ele><time>2026-05-05T09:56:37.000Z</time></trkpt>
        <trkpt lat="29.5554862" lon="103.3451061"><ele>2138.14</ele><time>2026-05-05T09:57:55.000Z</time></trkpt>
        <trkpt lat="29.5553973" lon="103.3451517"><ele>2144.67</ele><time>2026-05-05T09:58:21.000Z</time></trkpt>
        <trkpt lat="29.5553388" lon="103.3450855"><ele>2150.75</ele><time>2026-05-05T09:58:59.000Z</time></trkpt>
        <trkpt lat="29.5552807" lon="103.3450018"><ele>2155.22</ele><time>2026-05-05T09:59:17.000Z</time></trkpt>
        <trkpt lat="29.5552059" lon="103.3450142"><ele>2157.95</ele><time>2026-05-05T09:59:35.000Z</time></trkpt>
        <trkpt lat="29.5551415" lon="103.3450843"><ele>2160.49</ele><time>2026-05-05T09:59:51.000Z</time></trkpt>
        <trkpt lat="29.5550507" lon="103.3451436"><ele>2163.38</ele><time>2026-05-05T10:02:23.000Z</time></trkpt>
        <trkpt lat="29.554951" lon="103.3451732"><ele>2164.55</ele><time>2026-05-05T10:02:35.000Z</time></trkpt>
        <trkpt lat="29.5548533" lon="103.3451985"><ele>2166.37</ele><time>2026-05-05T10:02:57.000Z</time></trkpt>
        <trkpt lat="29.5547836" lon="103.3452659"><ele>2168.06</ele><time>2026-05-05T10:03:33.000Z</time></trkpt>
        <trkpt lat="29.5547106" lon="103.3453231"><ele>2170.16</ele><time>2026-05-05T10:04:35.000Z</time></trkpt>
        <trkpt lat="29.5546334" lon="103.3453801"><ele>2173.66</ele><time>2026-05-05T10:05:09.000Z</time></trkpt>
        <trkpt lat="29.554612" lon="103.345379"><ele>2176.68</ele><time>2026-05-05T10:05:13.000Z</time></trkpt>
        <trkpt lat="29.5545455" lon="103.345417"><ele>2179.02</ele><time>2026-05-05T10:05:51.000Z</time></trkpt>
        <trkpt lat="29.5544598" lon="103.3454189"><ele>2181.4</ele><time>2026-05-05T10:06:19.000Z</time></trkpt>
        <trkpt lat="29.5543703" lon="103.3454373"><ele>2185.65</ele><time>2026-05-05T10:06:59.000Z</time></trkpt>
        <trkpt lat="29.5542715" lon="103.3454512"><ele>2189.22</ele><time>2026-05-05T10:08:09.000Z</time></trkpt>
        <trkpt lat="29.5541786" lon="103.345481"><ele>2194.06</ele><time>2026-05-05T10:08:35.000Z</time></trkpt>
        <trkpt lat="29.5540838" lon="103.3455074"><ele>2198.69</ele><time>2026-05-05T10:09:25.000Z</time></trkpt>
        <trkpt lat="29.5539843" lon="103.3455083"><ele>2203.68</ele><time>2026-05-05T10:09:49.000Z</time></trkpt>
        <trkpt lat="29.5538956" lon="103.3454608"><ele>2208.55</ele><time>2026-05-05T10:10:17.000Z</time></trkpt>
        <trkpt lat="29.5538145" lon="103.3453966"><ele>2211.84</ele><time>2026-05-05T10:10:51.000Z</time></trkpt>
        <trkpt lat="29.553729" lon="103.3453478"><ele>2214.64</ele><time>2026-05-05T10:11:13.000Z</time></trkpt>
        <trkpt lat="29.5536375" lon="103.3453231"><ele>2217.24</ele><time>2026-05-05T10:11:31.000Z</time></trkpt>
        <trkpt lat="29.5535461" lon="103.3453401"><ele>2220.19</ele><time>2026-05-05T10:11:59.000Z</time></trkpt>
        <trkpt lat="29.5534488" lon="103.3453358"><ele>2223.17</ele><time>2026-05-05T10:12:19.000Z</time></trkpt>
        <trkpt lat="29.5533544" lon="103.3453479"><ele>2225.75</ele><time>2026-05-05T10:12:35.000Z</time></trkpt>
        <trkpt lat="29.5532695" lon="103.3453973"><ele>2228.5</ele><time>2026-05-05T10:12:57.000Z</time></trkpt>
        <trkpt lat="29.5531804" lon="103.3454095"><ele>2230.65</ele><time>2026-05-05T10:13:09.000Z</time></trkpt>
        <trkpt lat="29.5530896" lon="103.345415"><ele>2231.49</ele><time>2026-05-05T10:13:21.000Z</time></trkpt>
        <trkpt lat="29.5529908" lon="103.345413"><ele>2232.03</ele><time>2026-05-05T10:13:33.000Z</time></trkpt>
        <trkpt lat="29.5528981" lon="103.3454354"><ele>2232.74</ele><time>2026-05-05T10:13:45.000Z</time></trkpt>
        <trkpt lat="29.5527959" lon="103.3454554"><ele>2233.89</ele><time>2026-05-05T10:13:59.000Z</time></trkpt>
        <trkpt lat="29.5526981" lon="103.3454529"><ele>2234.76</ele><time>2026-05-05T10:14:11.000Z</time></trkpt>
        <trkpt lat="29.5526049" lon="103.3454315"><ele>2235.5</ele><time>2026-05-05T10:14:23.000Z</time></trkpt>
        <trkpt lat="29.5525144" lon="103.3454559"><ele>2237.72</ele><time>2026-05-05T10:14:37.000Z</time></trkpt>
        <trkpt lat="29.5524136" lon="103.3454664"><ele>2237.63</ele><time>2026-05-05T10:14:51.000Z</time></trkpt>
        <trkpt lat="29.5523661" lon="103.3453883"><ele>2238.59</ele><time>2026-05-05T10:15:03.000Z</time></trkpt>
        <trkpt lat="29.552384" lon="103.3452818"><ele>2239.17</ele><time>2026-05-05T10:15:17.000Z</time></trkpt>
        <trkpt lat="29.5523395" lon="103.3451945"><ele>2237.88</ele><time>2026-05-05T10:15:33.000Z</time></trkpt>
        <trkpt lat="29.5522574" lon="103.3451444"><ele>2237.31</ele><time>2026-05-05T10:15:45.000Z</time></trkpt>
        <trkpt lat="29.5521549" lon="103.3451349"><ele>2237.9</ele><time>2026-05-05T10:15:57.000Z</time></trkpt>
        <trkpt lat="29.5520617" lon="103.3450994"><ele>2237.67</ele><time>2026-05-05T10:16:07.000Z</time></trkpt>
        <trkpt lat="29.5519758" lon="103.345045"><ele>2237.74</ele><time>2026-05-05T10:16:19.000Z</time></trkpt>
        <trkpt lat="29.5519595" lon="103.3449424"><ele>2237.39</ele><time>2026-05-05T10:16:31.000Z</time></trkpt>
        <trkpt lat="29.5519227" lon="103.3448415"><ele>2236.12</ele><time>2026-05-05T10:16:43.000Z</time></trkpt>
        <trkpt lat="29.5518651" lon="103.344746"><ele>2235.1</ele><time>2026-05-05T10:16:55.000Z</time></trkpt>
        <trkpt lat="29.5518142" lon="103.3446537"><ele>2233.9</ele><time>2026-05-05T10:17:07.000Z</time></trkpt>
        <trkpt lat="29.5517569" lon="103.3445646"><ele>2232.7</ele><time>2026-05-05T10:17:19.000Z</time></trkpt>
        <trkpt lat="29.551697" lon="103.3444703"><ele>2232.4</ele><time>2026-05-05T10:17:31.000Z</time></trkpt>
        <trkpt lat="29.5516169" lon="103.3444046"><ele>2233.35</ele><time>2026-05-05T10:17:43.000Z</time></trkpt>
        <trkpt lat="29.5515527" lon="103.3443284"><ele>2233.28</ele><time>2026-05-05T10:17:55.000Z</time></trkpt>
        <trkpt lat="29.5514783" lon="103.3442658"><ele>2233</ele><time>2026-05-05T10:18:09.000Z</time></trkpt>
        <trkpt lat="29.5513931" lon="103.3442307"><ele>2233.69</ele><time>2026-05-05T10:18:25.000Z</time></trkpt>
        <trkpt lat="29.5512953" lon="103.3442089"><ele>2232.49</ele><time>2026-05-05T10:18:37.000Z</time></trkpt>
        <trkpt lat="29.5511946" lon="103.3441996"><ele>2231.82</ele><time>2026-05-05T10:18:51.000Z</time></trkpt>
        <trkpt lat="29.5510945" lon="103.3442211"><ele>2230.77</ele><time>2026-05-05T10:19:03.000Z</time></trkpt>
        <trkpt lat="29.5510008" lon="103.3441812"><ele>2229.6</ele><time>2026-05-05T10:19:17.000Z</time></trkpt>
        <trkpt lat="29.5508987" lon="103.3441534"><ele>2228.28</ele><time>2026-05-05T10:19:29.000Z</time></trkpt>
        <trkpt lat="29.5508018" lon="103.3441409"><ele>2227.65</ele><time>2026-05-05T10:19:39.000Z</time></trkpt>
        <trkpt lat="29.5507143" lon="103.3441021"><ele>2227.13</ele><time>2026-05-05T10:19:51.000Z</time></trkpt>
        <trkpt lat="29.5506894" lon="103.344004"><ele>2225.19</ele><time>2026-05-05T10:20:03.000Z</time></trkpt>
        <trkpt lat="29.5506183" lon="103.3439547"><ele>2223.81</ele><time>2026-05-05T10:21:43.000Z</time></trkpt>
        <trkpt lat="29.5505259" lon="103.3438892"><ele>2225.1</ele><time>2026-05-05T10:21:55.000Z</time></trkpt>
        <trkpt lat="29.5504598" lon="103.343794"><ele>2226.92</ele><time>2026-05-05T10:22:05.000Z</time></trkpt>
        <trkpt lat="29.5503953" lon="103.3436984"><ele>2228.62</ele><time>2026-05-05T10:22:17.000Z</time></trkpt>
        <trkpt lat="29.5503252" lon="103.3436249"><ele>2229.01</ele><time>2026-05-05T10:22:29.000Z</time></trkpt>
        <trkpt lat="29.5502636" lon="103.3435449"><ele>2228.25</ele><time>2026-05-05T10:22:39.000Z</time></trkpt>
        <trkpt lat="29.550227" lon="103.3434519"><ele>2228.69</ele><time>2026-05-05T10:22:49.000Z</time></trkpt>
        <trkpt lat="29.5501799" lon="103.343357"><ele>2228.86</ele><time>2026-05-05T10:23:01.000Z</time></trkpt>
        <trkpt lat="29.550117" lon="103.3432729"><ele>2228.55</ele><time>2026-05-05T10:23:13.000Z</time></trkpt>
        <trkpt lat="29.5500399" lon="103.3432087"><ele>2229.04</ele><time>2026-05-05T10:23:23.000Z</time></trkpt>
        <trkpt lat="29.5499684" lon="103.3431391"><ele>2229.62</ele><time>2026-05-05T10:23:37.000Z</time></trkpt>
        <trkpt lat="29.5499083" lon="103.3430434"><ele>2230.8</ele><time>2026-05-05T10:23:49.000Z</time></trkpt>
        <trkpt lat="29.5498595" lon="103.3429483"><ele>2231.58</ele><time>2026-05-05T10:24:01.000Z</time></trkpt>
        <trkpt lat="29.5498186" lon="103.3428522"><ele>2232.04</ele><time>2026-05-05T10:24:13.000Z</time></trkpt>
        <trkpt lat="29.5497814" lon="103.3427552"><ele>2232.78</ele><time>2026-05-05T10:24:25.000Z</time></trkpt>
        <trkpt lat="29.5497344" lon="103.3426613"><ele>2233.23</ele><time>2026-05-05T10:24:37.000Z</time></trkpt>
        <trkpt lat="29.5496695" lon="103.3425763"><ele>2233.65</ele><time>2026-05-05T10:24:51.000Z</time></trkpt>
        <trkpt lat="29.5495961" lon="103.3424903"><ele>2233.75</ele><time>2026-05-05T10:25:05.000Z</time></trkpt>
        <trkpt lat="29.5495236" lon="103.34241"><ele>2232.81</ele><time>2026-05-05T10:25:15.000Z</time></trkpt>
        <trkpt lat="29.5494525" lon="103.3423326"><ele>2233.02</ele><time>2026-05-05T10:25:29.000Z</time></trkpt>
        <trkpt lat="29.5493807" lon="103.3422525"><ele>2233.82</ele><time>2026-05-05T10:25:41.000Z</time></trkpt>
        <trkpt lat="29.5493342" lon="103.3421589"><ele>2234.69</ele><time>2026-05-05T10:25:51.000Z</time></trkpt>
        <trkpt lat="29.5493094" lon="103.3420556"><ele>2234.78</ele><time>2026-05-05T10:26:05.000Z</time></trkpt>
        <trkpt lat="29.549294" lon="103.3419494"><ele>2235.22</ele><time>2026-05-05T10:26:15.000Z</time></trkpt>
        <trkpt lat="29.5492921" lon="103.3418361"><ele>2236.93</ele><time>2026-05-05T10:29:29.000Z</time></trkpt>
        <trkpt lat="29.549257" lon="103.3417292"><ele>2238.14</ele><time>2026-05-05T10:29:41.000Z</time></trkpt>
        <trkpt lat="29.5492198" lon="103.3416225"><ele>2238.87</ele><time>2026-05-05T10:29:53.000Z</time></trkpt>
        <trkpt lat="29.5491961" lon="103.3415164"><ele>2239.03</ele><time>2026-05-05T10:30:21.000Z</time></trkpt>
        <trkpt lat="29.5491829" lon="103.3414116"><ele>2240.14</ele><time>2026-05-05T10:30:39.000Z</time></trkpt>
        <trkpt lat="29.5491177" lon="103.3413563"><ele>2240.19</ele><time>2026-05-05T10:31:19.000Z</time></trkpt>
        <trkpt lat="29.5490642" lon="103.3412663"><ele>2242.62</ele><time>2026-05-05T10:31:49.000Z</time></trkpt>
        <trkpt lat="29.5489953" lon="103.341184"><ele>2244.77</ele><time>2026-05-05T10:32:11.000Z</time></trkpt>
        <trkpt lat="29.5489045" lon="103.3411548"><ele>2247.42</ele><time>2026-05-05T10:32:23.000Z</time></trkpt>
        <trkpt lat="29.548809" lon="103.34117"><ele>2249.5</ele><time>2026-05-05T10:32:45.000Z</time></trkpt>
        <trkpt lat="29.5487073" lon="103.3412169"><ele>2250.96</ele><time>2026-05-05T10:33:57.000Z</time></trkpt>
        <trkpt lat="29.5486136" lon="103.3412366"><ele>2257.63</ele><time>2026-05-05T10:35:13.000Z</time></trkpt>
        <trkpt lat="29.548532" lon="103.3412528"><ele>2263.29</ele><time>2026-05-05T10:35:37.000Z</time></trkpt>
        <trkpt lat="29.5484323" lon="103.3412745"><ele>2267.49</ele><time>2026-05-05T10:37:05.000Z</time></trkpt>
        <trkpt lat="29.5483383" lon="103.3412934"><ele>2271.6</ele><time>2026-05-05T10:37:31.000Z</time></trkpt>
        <trkpt lat="29.5482594" lon="103.3412409"><ele>2274.13</ele><time>2026-05-05T10:38:23.000Z</time></trkpt>
        <trkpt lat="29.5481687" lon="103.3412273"><ele>2277.3</ele><time>2026-05-05T10:38:43.000Z</time></trkpt>
        <trkpt lat="29.5480726" lon="103.3412079"><ele>2278.97</ele><time>2026-05-05T10:39:03.000Z</time></trkpt>
        <trkpt lat="29.5479765" lon="103.3411961"><ele>2281.03</ele><time>2026-05-05T10:50:41.000Z</time></trkpt>
        <trkpt lat="29.547877" lon="103.341193"><ele>2283.21</ele><time>2026-05-05T10:51:19.000Z</time></trkpt>
        <trkpt lat="29.5477932" lon="103.341152"><ele>2287.13</ele><time>2026-05-05T10:51:31.000Z</time></trkpt>
        <trkpt lat="29.5477036" lon="103.341125"><ele>2289.12</ele><time>2026-05-05T10:51:43.000Z</time></trkpt>
        <trkpt lat="29.5476086" lon="103.3410946"><ele>2289.92</ele><time>2026-05-05T10:51:57.000Z</time></trkpt>
        <trkpt lat="29.5475122" lon="103.3410991"><ele>2291.94</ele><time>2026-05-05T10:52:17.000Z</time></trkpt>
        <trkpt lat="29.5474173" lon="103.3410769"><ele>2294.53</ele><time>2026-05-05T10:52:51.000Z</time></trkpt>
        <trkpt lat="29.5473308" lon="103.3410415"><ele>2296.9</ele><time>2026-05-05T10:53:25.000Z</time></trkpt>
        <trkpt lat="29.5473126" lon="103.3409488"><ele>2298.81</ele><time>2026-05-05T10:53:41.000Z</time></trkpt>
        <trkpt lat="29.5472866" lon="103.3408419"><ele>2298.19</ele><time>2026-05-05T10:53:55.000Z</time></trkpt>
        <trkpt lat="29.5472524" lon="103.3407355"><ele>2298.49</ele><time>2026-05-05T10:54:19.000Z</time></trkpt>
        <trkpt lat="29.5472012" lon="103.3406466"><ele>2300.12</ele><time>2026-05-05T10:54:33.000Z</time></trkpt>
        <trkpt lat="29.5471447" lon="103.3405523"><ele>2300.11</ele><time>2026-05-05T10:54:55.000Z</time></trkpt>
        <trkpt lat="29.5471299" lon="103.3405194"><ele>2301.68</ele><time>2026-05-05T10:55:03.000Z</time></trkpt>
        <trkpt lat="29.5470667" lon="103.3404873"><ele>2302.71</ele><time>2026-05-05T10:55:49.000Z</time></trkpt>
        <trkpt lat="29.5470396" lon="103.3403989"><ele>2303.01</ele><time>2026-05-05T10:56:13.000Z</time></trkpt>
        <trkpt lat="29.5470594" lon="103.3402816"><ele>2305.38</ele><time>2026-05-05T10:57:15.000Z</time></trkpt>
        <trkpt lat="29.5470537" lon="103.3401773"><ele>2309.35</ele><time>2026-05-05T10:58:39.000Z</time></trkpt>
        <trkpt lat="29.5470787" lon="103.3400766"><ele>2315.17</ele><time>2026-05-05T10:59:13.000Z</time></trkpt>
        <trkpt lat="29.5470493" lon="103.339979"><ele>2321.71</ele><time>2026-05-05T11:00:05.000Z</time></trkpt>
        <trkpt lat="29.547039" lon="103.3398741"><ele>2327.75</ele><time>2026-05-05T11:01:35.000Z</time></trkpt>
        <trkpt lat="29.5470557" lon="103.3397701"><ele>2333.57</ele><time>2026-05-05T11:01:57.000Z</time></trkpt>
        <trkpt lat="29.5470152" lon="103.3396798"><ele>2337.72</ele><time>2026-05-05T11:02:31.000Z</time></trkpt>
        <trkpt lat="29.5469316" lon="103.3396422"><ele>2341.99</ele><time>2026-05-05T11:03:11.000Z</time></trkpt>
        <trkpt lat="29.5468864" lon="103.3395607"><ele>2345.64</ele><time>2026-05-05T11:03:53.000Z</time></trkpt>
        <trkpt lat="29.5468221" lon="103.3394895"><ele>2348.69</ele><time>2026-05-05T11:04:47.000Z</time></trkpt>
        <trkpt lat="29.5468344" lon="103.3393981"><ele>2351.91</ele><time>2026-05-05T11:05:13.000Z</time></trkpt>
        <trkpt lat="29.5467868" lon="103.3393301"><ele>2357.12</ele><time>2026-05-05T11:06:05.000Z</time></trkpt>
        <trkpt lat="29.5467128" lon="103.3392568"><ele>2362.23</ele><time>2026-05-05T11:10:49.000Z</time></trkpt>
        <trkpt lat="29.5466497" lon="103.3391727"><ele>2366.47</ele><time>2026-05-05T11:11:35.000Z</time></trkpt>
        <trkpt lat="29.5465875" lon="103.3390965"><ele>2370.53</ele><time>2026-05-05T11:12:05.000Z</time></trkpt>
        <trkpt lat="29.5465387" lon="103.3390095"><ele>2374.19</ele><time>2026-05-05T11:12:45.000Z</time></trkpt>
        <trkpt lat="29.5464867" lon="103.3389256"><ele>2378.2</ele><time>2026-05-05T11:13:25.000Z</time></trkpt>
        <trkpt lat="29.5464183" lon="103.3388529"><ele>2380.77</ele><time>2026-05-05T11:14:25.000Z</time></trkpt>
        <trkpt lat="29.5463409" lon="103.3387919"><ele>2384.57</ele><time>2026-05-05T11:15:23.000Z</time></trkpt>
        <trkpt lat="29.5462703" lon="103.338712"><ele>2389.98</ele><time>2026-05-05T11:16:21.000Z</time></trkpt>
        <trkpt lat="29.5462232" lon="103.3386136"><ele>2394.51</ele><time>2026-05-05T11:16:59.000Z</time></trkpt>
        <trkpt lat="29.546183" lon="103.3385063"><ele>2398.48</ele><time>2026-05-05T11:17:27.000Z</time></trkpt>
        <trkpt lat="29.5461446" lon="103.3384062"><ele>2402.38</ele><time>2026-05-05T11:17:55.000Z</time></trkpt>
        <trkpt lat="29.5461258" lon="103.3382934"><ele>2404.88</ele><time>2026-05-05T11:18:11.000Z</time></trkpt>
        <trkpt lat="29.5461228" lon="103.338186"><ele>2407.27</ele><time>2026-05-05T11:18:53.000Z</time></trkpt>
        <trkpt lat="29.5461701" lon="103.3381169"><ele>2409.72</ele><time>2026-05-05T11:19:11.000Z</time></trkpt>
        <trkpt lat="29.5462132" lon="103.3380285"><ele>2413.88</ele><time>2026-05-05T11:19:59.000Z</time></trkpt>
        <trkpt lat="29.546246" lon="103.3379312"><ele>2418.23</ele><time>2026-05-05T11:20:13.000Z</time></trkpt>
        <trkpt lat="29.5463106" lon="103.3378536"><ele>2421.28</ele><time>2026-05-05T11:20:23.000Z</time></trkpt>
        <trkpt lat="29.546374" lon="103.3377723"><ele>2423.55</ele><time>2026-05-05T11:20:37.000Z</time></trkpt>
        <trkpt lat="29.5464021" lon="103.3376718"><ele>2423.68</ele><time>2026-05-05T11:20:51.000Z</time></trkpt>
        <trkpt lat="29.5464237" lon="103.3375575"><ele>2423.82</ele><time>2026-05-05T11:21:05.000Z</time></trkpt>
        <trkpt lat="29.546479" lon="103.3374592"><ele>2424.51</ele><time>2026-05-05T11:21:17.000Z</time></trkpt>
        <trkpt lat="29.5465352" lon="103.33736"><ele>2424.82</ele><time>2026-05-05T11:21:29.000Z</time></trkpt>
        <trkpt lat="29.5465707" lon="103.3372561"><ele>2424.26</ele><time>2026-05-05T11:21:43.000Z</time></trkpt>
        <trkpt lat="29.5465877" lon="103.3371426"><ele>2424.2</ele><time>2026-05-05T11:21:57.000Z</time></trkpt>
        <trkpt lat="29.5465547" lon="103.3370426"><ele>2424.91</ele><time>2026-05-05T11:22:13.000Z</time></trkpt>
        <trkpt lat="29.5465133" lon="103.3370042"><ele>2426.5</ele><time>2026-05-05T11:22:19.000Z</time></trkpt>
        <trkpt lat="29.5464544" lon="103.3369377"><ele>2427.39</ele><time>2026-05-05T11:22:53.000Z</time></trkpt>
        <trkpt lat="29.5464113" lon="103.3368404"><ele>2426.87</ele><time>2026-05-05T11:23:05.000Z</time></trkpt>
        <trkpt lat="29.5463926" lon="103.3367348"><ele>2426.62</ele><time>2026-05-05T11:23:17.000Z</time></trkpt>
        <trkpt lat="29.5463949" lon="103.336653"><ele>2426.86</ele><time>2026-05-05T11:23:29.000Z</time></trkpt>
        <trkpt lat="29.5464093" lon="103.3365535"><ele>2425.43</ele><time>2026-05-05T11:23:45.000Z</time></trkpt>
        <trkpt lat="29.5464477" lon="103.3364542"><ele>2424.09</ele><time>2026-05-05T11:23:59.000Z</time></trkpt>
        <trkpt lat="29.5464825" lon="103.3363537"><ele>2422.99</ele><time>2026-05-05T11:24:21.000Z</time></trkpt>
        <trkpt lat="29.5464653" lon="103.3362488"><ele>2420.79</ele><time>2026-05-05T11:24:43.000Z</time></trkpt>
        <trkpt lat="29.5464772" lon="103.3361395"><ele>2418.04</ele><time>2026-05-05T11:24:57.000Z</time></trkpt>
        <trkpt lat="29.5465297" lon="103.3360517"><ele>2415.16</ele><time>2026-05-05T11:25:11.000Z</time></trkpt>
        <trkpt lat="29.5465731" lon="103.3359512"><ele>2412.33</ele><time>2026-05-05T11:25:27.000Z</time></trkpt>
        <trkpt lat="29.5466046" lon="103.3358459"><ele>2409.3</ele><time>2026-05-05T11:25:41.000Z</time></trkpt>
        <trkpt lat="29.5466322" lon="103.3357422"><ele>2406.98</ele><time>2026-05-05T11:25:53.000Z</time></trkpt>
        <trkpt lat="29.5466505" lon="103.3356296"><ele>2405.18</ele><time>2026-05-05T11:26:05.000Z</time></trkpt>
        <trkpt lat="29.546681" lon="103.3355266"><ele>2405.39</ele><time>2026-05-05T11:26:17.000Z</time></trkpt>
        <trkpt lat="29.5467132" lon="103.335421"><ele>2404.49</ele><time>2026-05-05T11:26:29.000Z</time></trkpt>
        <trkpt lat="29.5467307" lon="103.3353152"><ele>2403.98</ele><time>2026-05-05T11:26:49.000Z</time></trkpt>
        <trkpt lat="29.5467517" lon="103.3352067"><ele>2403.28</ele><time>2026-05-05T11:27:07.000Z</time></trkpt>
        <trkpt lat="29.5467422" lon="103.3350989"><ele>2402.05</ele><time>2026-05-05T11:27:27.000Z</time></trkpt>
        <trkpt lat="29.5466947" lon="103.3350049"><ele>2400.61</ele><time>2026-05-05T11:27:47.000Z</time></trkpt>
        <trkpt lat="29.5466073" lon="103.334946"><ele>2399.89</ele><time>2026-05-05T11:28:05.000Z</time></trkpt>
        <trkpt lat="29.5465225" lon="103.334877"><ele>2398.79</ele><time>2026-05-05T11:28:17.000Z</time></trkpt>
        <trkpt lat="29.5464296" lon="103.3348257"><ele>2397.58</ele><time>2026-05-05T11:28:31.000Z</time></trkpt>
        <trkpt lat="29.5463369" lon="103.3347917"><ele>2396.5</ele><time>2026-05-05T11:29:25.000Z</time></trkpt>
        <trkpt lat="29.5462471" lon="103.3347565"><ele>2397.16</ele><time>2026-05-05T11:29:51.000Z</time></trkpt>
        <trkpt lat="29.5461531" lon="103.3347768"><ele>2398.46</ele><time>2026-05-05T11:30:19.000Z</time></trkpt>
        <trkpt lat="29.5460589" lon="103.3347885"><ele>2400.23</ele><time>2026-05-05T11:35:25.000Z</time></trkpt>
        <trkpt lat="29.5459715" lon="103.3347585"><ele>2401.59</ele><time>2026-05-05T11:35:37.000Z</time></trkpt>
        <trkpt lat="29.5458795" lon="103.3347377"><ele>2401.93</ele><time>2026-05-05T11:35:53.000Z</time></trkpt>
        <trkpt lat="29.545828" lon="103.3346612"><ele>2400.26</ele><time>2026-05-05T11:36:09.000Z</time></trkpt>
        <trkpt lat="29.5457692" lon="103.3345733"><ele>2398.53</ele><time>2026-05-05T11:36:23.000Z</time></trkpt>
        <trkpt lat="29.5456878" lon="103.3345022"><ele>2396.68</ele><time>2026-05-05T11:36:37.000Z</time></trkpt>
        <trkpt lat="29.5456018" lon="103.3344536"><ele>2394.72</ele><time>2026-05-05T11:36:49.000Z</time></trkpt>
        <trkpt lat="29.5455159" lon="103.3344066"><ele>2393.57</ele><time>2026-05-05T11:36:59.000Z</time></trkpt>
        <trkpt lat="29.5454309" lon="103.3343597"><ele>2392.99</ele><time>2026-05-05T11:37:17.000Z</time></trkpt>
        <trkpt lat="29.5453467" lon="103.3343188"><ele>2393.58</ele><time>2026-05-05T11:37:43.000Z</time></trkpt>
        <trkpt lat="29.5452765" lon="103.3342514"><ele>2396.14</ele><time>2026-05-05T11:37:57.000Z</time></trkpt>
        <trkpt lat="29.54521" lon="103.3341792"><ele>2396.88</ele><time>2026-05-05T11:38:17.000Z</time></trkpt>
        <trkpt lat="29.5451409" lon="103.334112"><ele>2398.28</ele><time>2026-05-05T11:38:33.000Z</time></trkpt>
        <trkpt lat="29.5450527" lon="103.3340731"><ele>2399.26</ele><time>2026-05-05T11:38:53.000Z</time></trkpt>
        <trkpt lat="29.5449573" lon="103.3340723"><ele>2399.71</ele><time>2026-05-05T11:39:07.000Z</time></trkpt>
        <trkpt lat="29.5448639" lon="103.3340793"><ele>2399.14</ele><time>2026-05-05T11:39:19.000Z</time></trkpt>
        <trkpt lat="29.544782" lon="103.3341372"><ele>2398.11</ele><time>2026-05-05T11:39:33.000Z</time></trkpt>
        <trkpt lat="29.5447016" lon="103.3342159"><ele>2397.07</ele><time>2026-05-05T11:39:45.000Z</time></trkpt>
        <trkpt lat="29.5446077" lon="103.3342683"><ele>2395.34</ele><time>2026-05-05T11:40:01.000Z</time></trkpt>
        <trkpt lat="29.5445178" lon="103.3342469"><ele>2393.88</ele><time>2026-05-05T11:40:11.000Z</time></trkpt>
        <trkpt lat="29.5444212" lon="103.3342091"><ele>2393.25</ele><time>2026-05-05T11:40:23.000Z</time></trkpt>
        <trkpt lat="29.5443253" lon="103.3341846"><ele>2392.98</ele><time>2026-05-05T11:40:33.000Z</time></trkpt>
        <trkpt lat="29.5442245" lon="103.3341701"><ele>2392.9</ele><time>2026-05-05T11:40:47.000Z</time></trkpt>
        <trkpt lat="29.5441261" lon="103.3341526"><ele>2393.98</ele><time>2026-05-05T11:41:01.000Z</time></trkpt>
        <trkpt lat="29.5440349" lon="103.3341259"><ele>2394.58</ele><time>2026-05-05T11:41:11.000Z</time></trkpt>
        <trkpt lat="29.5439488" lon="103.3340687"><ele>2395.35</ele><time>2026-05-05T11:41:23.000Z</time></trkpt>
        <trkpt lat="29.543878" lon="103.3339858"><ele>2395.51</ele><time>2026-05-05T11:41:37.000Z</time></trkpt>
        <trkpt lat="29.5437978" lon="103.3339286"><ele>2395.67</ele><time>2026-05-05T11:41:53.000Z</time></trkpt>
        <trkpt lat="29.543714" lon="103.333942"><ele>2395.66</ele><time>2026-05-05T11:42:07.000Z</time></trkpt>
        <trkpt lat="29.5436216" lon="103.333911"><ele>2395.11</ele><time>2026-05-05T11:42:19.000Z</time></trkpt>
        <trkpt lat="29.5435503" lon="103.3338444"><ele>2394.48</ele><time>2026-05-05T11:42:29.000Z</time></trkpt>
        <trkpt lat="29.5434829" lon="103.3337545"><ele>2394.29</ele><time>2026-05-05T11:42:45.000Z</time></trkpt>
        <trkpt lat="29.5434078" lon="103.333677"><ele>2394.75</ele><time>2026-05-05T11:43:05.000Z</time></trkpt>
        <trkpt lat="29.5433542" lon="103.3335785"><ele>2393.56</ele><time>2026-05-05T11:43:21.000Z</time></trkpt>
        <trkpt lat="29.543329" lon="103.3334735"><ele>2392.01</ele><time>2026-05-05T11:43:31.000Z</time></trkpt>
        <trkpt lat="29.5433142" lon="103.33336"><ele>2390.39</ele><time>2026-05-05T11:43:41.000Z</time></trkpt>
        <trkpt lat="29.5432947" lon="103.3332451"><ele>2389.57</ele><time>2026-05-05T11:43:57.000Z</time></trkpt>
        <trkpt lat="29.5432339" lon="103.3331511"><ele>2389.08</ele><time>2026-05-05T11:44:11.000Z</time></trkpt>
        <trkpt lat="29.5431752" lon="103.3330659"><ele>2388.47</ele><time>2026-05-05T11:44:35.000Z</time></trkpt>
        <trkpt lat="29.5431086" lon="103.3329924"><ele>2388.78</ele><time>2026-05-05T11:44:49.000Z</time></trkpt>
        <trkpt lat="29.5430218" lon="103.3329768"><ele>2389.57</ele><time>2026-05-05T11:44:59.000Z</time></trkpt>
        <trkpt lat="29.5429241" lon="103.3329578"><ele>2389.67</ele><time>2026-05-05T11:45:13.000Z</time></trkpt>
        <trkpt lat="29.5428357" lon="103.3329142"><ele>2390.76</ele><time>2026-05-05T11:45:31.000Z</time></trkpt>
        <trkpt lat="29.5427713" lon="103.3328324"><ele>2390.88</ele><time>2026-05-05T11:45:41.000Z</time></trkpt>
        <trkpt lat="29.5427275" lon="103.3327358"><ele>2391.14</ele><time>2026-05-05T11:45:53.000Z</time></trkpt>
        <trkpt lat="29.5426667" lon="103.3326577"><ele>2390.91</ele><time>2026-05-05T11:46:13.000Z</time></trkpt>
        <trkpt lat="29.5425737" lon="103.332618"><ele>2390.49</ele><time>2026-05-05T11:46:25.000Z</time></trkpt>
        <trkpt lat="29.5425154" lon="103.332532"><ele>2390.5</ele><time>2026-05-05T11:46:37.000Z</time></trkpt>
        <trkpt lat="29.5424926" lon="103.3324243"><ele>2391.1</ele><time>2026-05-05T11:46:51.000Z</time></trkpt>
        <trkpt lat="29.5424456" lon="103.3323356"><ele>2391.6</ele><time>2026-05-05T11:47:05.000Z</time></trkpt>
        <trkpt lat="29.5424126" lon="103.3322713"><ele>2391.34</ele><time>2026-05-05T11:47:17.000Z</time></trkpt>
        <trkpt lat="29.5423671" lon="103.3321817"><ele>2391.3</ele><time>2026-05-05T11:47:35.000Z</time></trkpt>
        <trkpt lat="29.5423191" lon="103.3320856"><ele>2391.28</ele><time>2026-05-05T11:47:45.000Z</time></trkpt>
        <trkpt lat="29.5422396" lon="103.3320223"><ele>2390.52</ele><time>2026-05-05T11:47:55.000Z</time></trkpt>
        <trkpt lat="29.5421382" lon="103.3320032"><ele>2390.21</ele><time>2026-05-05T11:48:07.000Z</time></trkpt>
        <trkpt lat="29.5421065" lon="103.3320055"><ele>2389.89</ele><time>2026-05-05T11:48:09.000Z</time></trkpt>
        <trkpt lat="29.542031" lon="103.3320024"><ele>2389.64</ele><time>2026-05-05T11:48:31.000Z</time></trkpt>
        <trkpt lat="29.5419405" lon="103.3319585"><ele>2387.66</ele><time>2026-05-05T11:48:43.000Z</time></trkpt>
        <trkpt lat="29.5418903" lon="103.3318681"><ele>2386.43</ele><time>2026-05-05T11:48:53.000Z</time></trkpt>
        <trkpt lat="29.5418552" lon="103.3317568"><ele>2385.8</ele><time>2026-05-05T11:49:03.000Z</time></trkpt>
        <trkpt lat="29.5417852" lon="103.3316751"><ele>2385.61</ele><time>2026-05-05T11:49:15.000Z</time></trkpt>
        <trkpt lat="29.541756" lon="103.3316615"><ele>2385.84</ele><time>2026-05-05T11:49:19.000Z</time></trkpt>
        <trkpt lat="29.5416843" lon="103.3316555"><ele>2386.03</ele><time>2026-05-05T11:49:45.000Z</time></trkpt>
        <trkpt lat="29.5415884" lon="103.3316795"><ele>2386.33</ele><time>2026-05-05T11:49:57.000Z</time></trkpt>
        <trkpt lat="29.5414923" lon="103.3317063"><ele>2386.18</ele><time>2026-05-05T11:50:07.000Z</time></trkpt>
        <trkpt lat="29.5413972" lon="103.3317339"><ele>2386.87</ele><time>2026-05-05T11:50:17.000Z</time></trkpt>
        <trkpt lat="29.5412986" lon="103.3317569"><ele>2387.23</ele><time>2026-05-05T11:50:27.000Z</time></trkpt>
        <trkpt lat="29.5411982" lon="103.3317703"><ele>2387.7</ele><time>2026-05-05T11:50:37.000Z</time></trkpt>
        <trkpt lat="29.5410957" lon="103.3317754"><ele>2389.05</ele><time>2026-05-05T11:50:49.000Z</time></trkpt>
        <trkpt lat="29.5410019" lon="103.3318052"><ele>2389.81</ele><time>2026-05-05T11:53:23.000Z</time></trkpt>
        <trkpt lat="29.5409026" lon="103.3317952"><ele>2390.31</ele><time>2026-05-05T11:53:43.000Z</time></trkpt>
        <trkpt lat="29.5408122" lon="103.3317541"><ele>2392.19</ele><time>2026-05-05T11:53:55.000Z</time></trkpt>
        <trkpt lat="29.5407228" lon="103.3317328"><ele>2393.19</ele><time>2026-05-05T11:54:11.000Z</time></trkpt>
        <trkpt lat="29.5406276" lon="103.3317556"><ele>2392.96</ele><time>2026-05-05T11:54:25.000Z</time></trkpt>
        <trkpt lat="29.540545" lon="103.3318207"><ele>2394.19</ele><time>2026-05-05T11:54:37.000Z</time></trkpt>
        <trkpt lat="29.5404628" lon="103.3318845"><ele>2393.41</ele><time>2026-05-05T11:54:47.000Z</time></trkpt>
        <trkpt lat="29.5403782" lon="103.3319311"><ele>2394.2</ele><time>2026-05-05T11:54:59.000Z</time></trkpt>
        <trkpt lat="29.5402917" lon="103.3319743"><ele>2395.63</ele><time>2026-05-05T11:55:11.000Z</time></trkpt>
        <trkpt lat="29.540204" lon="103.3320313"><ele>2395.94</ele><time>2026-05-05T11:55:25.000Z</time></trkpt>
        <trkpt lat="29.5401271" lon="103.3320955"><ele>2395.8</ele><time>2026-05-05T11:55:37.000Z</time></trkpt>
        <trkpt lat="29.5400723" lon="103.3321224"><ele>2395.66</ele><time>2026-05-05T11:55:45.000Z</time></trkpt>
        <trkpt lat="29.5400232" lon="103.3322021"><ele>2396.18</ele><time>2026-05-05T11:56:11.000Z</time></trkpt>
        <trkpt lat="29.5399507" lon="103.3322595"><ele>2396.91</ele><time>2026-05-05T11:56:21.000Z</time></trkpt>
        <trkpt lat="29.5398652" lon="103.332302"><ele>2397</ele><time>2026-05-05T11:56:31.000Z</time></trkpt>
        <trkpt lat="29.5397743" lon="103.3323364"><ele>2397.71</ele><time>2026-05-05T11:56:43.000Z</time></trkpt>
        <trkpt lat="29.5396921" lon="103.3323965"><ele>2397.15</ele><time>2026-05-05T11:56:57.000Z</time></trkpt>
        <trkpt lat="29.5396081" lon="103.3324554"><ele>2397.81</ele><time>2026-05-05T11:57:15.000Z</time></trkpt>
        <trkpt lat="29.5395382" lon="103.3325264"><ele>2399.29</ele><time>2026-05-05T11:57:37.000Z</time></trkpt>
        <trkpt lat="29.5394575" lon="103.3325798"><ele>2402.55</ele><time>2026-05-05T11:58:25.000Z</time></trkpt>
        <trkpt lat="29.5393994" lon="103.3326578"><ele>2404.26</ele><time>2026-05-05T11:59:51.000Z</time></trkpt>
        <trkpt lat="29.5393363" lon="103.3327351"><ele>2407.17</ele><time>2026-05-05T12:00:05.000Z</time></trkpt>
        <trkpt lat="29.5392638" lon="103.3327988"><ele>2409.44</ele><time>2026-05-05T12:00:21.000Z</time></trkpt>
        <trkpt lat="29.5391808" lon="103.3328641"><ele>2411.57</ele><time>2026-05-05T12:00:37.000Z</time></trkpt>
        <trkpt lat="29.5390833" lon="103.3329095"><ele>2412.8</ele><time>2026-05-05T12:00:49.000Z</time></trkpt>
        <trkpt lat="29.5390057" lon="103.3329801"><ele>2414.16</ele><time>2026-05-05T12:01:03.000Z</time></trkpt>
        <trkpt lat="29.53893" lon="103.3330454"><ele>2415.1</ele><time>2026-05-05T12:01:17.000Z</time></trkpt>
        <trkpt lat="29.5388487" lon="103.3331051"><ele>2414.84</ele><time>2026-05-05T12:01:27.000Z</time></trkpt>
        <trkpt lat="29.5387528" lon="103.3331424"><ele>2414.9</ele><time>2026-05-05T12:01:37.000Z</time></trkpt>
        <trkpt lat="29.5386609" lon="103.3331825"><ele>2415.71</ele><time>2026-05-05T12:01:49.000Z</time></trkpt>
        <trkpt lat="29.5385656" lon="103.3332144"><ele>2416.78</ele><time>2026-05-05T12:02:01.000Z</time></trkpt>
        <trkpt lat="29.538471" lon="103.333236"><ele>2417.92</ele><time>2026-05-05T12:02:13.000Z</time></trkpt>
        <trkpt lat="29.5383707" lon="103.3332451"><ele>2419.61</ele><time>2026-05-05T12:02:27.000Z</time></trkpt>
        <trkpt lat="29.5382765" lon="103.3332682"><ele>2420.43</ele><time>2026-05-05T12:02:43.000Z</time></trkpt>
        <trkpt lat="29.5382006" lon="103.3333271"><ele>2420.82</ele><time>2026-05-05T12:02:55.000Z</time></trkpt>
        <trkpt lat="29.5381227" lon="103.3333842"><ele>2421.32</ele><time>2026-05-05T12:03:07.000Z</time></trkpt>
        <trkpt lat="29.5380434" lon="103.3334472"><ele>2421.93</ele><time>2026-05-05T12:03:19.000Z</time></trkpt>
        <trkpt lat="29.5379592" lon="103.3334911"><ele>2422.11</ele><time>2026-05-05T12:03:29.000Z</time></trkpt>
        <trkpt lat="29.5378682" lon="103.3335402"><ele>2422.83</ele><time>2026-05-05T12:03:43.000Z</time></trkpt>
        <trkpt lat="29.5377786" lon="103.3335941"><ele>2423.07</ele><time>2026-05-05T12:03:55.000Z</time></trkpt>
        <trkpt lat="29.5377052" lon="103.3336691"><ele>2423.55</ele><time>2026-05-05T12:04:09.000Z</time></trkpt>
        <trkpt lat="29.5376369" lon="103.3337523"><ele>2423.87</ele><time>2026-05-05T12:04:25.000Z</time></trkpt>
        <trkpt lat="29.5375606" lon="103.3338113"><ele>2425.15</ele><time>2026-05-05T12:04:41.000Z</time></trkpt>
        <trkpt lat="29.5374636" lon="103.3337925"><ele>2426.87</ele><time>2026-05-05T12:09:35.000Z</time></trkpt>
        <trkpt lat="29.5373621" lon="103.3337718"><ele>2426.81</ele><time>2026-05-05T12:09:49.000Z</time></trkpt>
        <trkpt lat="29.5372869" lon="103.3338249"><ele>2427.06</ele><time>2026-05-05T12:10:05.000Z</time></trkpt>
        <trkpt lat="29.5372443" lon="103.333922"><ele>2428.78</ele><time>2026-05-05T12:10:25.000Z</time></trkpt>
        <trkpt lat="29.5372166" lon="103.3340278"><ele>2431.71</ele><time>2026-05-05T12:10:51.000Z</time></trkpt>
        <trkpt lat="29.5371768" lon="103.3341268"><ele>2434.29</ele><time>2026-05-05T12:11:09.000Z</time></trkpt>
        <trkpt lat="29.5370993" lon="103.3341884"><ele>2436</ele><time>2026-05-05T12:12:07.000Z</time></trkpt>
        <trkpt lat="29.537011" lon="103.3342345"><ele>2437.34</ele><time>2026-05-05T12:12:29.000Z</time></trkpt>
        <trkpt lat="29.5369198" lon="103.3342609"><ele>2439.16</ele><time>2026-05-05T12:13:01.000Z</time></trkpt>
        <trkpt lat="29.5368289" lon="103.3342887"><ele>2440.03</ele><time>2026-05-05T12:13:21.000Z</time></trkpt>
        <trkpt lat="29.536742" lon="103.3343281"><ele>2441.79</ele><time>2026-05-05T12:13:55.000Z</time></trkpt>
        <trkpt lat="29.5366485" lon="103.3343498"><ele>2444.39</ele><time>2026-05-05T12:14:19.000Z</time></trkpt>
        <trkpt lat="29.5365495" lon="103.3343596"><ele>2445.92</ele><time>2026-05-05T12:14:33.000Z</time></trkpt>
        <trkpt lat="29.5364506" lon="103.3343456"><ele>2446.2</ele><time>2026-05-05T12:14:49.000Z</time></trkpt>
        <trkpt lat="29.5363569" lon="103.3343605"><ele>2445.97</ele><time>2026-05-05T12:15:09.000Z</time></trkpt>
        <trkpt lat="29.5362649" lon="103.3343652"><ele>2446.84</ele><time>2026-05-05T12:15:35.000Z</time></trkpt>
        <trkpt lat="29.5361774" lon="103.3343382"><ele>2448.46</ele><time>2026-05-05T12:16:01.000Z</time></trkpt>
        <trkpt lat="29.5360988" lon="103.3342853"><ele>2450.17</ele><time>2026-05-05T12:16:17.000Z</time></trkpt>
        <trkpt lat="29.5360197" lon="103.3342282"><ele>2452.06</ele><time>2026-05-05T12:17:03.000Z</time></trkpt>
        <trkpt lat="29.5359327" lon="103.334178"><ele>2454.57</ele><time>2026-05-05T12:17:33.000Z</time></trkpt>
        <trkpt lat="29.5358479" lon="103.3341334"><ele>2456.93</ele><time>2026-05-05T12:17:55.000Z</time></trkpt>
        <trkpt lat="29.535768" lon="103.3340815"><ele>2459.39</ele><time>2026-05-05T12:18:11.000Z</time></trkpt>
        <trkpt lat="29.5356763" lon="103.3340385"><ele>2461.09</ele><time>2026-05-05T12:28:15.000Z</time></trkpt>
        <trkpt lat="29.5355981" lon="103.3339758"><ele>2463.21</ele><time>2026-05-05T12:28:27.000Z</time></trkpt>
        <trkpt lat="29.5355408" lon="103.333893"><ele>2464.49</ele><time>2026-05-05T12:28:49.000Z</time></trkpt>
        <trkpt lat="29.5354911" lon="103.3338046"><ele>2465.04</ele><time>2026-05-05T12:29:25.000Z</time></trkpt>
        <trkpt lat="29.5354318" lon="103.3337135"><ele>2466.61</ele><time>2026-05-05T12:30:09.000Z</time></trkpt>
        <trkpt lat="29.5353697" lon="103.3336313"><ele>2467.75</ele><time>2026-05-05T12:30:19.000Z</time></trkpt>
        <trkpt lat="29.5353546" lon="103.3335214"><ele>2468.35</ele><time>2026-05-05T12:31:37.000Z</time></trkpt>
        <trkpt lat="29.5352889" lon="103.333427"><ele>2472.41</ele><time>2026-05-05T12:31:57.000Z</time></trkpt>
        <trkpt lat="29.5352327" lon="103.3333276"><ele>2475.58</ele><time>2026-05-05T12:32:23.000Z</time></trkpt>
        <trkpt lat="29.5351911" lon="103.3332302"><ele>2478.16</ele><time>2026-05-05T12:33:09.000Z</time></trkpt>
        <trkpt lat="29.5351567" lon="103.3331307"><ele>2480.98</ele><time>2026-05-05T12:33:45.000Z</time></trkpt>
        <trkpt lat="29.5351142" lon="103.3330316"><ele>2485.32</ele><time>2026-05-05T12:34:35.000Z</time></trkpt>
        <trkpt lat="29.5350674" lon="103.332935"><ele>2488.09</ele><time>2026-05-05T12:34:57.000Z</time></trkpt>
        <trkpt lat="29.5350007" lon="103.3328541"><ele>2490.78</ele><time>2026-05-05T12:35:17.000Z</time></trkpt>
        <trkpt lat="29.5349059" lon="103.332825"><ele>2493.08</ele><time>2026-05-05T12:35:31.000Z</time></trkpt>
        <trkpt lat="29.5348727" lon="103.332904"><ele>2494.74</ele><time>2026-05-05T12:35:53.000Z</time></trkpt>
        <trkpt lat="29.5349323" lon="103.3329717"><ele>2495.38</ele><time>2026-05-05T12:36:05.000Z</time></trkpt>
        <trkpt lat="29.5349521" lon="103.332914"><ele>2495.3</ele><time>2026-05-05T12:36:19.000Z</time></trkpt>
        <trkpt lat="29.534961" lon="103.3327483"><ele>2494.52</ele><time>2026-05-05T12:40:49.000Z</time></trkpt>
        <trkpt lat="29.534968" lon="103.3327965"><ele>2490.95</ele><time>2026-05-05T12:40:53.000Z</time></trkpt>
        <trkpt lat="29.5349813" lon="103.3328961"><ele>2491.72</ele><time>2026-05-05T12:41:43.000Z</time></trkpt>
        <trkpt lat="29.5349239" lon="103.3329905"><ele>2485.65</ele><time>2026-05-05T12:41:49.000Z</time></trkpt>
        <trkpt lat="29.5348258" lon="103.3329954"><ele>2489.25</ele><time>2026-05-05T12:41:59.000Z</time></trkpt>
        <trkpt lat="29.5347247" lon="103.3330101"><ele>2491.88</ele><time>2026-05-05T12:42:17.000Z</time></trkpt>
        <trkpt lat="29.5346259" lon="103.3330405"><ele>2494.07</ele><time>2026-05-05T12:42:53.000Z</time></trkpt>
        <trkpt lat="29.5345271" lon="103.3330636"><ele>2498.24</ele><time>2026-05-05T12:43:21.000Z</time></trkpt>
        <trkpt lat="29.5344236" lon="103.3331064"><ele>2502.77</ele><time>2026-05-05T12:43:49.000Z</time></trkpt>
        <trkpt lat="29.5343337" lon="103.3331612"><ele>2505.74</ele><time>2026-05-05T12:44:19.000Z</time></trkpt>
        <trkpt lat="29.5342496" lon="103.3331411"><ele>2509.32</ele><time>2026-05-05T12:45:13.000Z</time></trkpt>
        <trkpt lat="29.5342194" lon="103.3331044"><ele>2510.42</ele><time>2026-05-05T12:45:19.000Z</time></trkpt>
        <trkpt lat="29.534166" lon="103.3331431"><ele>2512.23</ele><time>2026-05-05T12:45:43.000Z</time></trkpt>
        <trkpt lat="29.5340861" lon="103.3331929"><ele>2515.63</ele><time>2026-05-05T12:46:13.000Z</time></trkpt>
        <trkpt lat="29.5339957" lon="103.3332242"><ele>2518.63</ele><time>2026-05-05T12:46:39.000Z</time></trkpt>
        <trkpt lat="29.5338998" lon="103.3332356"><ele>2520.75</ele><time>2026-05-05T12:47:25.000Z</time></trkpt>
        <trkpt lat="29.5338194" lon="103.333184"><ele>2523.12</ele><time>2026-05-05T12:48:03.000Z</time></trkpt>
        <trkpt lat="29.5337452" lon="103.3331145"><ele>2525.13</ele><time>2026-05-05T12:48:47.000Z</time></trkpt>
        <trkpt lat="29.5336787" lon="103.3330369"><ele>2529.55</ele><time>2026-05-05T12:49:29.000Z</time></trkpt>
        <trkpt lat="29.5336064" lon="103.3329704"><ele>2534.05</ele><time>2026-05-05T12:50:13.000Z</time></trkpt>
        <trkpt lat="29.5335318" lon="103.3329001"><ele>2537.82</ele><time>2026-05-05T12:50:51.000Z</time></trkpt>
        <trkpt lat="29.5334541" lon="103.3328396"><ele>2541.12</ele><time>2026-05-05T12:51:31.000Z</time></trkpt>
        <trkpt lat="29.5333797" lon="103.3327716"><ele>2545.45</ele><time>2026-05-05T12:52:07.000Z</time></trkpt>
        <trkpt lat="29.5333001" lon="103.3327072"><ele>2549.77</ele><time>2026-05-05T12:52:47.000Z</time></trkpt>
        <trkpt lat="29.533217" lon="103.3326571"><ele>2552.6</ele><time>2026-05-05T12:53:19.000Z</time></trkpt>
        <trkpt lat="29.5331372" lon="103.3326033"><ele>2555.32</ele><time>2026-05-05T12:53:53.000Z</time></trkpt>
        <trkpt lat="29.5330729" lon="103.3325234"><ele>2558.56</ele><time>2026-05-05T12:54:35.000Z</time></trkpt>
        <trkpt lat="29.5330014" lon="103.3324573"><ele>2564.11</ele><time>2026-05-05T12:55:07.000Z</time></trkpt>
        <trkpt lat="29.5329326" lon="103.3323751"><ele>2566.86</ele><time>2026-05-05T12:55:27.000Z</time></trkpt>
        <trkpt lat="29.5328645" lon="103.3322817"><ele>2569.89</ele><time>2026-05-05T12:55:49.000Z</time></trkpt>
        <trkpt lat="29.5327944" lon="103.3322014"><ele>2573.26</ele><time>2026-05-05T12:56:13.000Z</time></trkpt>
        <trkpt lat="29.5327339" lon="103.3321169"><ele>2576.34</ele><time>2026-05-05T12:56:55.000Z</time></trkpt>
        <trkpt lat="29.5326767" lon="103.3320329"><ele>2579.9</ele><time>2026-05-05T12:57:23.000Z</time></trkpt>
        <trkpt lat="29.5325982" lon="103.3319779"><ele>2583.02</ele><time>2026-05-05T12:58:15.000Z</time></trkpt>
        <trkpt lat="29.5325522" lon="103.3318937"><ele>2585.18</ele><time>2026-05-05T12:58:37.000Z</time></trkpt>
        <trkpt lat="29.5325176" lon="103.331792"><ele>2587.79</ele><time>2026-05-05T12:58:57.000Z</time></trkpt>
        <trkpt lat="29.5325087" lon="103.3317652"><ele>2590.86</ele><time>2026-05-05T12:59:01.000Z</time></trkpt>
        <trkpt lat="29.5325196" lon="103.331676"><ele>2592.63</ele><time>2026-05-05T13:00:23.000Z</time></trkpt>
        <trkpt lat="29.5324998" lon="103.3316531"><ele>2596.82</ele><time>2026-05-05T13:00:31.000Z</time></trkpt>
        <trkpt lat="29.5324396" lon="103.3315677"><ele>2600.34</ele><time>2026-05-05T13:01:33.000Z</time></trkpt>
        <trkpt lat="29.5324072" lon="103.3314693"><ele>2604.1</ele><time>2026-05-05T13:01:51.000Z</time></trkpt>
        <trkpt lat="29.532384" lon="103.3313662"><ele>2606.47</ele><time>2026-05-05T13:02:31.000Z</time></trkpt>
        <trkpt lat="29.5323383" lon="103.3312761"><ele>2610.05</ele><time>2026-05-05T13:03:15.000Z</time></trkpt>
        <trkpt lat="29.5323042" lon="103.3311763"><ele>2613.79</ele><time>2026-05-05T13:03:41.000Z</time></trkpt>
        <trkpt lat="29.532285" lon="103.3312337"><ele>2616.97</ele><time>2026-05-05T13:04:13.000Z</time></trkpt>
        <trkpt lat="29.5322333" lon="103.3313315"><ele>2620.45</ele><time>2026-05-05T13:04:49.000Z</time></trkpt>
        <trkpt lat="29.5321612" lon="103.3313229"><ele>2624.31</ele><time>2026-05-05T13:05:39.000Z</time></trkpt>
        <trkpt lat="29.5321246" lon="103.3312337"><ele>2626.45</ele><time>2026-05-05T13:06:07.000Z</time></trkpt>
        <trkpt lat="29.5321229" lon="103.3311211"><ele>2629.48</ele><time>2026-05-05T13:06:33.000Z</time></trkpt>
        <trkpt lat="29.5321275" lon="103.3309953"><ele>2633.22</ele><time>2026-05-05T13:06:57.000Z</time></trkpt>
        <trkpt lat="29.5321574" lon="103.3308824"><ele>2635.94</ele><time>2026-05-05T13:07:19.000Z</time></trkpt>
        <trkpt lat="29.5321454" lon="103.330768"><ele>2639.25</ele><time>2026-05-05T13:07:37.000Z</time></trkpt>
        <trkpt lat="29.5321423" lon="103.3306468"><ele>2640.87</ele><time>2026-05-05T13:07:51.000Z</time></trkpt>
        <trkpt lat="29.5321449" lon="103.3305879"><ele>2642.2</ele><time>2026-05-05T13:07:59.000Z</time></trkpt>
        <trkpt lat="29.5321452" lon="103.3304988"><ele>2642.75</ele><time>2026-05-05T13:08:21.000Z</time></trkpt>
        <trkpt lat="29.5320692" lon="103.3304252"><ele>2644.06</ele><time>2026-05-05T13:09:29.000Z</time></trkpt>
        <trkpt lat="29.5320861" lon="103.3303217"><ele>2647.04</ele><time>2026-05-05T13:10:01.000Z</time></trkpt>
        <trkpt lat="29.532145" lon="103.3302451"><ele>2650.39</ele><time>2026-05-05T13:10:43.000Z</time></trkpt>
        <trkpt lat="29.5320908" lon="103.3302374"><ele>2655.24</ele><time>2026-05-05T13:11:35.000Z</time></trkpt>
        <trkpt lat="29.5320007" lon="103.3302538"><ele>2657.62</ele><time>2026-05-05T13:12:27.000Z</time></trkpt>
        <trkpt lat="29.5318932" lon="103.3302607"><ele>2663.47</ele><time>2026-05-05T13:13:13.000Z</time></trkpt>
        <trkpt lat="29.5318092" lon="103.330211"><ele>2668.05</ele><time>2026-05-05T13:13:51.000Z</time></trkpt>
        <trkpt lat="29.531753" lon="103.3301259"><ele>2671.64</ele><time>2026-05-05T13:14:25.000Z</time></trkpt>
        <trkpt lat="29.5316797" lon="103.3300547"><ele>2676.34</ele><time>2026-05-05T13:14:45.000Z</time></trkpt>
        <trkpt lat="29.5315786" lon="103.330031"><ele>2679.75</ele><time>2026-05-05T13:15:47.000Z</time></trkpt>
        <trkpt lat="29.5314983" lon="103.3299775"><ele>2683.35</ele><time>2026-05-05T13:16:23.000Z</time></trkpt>
        <trkpt lat="29.5314244" lon="103.3299134"><ele>2687.49</ele><time>2026-05-05T13:17:13.000Z</time></trkpt>
        <trkpt lat="29.5313498" lon="103.3298475"><ele>2692.44</ele><time>2026-05-05T13:18:09.000Z</time></trkpt>
        <trkpt lat="29.5312721" lon="103.3297905"><ele>2698.3</ele><time>2026-05-05T13:19:59.000Z</time></trkpt>
        <trkpt lat="29.5312626" lon="103.3296799"><ele>2702.88</ele><time>2026-05-05T13:20:57.000Z</time></trkpt>
        <trkpt lat="29.5312038" lon="103.32959"><ele>2709.86</ele><time>2026-05-05T13:21:45.000Z</time></trkpt>
        <trkpt lat="29.5311484" lon="103.329504"><ele>2715.97</ele><time>2026-05-05T13:22:29.000Z</time></trkpt>
        <trkpt lat="29.5311136" lon="103.3294033"><ele>2720.71</ele><time>2026-05-05T13:22:53.000Z</time></trkpt>
        <trkpt lat="29.5311069" lon="103.3292915"><ele>2724.43</ele><time>2026-05-05T13:23:05.000Z</time></trkpt>
        <trkpt lat="29.5311116" lon="103.3291783"><ele>2727.83</ele><time>2026-05-05T13:23:31.000Z</time></trkpt>
        <trkpt lat="29.5310932" lon="103.3290698"><ele>2731.26</ele><time>2026-05-05T13:23:51.000Z</time></trkpt>
        <trkpt lat="29.5310899" lon="103.3289645"><ele>2733.34</ele><time>2026-05-05T13:24:03.000Z</time></trkpt>
        <trkpt lat="29.5310796" lon="103.3288971"><ele>2736.3</ele><time>2026-05-05T13:24:19.000Z</time></trkpt>
        <trkpt lat="29.5310702" lon="103.3288037"><ele>2738.96</ele><time>2026-05-05T13:25:01.000Z</time></trkpt>
        <trkpt lat="29.531106" lon="103.3287148"><ele>2739.27</ele><time>2026-05-05T13:25:15.000Z</time></trkpt>
        <trkpt lat="29.5311205" lon="103.3286146"><ele>2741.4</ele><time>2026-05-05T13:25:55.000Z</time></trkpt>
        <trkpt lat="29.5311454" lon="103.3285107"><ele>2742.86</ele><time>2026-05-05T13:26:09.000Z</time></trkpt>
        <trkpt lat="29.5311809" lon="103.3284105"><ele>2745.63</ele><time>2026-05-05T13:26:33.000Z</time></trkpt>
        <trkpt lat="29.5312029" lon="103.3283037"><ele>2747.56</ele><time>2026-05-05T13:26:47.000Z</time></trkpt>
        <trkpt lat="29.5312297" lon="103.3282021"><ele>2748.49</ele><time>2026-05-05T13:26:59.000Z</time></trkpt>
        <trkpt lat="29.5312339" lon="103.328097"><ele>2748.8</ele><time>2026-05-05T13:27:11.000Z</time></trkpt>
        <trkpt lat="29.5312359" lon="103.3279878"><ele>2749.57</ele><time>2026-05-05T13:27:27.000Z</time></trkpt>
        <trkpt lat="29.5312557" lon="103.3278799"><ele>2750.37</ele><time>2026-05-05T13:27:41.000Z</time></trkpt>
        <trkpt lat="29.531221" lon="103.3277865"><ele>2752.62</ele><time>2026-05-05T13:28:07.000Z</time></trkpt>
        <trkpt lat="29.5312108" lon="103.3276791"><ele>2754.88</ele><time>2026-05-05T13:28:37.000Z</time></trkpt>
        <trkpt lat="29.5312122" lon="103.3275966"><ele>2758.59</ele><time>2026-05-05T13:28:51.000Z</time></trkpt>
        <trkpt lat="29.5312092" lon="103.3274999"><ele>2760.37</ele><time>2026-05-05T13:29:41.000Z</time></trkpt>
        <trkpt lat="29.5312041" lon="103.3273981"><ele>2762.04</ele><time>2026-05-05T13:30:03.000Z</time></trkpt>
        <trkpt lat="29.5312081" lon="103.3272939"><ele>2764.72</ele><time>2026-05-05T13:30:47.000Z</time></trkpt>
        <trkpt lat="29.5311877" lon="103.3271881"><ele>2767.8</ele><time>2026-05-05T13:31:27.000Z</time></trkpt>
        <trkpt lat="29.5311281" lon="103.3271055"><ele>2771.68</ele><time>2026-05-05T13:32:07.000Z</time></trkpt>
        <trkpt lat="29.5310969" lon="103.3270935"><ele>2774.26</ele><time>2026-05-05T13:32:09.000Z</time></trkpt>
        <trkpt lat="29.5310356" lon="103.3270524"><ele>2775.96</ele><time>2026-05-05T13:32:31.000Z</time></trkpt>
        <trkpt lat="29.530949" lon="103.3270077"><ele>2777.31</ele><time>2026-05-05T13:32:57.000Z</time></trkpt>
        <trkpt lat="29.5308505" lon="103.326977"><ele>2778.93</ele><time>2026-05-05T13:33:15.000Z</time></trkpt>
        <trkpt lat="29.5307977" lon="103.3268844"><ele>2781.33</ele><time>2026-05-05T13:34:17.000Z</time></trkpt>
        <trkpt lat="29.5307614" lon="103.3267877"><ele>2784.65</ele><time>2026-05-05T13:34:45.000Z</time></trkpt>
        <trkpt lat="29.5306979" lon="103.3268355"><ele>2787.78</ele><time>2026-05-05T13:35:15.000Z</time></trkpt>
        <trkpt lat="29.5306164" lon="103.326879"><ele>2791.15</ele><time>2026-05-05T13:35:37.000Z</time></trkpt>
        <trkpt lat="29.5305245" lon="103.3269166"><ele>2793.53</ele><time>2026-05-05T13:36:13.000Z</time></trkpt>
        <trkpt lat="29.5304384" lon="103.3269669"><ele>2794.93</ele><time>2026-05-05T13:36:35.000Z</time></trkpt>
        <trkpt lat="29.5303537" lon="103.3270195"><ele>2797.35</ele><time>2026-05-05T13:37:05.000Z</time></trkpt>
        <trkpt lat="29.5302602" lon="103.3270566"><ele>2800.97</ele><time>2026-05-05T13:37:35.000Z</time></trkpt>
        <trkpt lat="29.530174" lon="103.3271049"><ele>2805.2</ele><time>2026-05-05T13:37:53.000Z</time></trkpt>
        <trkpt lat="29.5300892" lon="103.3271673"><ele>2807.73</ele><time>2026-05-05T13:38:11.000Z</time></trkpt>
        <trkpt lat="29.5300101" lon="103.3272412"><ele>2809.64</ele><time>2026-05-05T13:38:25.000Z</time></trkpt>
        <trkpt lat="29.5299373" lon="103.3273152"><ele>2811.82</ele><time>2026-05-05T13:38:41.000Z</time></trkpt>
        <trkpt lat="29.5298689" lon="103.3273986"><ele>2813.02</ele><time>2026-05-05T13:38:59.000Z</time></trkpt>
        <trkpt lat="29.5298316" lon="103.3275005"><ele>2813.38</ele><time>2026-05-05T13:39:11.000Z</time></trkpt>
        <trkpt lat="29.5298006" lon="103.3276161"><ele>2814.31</ele><time>2026-05-05T13:39:23.000Z</time></trkpt>
        <trkpt lat="29.5297607" lon="103.3277202"><ele>2814.62</ele><time>2026-05-05T13:39:37.000Z</time></trkpt>
        <trkpt lat="29.5297031" lon="103.3278019"><ele>2815.02</ele><time>2026-05-05T13:39:49.000Z</time></trkpt>
        <trkpt lat="29.5296121" lon="103.3278331"><ele>2815.99</ele><time>2026-05-05T13:40:01.000Z</time></trkpt>
        <trkpt lat="29.5295062" lon="103.327838"><ele>2816.34</ele><time>2026-05-05T13:40:13.000Z</time></trkpt>
        <trkpt lat="29.5294056" lon="103.3278265"><ele>2816.83</ele><time>2026-05-05T13:40:23.000Z</time></trkpt>
        <trkpt lat="29.5293076" lon="103.327815"><ele>2817.52</ele><time>2026-05-05T13:40:35.000Z</time></trkpt>
        <trkpt lat="29.5292513" lon="103.3278844"><ele>2818.94</ele><time>2026-05-05T13:40:55.000Z</time></trkpt>
        <trkpt lat="29.5292274" lon="103.3279864"><ele>2820.44</ele><time>2026-05-05T13:41:09.000Z</time></trkpt>
        <trkpt lat="29.5291965" lon="103.328095"><ele>2822.86</ele><time>2026-05-05T13:41:33.000Z</time></trkpt>
        <trkpt lat="29.529167" lon="103.328201"><ele>2823.65</ele><time>2026-05-05T13:41:59.000Z</time></trkpt>
        <trkpt lat="29.5291611" lon="103.3283086"><ele>2823.96</ele><time>2026-05-05T13:42:23.000Z</time></trkpt>
        <trkpt lat="29.5291451" lon="103.3284182"><ele>2826.65</ele><time>2026-05-05T13:43:13.000Z</time></trkpt>
        <trkpt lat="29.5291057" lon="103.3285219"><ele>2830.42</ele><time>2026-05-05T13:43:47.000Z</time></trkpt>
        <trkpt lat="29.5290669" lon="103.3286284"><ele>2834.51</ele><time>2026-05-05T13:44:19.000Z</time></trkpt>
        <trkpt lat="29.5290179" lon="103.3287339"><ele>2837.96</ele><time>2026-05-05T13:44:35.000Z</time></trkpt>
        <trkpt lat="29.5289715" lon="103.3288351"><ele>2839.6</ele><time>2026-05-05T13:45:09.000Z</time></trkpt>
        <trkpt lat="29.5289353" lon="103.3289395"><ele>2841.32</ele><time>2026-05-05T13:45:23.000Z</time></trkpt>
        <trkpt lat="29.528877" lon="103.3290281"><ele>2842.93</ele><time>2026-05-05T13:45:37.000Z</time></trkpt>
        <trkpt lat="29.5288333" lon="103.3291195"><ele>2844.94</ele><time>2026-05-05T13:46:31.000Z</time></trkpt>
        <trkpt lat="29.5287854" lon="103.3292101"><ele>2846.8</ele><time>2026-05-05T13:46:43.000Z</time></trkpt>
        <trkpt lat="29.5287277" lon="103.3292978"><ele>2848.66</ele><time>2026-05-05T13:46:55.000Z</time></trkpt>
        <trkpt lat="29.5286711" lon="103.3293937"><ele>2850.02</ele><time>2026-05-05T13:47:09.000Z</time></trkpt>
        <trkpt lat="29.5286432" lon="103.3295017"><ele>2852.29</ele><time>2026-05-05T13:47:27.000Z</time></trkpt>
        <trkpt lat="29.5286222" lon="103.329609"><ele>2854.46</ele><time>2026-05-05T13:47:41.000Z</time></trkpt>
        <trkpt lat="29.5286047" lon="103.3297234"><ele>2856.31</ele><time>2026-05-05T13:48:05.000Z</time></trkpt>
        <trkpt lat="29.528592" lon="103.3298333"><ele>2858.01</ele><time>2026-05-05T13:48:19.000Z</time></trkpt>
        <trkpt lat="29.5285793" lon="103.3299394"><ele>2859.14</ele><time>2026-05-05T13:48:31.000Z</time></trkpt>
        <trkpt lat="29.5285386" lon="103.3300319"><ele>2860.38</ele><time>2026-05-05T13:48:41.000Z</time></trkpt>
        <trkpt lat="29.5284791" lon="103.3301099"><ele>2861.64</ele><time>2026-05-05T13:48:51.000Z</time></trkpt>
        <trkpt lat="29.5283927" lon="103.3301719"><ele>2862.59</ele><time>2026-05-05T13:49:03.000Z</time></trkpt>
        <trkpt lat="29.5283189" lon="103.3302444"><ele>2861.67</ele><time>2026-05-05T13:49:13.000Z</time></trkpt>
        <trkpt lat="29.5282706" lon="103.3303417"><ele>2861.32</ele><time>2026-05-05T13:49:23.000Z</time></trkpt>
        <trkpt lat="29.5282838" lon="103.3304552"><ele>2861.21</ele><time>2026-05-05T13:49:35.000Z</time></trkpt>
        <trkpt lat="29.5283124" lon="103.330564"><ele>2861.91</ele><time>2026-05-05T13:49:51.000Z</time></trkpt>
        <trkpt lat="29.5282902" lon="103.330668"><ele>2863.67</ele><time>2026-05-05T13:50:19.000Z</time></trkpt>
        <trkpt lat="29.5282321" lon="103.3307535"><ele>2864.84</ele><time>2026-05-05T13:50:45.000Z</time></trkpt>
        <trkpt lat="29.5281555" lon="103.3308243"><ele>2866.62</ele><time>2026-05-05T13:51:09.000Z</time></trkpt>
        <trkpt lat="29.5281001" lon="103.33091"><ele>2868.79</ele><time>2026-05-05T13:51:37.000Z</time></trkpt>
        <trkpt lat="29.5280684" lon="103.3310131"><ele>2871.71</ele><time>2026-05-05T13:51:52.000Z</time></trkpt>
        <trkpt lat="29.5280321" lon="103.33112"><ele>2874.84</ele><time>2026-05-05T13:52:07.000Z</time></trkpt>
        <trkpt lat="29.5280016" lon="103.3312304"><ele>2877.63</ele><time>2026-05-05T13:53:01.000Z</time></trkpt>
        <trkpt lat="29.5279352" lon="103.3313063"><ele>2880.87</ele><time>2026-05-05T13:53:15.000Z</time></trkpt>
        <trkpt lat="29.5278627" lon="103.3313753"><ele>2882.74</ele><time>2026-05-05T13:53:27.000Z</time></trkpt>
        <trkpt lat="29.5277962" lon="103.3314506"><ele>2884.35</ele><time>2026-05-05T13:53:43.000Z</time></trkpt>
        <trkpt lat="29.5277619" lon="103.3315533"><ele>2885.47</ele><time>2026-05-05T13:54:09.000Z</time></trkpt>
        <trkpt lat="29.5277147" lon="103.3316576"><ele>2887.05</ele><time>2026-05-05T13:54:21.000Z</time></trkpt>
        <trkpt lat="29.5277015" lon="103.3317762"><ele>2888.95</ele><time>2026-05-05T13:54:35.000Z</time></trkpt>
        <trkpt lat="29.5276983" lon="103.3318881"><ele>2890.82</ele><time>2026-05-05T13:54:45.000Z</time></trkpt>
        <trkpt lat="29.5277013" lon="103.3319992"><ele>2892.53</ele><time>2026-05-05T13:54:55.000Z</time></trkpt>
        <trkpt lat="29.5276549" lon="103.3320908"><ele>2894.9</ele><time>2026-05-05T13:55:15.000Z</time></trkpt>
        <trkpt lat="29.5275724" lon="103.3321429"><ele>2896.96</ele><time>2026-05-05T13:55:37.000Z</time></trkpt>
        <trkpt lat="29.5274996" lon="103.3321973"><ele>2899.3</ele><time>2026-05-05T13:55:59.000Z</time></trkpt>
        <trkpt lat="29.5275174" lon="103.3322774"><ele>2900.43</ele><time>2026-05-05T13:56:15.000Z</time></trkpt>
        <trkpt lat="29.5275698" lon="103.3323648"><ele>2902</ele><time>2026-05-05T13:56:31.000Z</time></trkpt>
        <trkpt lat="29.527526" lon="103.3324172"><ele>2903.78</ele><time>2026-05-05T13:56:41.000Z</time></trkpt>
        <trkpt lat="29.5274541" lon="103.3324835"><ele>2904.93</ele><time>2026-05-05T13:57:03.000Z</time></trkpt>
        <trkpt lat="29.5273676" lon="103.3325342"><ele>2905.61</ele><time>2026-05-05T13:57:21.000Z</time></trkpt>
        <trkpt lat="29.5272774" lon="103.3325015"><ele>2908.79</ele><time>2026-05-05T13:57:33.000Z</time></trkpt>
        <trkpt lat="29.5272116" lon="103.3324143"><ele>2911.02</ele><time>2026-05-05T13:57:45.000Z</time></trkpt>
        <trkpt lat="29.5271475" lon="103.3323022"><ele>2910.96</ele><time>2026-05-05T13:57:55.000Z</time></trkpt>
        <trkpt lat="29.527075" lon="103.3323099"><ele>2910.79</ele><time>2026-05-05T13:58:11.000Z</time></trkpt>
        <trkpt lat="29.5270337" lon="103.3323946"><ele>2911.46</ele><time>2026-05-05T13:58:31.000Z</time></trkpt>
        <trkpt lat="29.5270154" lon="103.3325069"><ele>2913.77</ele><time>2026-05-05T13:58:51.000Z</time></trkpt>
        <trkpt lat="29.5270498" lon="103.3326145"><ele>2916.11</ele><time>2026-05-05T13:59:05.000Z</time></trkpt>
        <trkpt lat="29.5270726" lon="103.3327267"><ele>2919.53</ele><time>2026-05-05T13:59:17.000Z</time></trkpt>
        <trkpt lat="29.5270635" lon="103.3328426"><ele>2921.5</ele><time>2026-05-05T13:59:41.000Z</time></trkpt>
        <trkpt lat="29.5270339" lon="103.3329578"><ele>2922.63</ele><time>2026-05-05T13:59:55.000Z</time></trkpt>
        <trkpt lat="29.5270567" lon="103.3330631"><ele>2925.14</ele><time>2026-05-05T14:00:07.000Z</time></trkpt>
        <trkpt lat="29.5271031" lon="103.3331628"><ele>2926.89</ele><time>2026-05-05T14:00:19.000Z</time></trkpt>
        <trkpt lat="29.5271261" lon="103.3332746"><ele>2927.61</ele><time>2026-05-05T14:00:33.000Z</time></trkpt>
        <trkpt lat="29.5270851" lon="103.333371"><ele>2928.8</ele><time>2026-05-05T14:00:45.000Z</time></trkpt>
        <trkpt lat="29.5270074" lon="103.3334387"><ele>2930.61</ele><time>2026-05-05T14:00:57.000Z</time></trkpt>
        <trkpt lat="29.5269162" lon="103.3334781"><ele>2930.71</ele><time>2026-05-05T14:01:37.000Z</time></trkpt>
        <trkpt lat="29.526818" lon="103.3335026"><ele>2932.6</ele><time>2026-05-05T14:01:55.000Z</time></trkpt>
        <trkpt lat="29.5267237" lon="103.3335303"><ele>2934.48</ele><time>2026-05-05T14:02:17.000Z</time></trkpt>
        <trkpt lat="29.5266299" lon="103.3335601"><ele>2936.84</ele><time>2026-05-05T14:02:41.000Z</time></trkpt>
        <trkpt lat="29.5265344" lon="103.3335989"><ele>2940.03</ele><time>2026-05-05T14:03:15.000Z</time></trkpt>
        <trkpt lat="29.5264591" lon="103.333627"><ele>2943.61</ele><time>2026-05-05T14:03:29.000Z</time></trkpt>
        <trkpt lat="29.52637" lon="103.3336725"><ele>2946.51</ele><time>2026-05-05T14:03:43.000Z</time></trkpt>
        <trkpt lat="29.5262871" lon="103.3337318"><ele>2948.23</ele><time>2026-05-05T14:03:55.000Z</time></trkpt>
        <trkpt lat="29.5261955" lon="103.3337808"><ele>2948.18</ele><time>2026-05-05T14:04:09.000Z</time></trkpt>
        <trkpt lat="29.5261149" lon="103.3338401"><ele>2949.14</ele><time>2026-05-05T14:04:23.000Z</time></trkpt>
        <trkpt lat="29.5260339" lon="103.3338883"><ele>2950.54</ele><time>2026-05-05T14:04:41.000Z</time></trkpt>
        <trkpt lat="29.5259526" lon="103.333947"><ele>2952.64</ele><time>2026-05-05T14:05:01.000Z</time></trkpt>
        <trkpt lat="29.5258632" lon="103.3340054"><ele>2955.31</ele><time>2026-05-05T14:05:41.000Z</time></trkpt>
        <trkpt lat="29.5257777" lon="103.3340587"><ele>2957.56</ele><time>2026-05-05T14:05:53.000Z</time></trkpt>
        <trkpt lat="29.5256924" lon="103.334114"><ele>2960.19</ele><time>2026-05-05T14:06:05.000Z</time></trkpt>
        <trkpt lat="29.5256147" lon="103.3341845"><ele>2961.34</ele><time>2026-05-05T14:06:25.000Z</time></trkpt>
        <trkpt lat="29.5255536" lon="103.3342729"><ele>2962.87</ele><time>2026-05-05T14:06:43.000Z</time></trkpt>
        <trkpt lat="29.5254966" lon="103.3343621"><ele>2964.8</ele><time>2026-05-05T14:06:55.000Z</time></trkpt>
        <trkpt lat="29.5254321" lon="103.3344418"><ele>2966.16</ele><time>2026-05-05T14:07:09.000Z</time></trkpt>
        <trkpt lat="29.5253722" lon="103.3345226"><ele>2966.81</ele><time>2026-05-05T14:07:29.000Z</time></trkpt>
        <trkpt lat="29.5253103" lon="103.3346083"><ele>2968.97</ele><time>2026-05-05T14:07:45.000Z</time></trkpt>
        <trkpt lat="29.525245" lon="103.3346936"><ele>2972.24</ele><time>2026-05-05T14:08:09.000Z</time></trkpt>
        <trkpt lat="29.5251636" lon="103.3347425"><ele>2975.18</ele><time>2026-05-05T14:08:37.000Z</time></trkpt>
        <trkpt lat="29.5250858" lon="103.3348038"><ele>2975.8</ele><time>2026-05-05T14:08:51.000Z</time></trkpt>
        <trkpt lat="29.5250204" lon="103.334881"><ele>2977.57</ele><time>2026-05-05T14:09:17.000Z</time></trkpt>
        <trkpt lat="29.5249239" lon="103.3348955"><ele>2978.81</ele><time>2026-05-05T14:09:29.000Z</time></trkpt>
        <trkpt lat="29.5248267" lon="103.3348685"><ele>2980.12</ele><time>2026-05-05T14:09:39.000Z</time></trkpt>
        <trkpt lat="29.5247383" lon="103.3348204"><ele>2981.59</ele><time>2026-05-05T14:09:49.000Z</time></trkpt>
        <trkpt lat="29.5246476" lon="103.3347806"><ele>2983.07</ele><time>2026-05-05T14:10:11.000Z</time></trkpt>
        <trkpt lat="29.5245596" lon="103.3347992"><ele>2985.37</ele><time>2026-05-05T14:10:23.000Z</time></trkpt>
        <trkpt lat="29.5244772" lon="103.3348547"><ele>2987.27</ele><time>2026-05-05T14:10:35.000Z</time></trkpt>
        <trkpt lat="29.524391" lon="103.3349269"><ele>2987.96</ele><time>2026-05-05T14:10:45.000Z</time></trkpt>
        <trkpt lat="29.5242979" lon="103.3349801"><ele>2989.42</ele><time>2026-05-05T14:10:55.000Z</time></trkpt>
        <trkpt lat="29.5242063" lon="103.3349901"><ele>2990.17</ele><time>2026-05-05T14:11:03.000Z</time></trkpt>
        <trkpt lat="29.5241057" lon="103.3349759"><ele>2990.82</ele><time>2026-05-05T14:11:13.000Z</time></trkpt>
        <trkpt lat="29.524003" lon="103.3349604"><ele>2990.54</ele><time>2026-05-05T14:11:23.000Z</time></trkpt>
        <trkpt lat="29.5239045" lon="103.3349421"><ele>2990.82</ele><time>2026-05-05T14:11:33.000Z</time></trkpt>
        <trkpt lat="29.5238017" lon="103.3349366"><ele>2991.67</ele><time>2026-05-05T14:11:45.000Z</time></trkpt>
        <trkpt lat="29.5236897" lon="103.3349178"><ele>2993.36</ele><time>2026-05-05T14:11:55.000Z</time></trkpt>
        <trkpt lat="29.5235793" lon="103.3349129"><ele>2995.15</ele><time>2026-05-05T14:12:05.000Z</time></trkpt>
        <trkpt lat="29.5234753" lon="103.3349041"><ele>2995.81</ele><time>2026-05-05T14:12:15.000Z</time></trkpt>
        <trkpt lat="29.523382" lon="103.3348835"><ele>2995.93</ele><time>2026-05-05T14:12:27.000Z</time></trkpt>
        <trkpt lat="29.523291" lon="103.3348587"><ele>2996.75</ele><time>2026-05-05T14:12:37.000Z</time></trkpt>
        <trkpt lat="29.5232001" lon="103.3348181"><ele>2997.2</ele><time>2026-05-05T14:12:47.000Z</time></trkpt>
        <trkpt lat="29.5231099" lon="103.3347821"><ele>2998.2</ele><time>2026-05-05T14:12:57.000Z</time></trkpt>
        <trkpt lat="29.5230176" lon="103.334763"><ele>2998.64</ele><time>2026-05-05T14:13:09.000Z</time></trkpt>
        <trkpt lat="29.5229149" lon="103.3347586"><ele>2999.53</ele><time>2026-05-05T14:13:19.000Z</time></trkpt>
        <trkpt lat="29.5228189" lon="103.3347791"><ele>3000.25</ele><time>2026-05-05T14:13:38.000Z</time></trkpt>
        <trkpt lat="29.5227255" lon="103.334809"><ele>3001.29</ele><time>2026-05-05T14:13:53.000Z</time></trkpt>
        <trkpt lat="29.5227286" lon="103.3348914"><ele>3003.08</ele><time>2026-05-05T14:14:07.000Z</time></trkpt>
        <trkpt lat="29.5227374" lon="103.3350031"><ele>3004.71</ele><time>2026-05-05T14:14:17.000Z</time></trkpt>
        <trkpt lat="29.5227506" lon="103.3351163"><ele>3005.94</ele><time>2026-05-05T14:14:31.000Z</time></trkpt>
        <trkpt lat="29.5227716" lon="103.335231"><ele>3007.06</ele><time>2026-05-05T14:14:43.000Z</time></trkpt>
        <trkpt lat="29.5227844" lon="103.3353437"><ele>3009.18</ele><time>2026-05-05T14:14:59.000Z</time></trkpt>
        <trkpt lat="29.5228023" lon="103.3354559"><ele>3012.09</ele><time>2026-05-05T14:15:15.000Z</time></trkpt>
        <trkpt lat="29.5228063" lon="103.3355627"><ele>3014.42</ele><time>2026-05-05T14:15:29.000Z</time></trkpt>
        <trkpt lat="29.5228083" lon="103.335672"><ele>3016.1</ele><time>2026-05-05T14:15:45.000Z</time></trkpt>
        <trkpt lat="29.5228326" lon="103.3357848"><ele>3017.83</ele><time>2026-05-05T14:16:01.000Z</time></trkpt>
        <trkpt lat="29.5228437" lon="103.3358456"><ele>3020.36</ele><time>2026-05-05T14:16:07.000Z</time></trkpt>
        <trkpt lat="29.5229054" lon="103.3358923"><ele>3021.58</ele><time>2026-05-05T14:16:21.000Z</time></trkpt>
        <trkpt lat="29.5229957" lon="103.3358962"><ele>3022.83</ele><time>2026-05-05T14:16:35.000Z</time></trkpt>
        <trkpt lat="29.5230359" lon="103.3359735"><ele>3024.57</ele><time>2026-05-05T14:16:43.000Z</time></trkpt>
        <trkpt lat="29.5230546" lon="103.3360798"><ele>3025.46</ele><time>2026-05-05T14:16:51.000Z</time></trkpt>
        <trkpt lat="29.5230546" lon="103.3360798"><ele>3025.46</ele><time>2026-05-05T14:16:53.000Z</time></trkpt>
      </trkseg>
  </trk>
</gpx>